     2              OBSERVATION DATA    G (GPS)             RINEX VERSION / TYPE
ASRINEXO V2.9.9 LH AIUB 01-FEB- 1 17:18                     PGM / RUN BY / DATE
BERN ASHTECH Z-12                                           COMMENT
BIT 2 OF LLI (+4) FLAGS DATA COLLECTED UNDER "AS" CONDITION COMMENT
USNB                                                        MARKER NAME
                                                            OBSERVER / AGENCY
? ASHTECH Z-XII3 1D15                                       REC # / TYPE / VERS
? CHOKE RING                                                ANT # / TYPE
  1112166.2500 -4842870.0200  3985507.0400                  APPROX POSITION XYZ
        0.0000        0.0000        0.0000                  ANTENNA: DELTA H/E/N
     1     1                                                WAVELENGTH FACT L1/2
     5    C1    L1    L2    P1    P2                        # / TYPES OF OBSERV
  2000     7    19     0     0   30.000000                  TIME OF FIRST OBS
                                                            END OF HEADER
 00  7 19  0  0 30.0000000  0  6 21 29 05 25 30 11
  21532718.738   -19095108.190 8 -14869289.63346  21532724.768    21532735.6064
  20833908.796   -21239524.867 9 -16526300.48747  20833911.127    20833918.8244
  23762719.562    -6673021.742 8  -5181246.98845  23762721.060    23762732.8884
  20932344.117   -22575662.812 9 -17579670.25848  20932345.951    20932354.3284
  21512566.610   -16473103.147 9 -12821897.20947  21512569.918    21512578.6014
  24043790.058    -4841623.247 7  -3736065.04745  24043791.159    24043802.4504
 00  7 19  0  1  0.0000000  0  6 21 29 05 25 30 11
  21549342.704   -19007763.409 8 -14801228.85646  21549346.452    21549356.5074
  20839692.288   -21209138.426 9 -16502622.77047  20839693.524    20839701.5544
  23778565.576    -6589679.572 8  -5116305.07745  23778579.409    23778592.5044
  20926208.543   -22607891.611 9 -17604783.58648  20926213.119    20926221.3524
  21517109.992   -16449230.050 9 -12803294.80847  21517112.659    21517121.9344
  24050791.943    -4804814.645 7  -3707383.02645  24050795.858    24050807.5674
 00  7 19  0  1 30.0000000  0  6 21 29 05 25 30 11
  21566043.135   -18920001.131 8 -14732842.74847  21566046.763    21566058.2084
  20845525.051   -21178476.477 9 -16478730.36447  20845527.784    20845536.0224
  23794506.416    -6505989.858 8  -5051092.37945  23794505.205    23794518.9714
  20920138.035   -22639799.481 9 -17629646.84448  20920141.215    20920149.3834
  21521766.381   -16424759.682 9 -12784226.98847  21521769.760    21521778.0904
  24057873.740    -4767610.100 8  -3678392.45345  24057876.689    24057886.9184
 00  7 19  0  2  0.0000000  0  6 21 29 05 25 30 11
  21582821.390   -18831823.540 8 -14664133.04147  21582827.041    21582837.1004
  20851412.730   -21147538.692 9 -16454623.02647  20851414.900    20851423.3294
  23810486.665    -6421954.903 8  -4985610.68945  23810496.281    23810509.8024
  20914126.846   -22671387.263 9 -17654260.68348  20914130.037    20914138.3284
  21526537.596   -16399692.938 9 -12764694.47147  21526539.670    21526548.4154
  24065024.062    -4730011.856 7  -3649095.13945  24065028.772    24065041.1544
 00  7 19  0  2 30.0000000  0  6 21 29 05 25 30 11
  21599682.788   -18743232.917 8 -14595101.48447  21599685.339    21599695.7114
  20857350.948   -21116324.527 9 -16430300.32747  20857354.647    20857362.9644
  23826552.008    -6337577.560 8  -4919862.17745  23826554.297    23826566.1534
  20908174.632   -22702655.301 9 -17678625.36748  20908180.009    20908188.2954
  21531421.988   -16374030.524 9 -12744697.79647  21531422.643    21531431.3834
  24072262.661    -4692022.244 8  -3619492.84545  24072260.818    24072269.7764
 00  7 19  0  3  0.0000000  0  6 21 29 05 25 30 11
  21616619.564   -18654232.729 8 -14525750.79547  21616621.205    21616632.1884
  20863344.372   -21084833.694 9 -16405762.03947  20863347.369    20863355.7604
  23842671.696    -6252860.088 8  -4853848.65045  23842675.500    23842687.6124
  20902285.908   -22733603.248 9 -17702740.62948  20902290.690    20902298.9294
  21536416.475   -16347773.752 9 -12724237.98147  21536419.351    21536427.7614
  24079558.048    -4653643.696 7  -3589587.47145  24079563.589    24079573.9494
 00  7 19  0  3 30.0000000  0  6 21 29 05 25 30 11
  21633632.143   -18564824.310 8 -14456082.00046  21633635.862    21633645.1644
  20869390.389   -21053065.519 9 -16381007.63947  20869392.871    20869400.6664
  23858857.988    -6167805.009 8  -4787572.05245  23858861.188    23858872.9884
  20896460.257   -22764232.063 9 -17726607.22748  20896462.469    20896470.6674
  21541526.284   -16320923.141 9 -12703315.43247  21541528.643    21541537.2064
  24086936.191    -4614877.973 7  -3559380.42445  24086939.276    24086952.6394
 00  7 19  0  4  0.0000000  0  6 21 29 05 25 30 11
  21650723.745   -18475010.350 8 -14386097.17046  21650726.253    21650737.2784
  20875489.348   -21021019.823 9 -16356036.98247  20875490.439    20875499.1424
  23875114.634    -6082414.928 8  -4721034.41045  23875110.505    23875121.7144
  20890690.960   -22794542.153 9 -17750225.45948  20890695.034    20890702.9594
  21546745.444   -16293480.183 9 -12681931.31447  21546750.727    21546759.2954
  24094384.842    -4575727.371 7  -3528873.51245  24094389.152    24094400.5764
 00  7 19  0  4 30.0000000  0  6 21 29 05 25 30 11
  21667892.647   -18384793.477 8 -14315798.42047  21667894.145    21667905.1244
  20881637.761   -20988696.084 9 -16330849.67347  20881641.593    20881650.2454
  23891419.141    -5996692.321 8  -4654237.64145  23891422.358    23891435.3094
  20884986.381   -22824533.887 9 -17773595.62548  20884987.617    20884995.6614
  21552083.618   -16265445.615 9 -12660086.21547  21552085.690    21552094.3654
  24101909.033    -4536194.298 7  -3498068.53845  24101913.453    24101923.0964
 00  7 19  0  5  0.0000000  0  6 21 29 05 25 30 11
  21685134.771   -18294175.889 8 -14245187.42346  21685138.161    21685148.4114
  20887842.263   -20956093.788 9 -16305445.31647  20887845.503    20887854.3534
  23907794.807    -5910639.823 8  -4587183.81145  23907797.772    23907809.6754
  20879338.152   -22854207.564 9 -17796717.95148  20879340.636    20879348.9914
  21557529.092   -16236820.227 9 -12637780.72547  21557533.135    21557541.0114
  24109508.018    -4496280.900 8  -3466967.19745  24109508.016    24109520.1304
 00  7 19  0  5 30.0000000  0  6 21 29 05 25 30 11
  21702453.938   -18203159.927 8 -14174266.00546  21702458.373    21702469.0174
  20894100.401   -20923212.556 9 -16279823.59647  20894102.466    20894111.5804
  23924233.256    -5824259.866 8  -4519874.85945  23924235.400    23924247.7474
  20873750.352   -22883563.273 9 -17819592.51348  20873754.106    20873762.7324
  21563089.917   -16207605.361 9 -12615015.91447  21563092.620    21563100.7244
  24117172.946    -4455989.601 7  -3435571.42245  24117174.582    24117186.7794
 00  7 19  0  6  0.0000000  0  6 21 29 05 25 30 11
  21719854.627   -18111747.953 8 -14103035.99646  21719853.142    21719863.0734
  20900409.832   -20890052.050 9 -16253984.25847  20900412.892    20900421.7204
  23940729.058    -5737554.826 8  -4452312.60645  23940735.073    23940747.1784
  20868224.643   -22912601.576 9 -17842219.74448  20868228.554    20868236.4424
  21568763.362   -16177802.225 9 -12591792.70947  21568763.879    21568772.0074
  24124912.474    -4415322.628 7  -3403882.97645  24124914.217    24124926.1414
 00  7 19  0  6 30.0000000  0  6 21 29 05 25 30 11
  21737322.541   -18019942.454 8 -14031499.36146  21737324.103    21737333.5894
  20906772.647   -20856611.838 9 -16227926.97147  20906776.500    20906784.9694
  23957290.502    -5650527.525 8  -4384499.23045  23957295.253    23957307.5534
  20862761.386   -22941322.930 9 -17864600.01048  20862763.121    20862770.9074
  21574544.447   -16147411.784 9 -12568111.86347  21574547.264    21574555.8114
  24132721.158    -4374281.974 7  -3371903.31745  24132724.870    24132735.5214
 00  7 19  0  7  0.0000000  0  6 21 29 05 25 30 11
  21754867.363   -17927745.775 8 -13959657.89046  21754867.975    21754878.7744
  20913191.034   -20822891.481 9 -16201651.38647  20913193.576    20913201.8914
  23973917.950    -5563180.347 8  -4316436.58245  23973916.255    23973929.1364
  20857354.440   -22969727.960 9 -17886733.78448  20857358.049    20857365.8554
  21580439.110   -16116435.143 9 -12543974.23547  21580441.582    21580450.5254
  24140601.984    -4332870.197 7  -3339634.45245  24140604.273    24140615.0704
 00  7 19  0  7 30.0000000  0  6 21 29 05 25 30 11
  21772484.666   -17835160.891 8 -13887513.92646  21772486.197    21772496.7584
  20919661.105   -20788890.481 9 -16175157.11947  20919663.789    20919672.1414
  23990590.297    -5475515.612 8  -4248126.47845  23990598.781    23990611.4514
  20852010.954   -22997816.510 9 -17908620.95148  20852012.857    20852020.9364
  21586447.672   -16084873.411 9 -12519380.68947  21586447.275    21586456.4554
  24148553.963    -4291089.499 7  -3307078.14145  24148554.776    24148566.1654
 00  7 19  0  8  0.0000000  0  6 21 29 05 25 30 11
  21790175.080   -17742190.276 8 -13815069.39646  21790177.638    21790189.3334
  20926184.683   -20754608.743 9 -16148444.10047  20926187.439    20926195.8394
  24007335.877    -5387536.038 7  -4179571.04245  24007341.658    24007353.5024
  20846724.551   -23025589.166 9 -17930261.96548  20846727.885    20846736.0994
  21592563.262   -16052728.124 9 -12494332.43147  21592564.586    21592573.3344
  24156576.365    -4248942.359 7  -3274236.29145  24156576.237    24156586.5204
 00  7 19  0  8 30.0000000  0  6 21 29 05 25 30 11
  21807937.474   -17648836.494 8 -13742326.31046  21807941.973    21807953.9914
  20932761.297   -20720045.554 9 -16121511.76147  20932764.625    20932773.1374
  24024143.654    -5299244.231 7  -4110772.32845  24024141.955    24024154.0494
  20841499.365   -23053046.505 9 -17951657.27948  20841502.591    20841510.8274
  21598792.232   -16020000.253 9 -12468830.21347  21598793.055    21598801.4334
  24164661.192    -4206431.060 7  -3241110.64145  24164666.169    24164675.7914
 00  7 19  0  9  0.0000000  0  6 21 29 05 25 30 11
  21825771.739   -17555101.982 8 -13669286.54946  21825779.565    21825791.4394
  20939394.314   -20685200.510 9 -16094359.79947  20939395.713    20939403.8984
  24040989.909    -5210642.690 7  -4041732.25645  24041002.912    24041014.1314
  20836334.268   -23080188.773 9 -17972807.08848  20836337.655    20836345.7394
  21605127.731   -15986690.920 9 -12442874.91047  21605131.268    21605139.7924
  24172820.656    -4163557.875 7  -3207703.06345  24172824.109    24172836.5034
 00  7 19  0  9 30.0000000  0  6 21 29 05 25 30 11
  21843688.283   -17460988.722 8 -13595951.66746  21843689.634    21843701.0244
  20946078.100   -20650073.493 9 -16066988.11547  20946079.821    20946088.2014
  24057922.284    -5121734.042 7  -3972452.91145  24057921.493    24057933.4404
  20831229.233   -23107016.161 9 -17993711.53448  20831232.921    20831240.7014
  21611576.354   -15952801.300 9 -12416467.42847  21611580.317    21611588.6254
  24181049.518    -4120325.323 7  -3174015.41845  24181050.236    24181062.0644
 00  7 19  0 10  0.0000000  0  7 22 21 29 05 25 30 11
  24503337.349    -4911768.42418  -3803114.34355  24503326.355    24503339.9534
  21861665.173   -17366500.019 8 -13522324.20846  21861669.509    21861681.3234
  20952815.232   -20614663.925 9 -16039396.26147  20952817.861    20952826.3514
  24074898.421    -5032520.703 7  -3902936.12745  24074898.305    24074909.7674
  20826184.160   -23133529.113 9 -18014370.96848  20826187.473    20826195.3174
  21618137.343   -15918332.709 9 -12389608.80247  21618139.736    21618147.7584
  24189344.198    -4076735.607 7  -3140049.49945  24189345.552    24189358.0364
 00  7 19  0 10 30.0000000  0  7 22 21 29 05 25 30 11
  24480291.163    -5032795.494 7  -3897420.93445  24480294.697    24480308.8184
  21879717.862   -17271637.729 8 -13448405.67746  21879721.429    21879732.7974
  20959605.378   -20578971.349 9 -16011583.88547  20959610.000    20959618.3684
  24091925.723    -4943005.411 8  -3833184.05945  24091932.382    24091945.0834
  20821197.087   -23159728.336 9 -18034785.93648  20821201.648    20821209.8834
  21624806.599   -15883286.549 9 -12362300.12147  21624808.545    21624817.1394
  24197704.797    -4032791.175 7  -3105807.19445  24197708.157    24197720.3984
 00  7 19  0 11  0.0000000  0  7 22 21 29 05 25 30 11
  24457260.767    -5153808.204 7  -3991716.31345  24457266.358    24457281.6334
  21897841.158   -17176405.030 8 -13374198.48646  21897844.312    21897855.1444
  20966454.167   -20542995.578 9 -15983550.83247  20966455.847    20966464.5584
  24109018.431    -4853190.662 8  -3763198.64045  24109024.078    24109037.2884
  20816271.240   -23185614.188 9 -18054956.72548  20816275.970    20816284.1104
  21631584.798   -15847663.896 9 -12334542.23747  21631587.660    21631596.5634
  24206138.216    -3988494.500 8  -3071290.36045  24206137.917    24206147.9914
 00  7 19  0 11 30.0000000  0  7 22 21 29 05 25 30 11
  24434243.187    -5274804.235 8  -4085998.71045  24434241.200    24434256.4074
  21916033.604   -17080804.286 8 -13299704.53646  21916036.242    21916047.1714
  20973352.313   -20506736.193 9 -15955296.79547  20973355.846    20973364.6004
  24126171.233    -4763078.922 8  -3692981.78645  24126171.685    24126184.8544
  20811406.372   -23211187.339 9 -18074883.84248  20811409.378    20811417.8294
  21638474.523   -15811466.411 9 -12306336.42147  21638475.354    21638484.4084
  24214632.609    -3943847.915 7  -3036500.87245  24214632.936    24214645.1644
 00  7 19  0 12  0.0000000  0  7 22 21 29 05 25 30 11
  24411223.495    -5395780.766 8  -4180265.89645  24411220.159    24411234.1814
  21934296.364   -16984838.444 8 -13224926.07746  21934297.919    21934308.8764
  20980306.466   -20470192.731 9 -15926821.39847  20980309.157    20980318.6064
  24143369.643    -4672672.752 8  -3622535.49345  24143376.289    24143388.7174
  20806599.357   -23236448.026 9 -18094567.48448  20806602.375    20806610.9184
  21645470.306   -15774695.363 9 -12277683.66947  21645472.776    21645481.6494
  24223193.236    -3898853.755 7  -3001440.54445  24223194.474    24223206.8644
 00  7 19  0 12 30.0000000  0  7 22 21 29 05 25 30 11
  24388192.805    -5516734.997 7  -4274515.74045  24388203.164    24388217.3184
  21952626.632   -16888509.247 8 -13149864.48246  21952629.036    21952639.9494
  20987315.255   -20433364.753 9 -15898124.30647  20987317.551    20987326.7324
  24160628.574    -4581974.801 8  -3551861.86845  24160634.414    24160648.0584
  20801852.401   -23261396.484 9 -18114007.83448  20801855.045    20801863.3944
  21652575.830   -15737351.926 9 -12248584.90547  21652579.063    21652587.3494
  24231818.750    -3853514.581 7  -2966111.40245  24231822.808    24231835.0764
 00  7 19  0 13  0.0000000  0  7 22 21 29 05 25 30 11
  24365176.926    -5637664.241 7  -4368746.09245  24365190.387    24365205.8454
  21971021.872   -16791819.857 8 -13074522.23246  21971028.285    21971039.1514
  20994376.410   -20396251.926 9 -15869205.25247  20994379.804    20994389.1674
  24177957.169    -4490987.877 8  -3480963.10045  24177949.694    24177962.2214
  20797164.652   -23286033.493 9 -18133205.49948  20797166.825    20797174.9644
  21659791.947   -15699437.721 9 -12219041.39947  21659794.163    21659802.5804
  24240511.857    -3807832.781 8  -2930515.25145  24240516.305    24240527.9824
 00  7 19  0 13 30.0000000  0  7 22 21 29 05 25 30 11
  24342192.319    -5758566.164 7  -4462955.20545  24342183.916    24342198.3124
  21989495.010   -16694772.649 8 -12998901.14546  21989495.607    21989507.4914
  21001493.620   -20358854.119 9 -15840064.13347  21001496.618    21001505.6524
  24195312.055    -4399714.323 8  -3409840.96845  24195318.499    24195331.4914
  20792533.781   -23310359.234 9 -18152160.60948  20792537.635    20792545.6974
  21667114.339   -15660954.136 9 -12189054.21747  21667117.230    21667125.4524
  24249268.061    -3761810.771 7  -2894654.03645  24249273.025    24249285.8214
 00  7 19  0 14  0.0000000  0  7 22 21 29 05 25 30 11
  24319180.052    -5879438.466 7  -4557141.18145  24319181.334    24319195.5334
  22008024.800   -16597370.459 8 -12923003.48346  22008031.461    22008042.6604
  21008664.001   -20321170.865 9 -15810700.58447  21008667.526    21008676.3654
  24212735.799    -4308156.516 8  -3338497.35745  24212741.145    24212754.3464
  20787965.145   -23334374.471 9 -18170873.77148  20787967.419    20787975.7984
  21674546.565   -15621902.428 9 -12158624.32947  21674548.190    21674557.0824
  24258096.442    -3715451.323 7  -2858529.87845  24258094.852    24258107.2554
 00  7 19  0 14 30.0000000  0  7 22 21 29 05 25 30 11
  24296189.720    -6000278.141 7  -4651301.78045  24296187.498    24296201.7474
  22026631.035   -16499615.969 8 -12846831.28646  22026633.563    22026644.8914
  21015889.448   -20283201.688 9 -15781114.23647  21015892.920    21015901.7024
  24230223.063    -4216317.207 8  -3266934.38345  24230217.275    24230230.2404
  20783451.786   -23358079.448 9 -18189345.16848  20783456.560    20783464.8954
  21682084.460   -15582284.384 9 -12127753.15147  21682087.607    21682096.1624
  24266981.654    -3668756.714 8  -2822144.52245  24266982.084    24266993.0314
 00  7 19  0 15  0.0000000  0  7 22 21 29 05 25 30 11
  24273192.131    -6121082.603 7  -4745434.94445  24273198.081    24273214.4124
  22045300.415   -16401511.432 8 -12770386.30846  22045302.320    22045313.3374
  21023170.704   -20244946.423 9 -15751304.96647  21023172.918    21023181.4144
  24247743.347    -4124199.118 8  -3195154.14945  24247747.293    24247760.2004
  20779002.048   -23381475.027 9 -18207575.47248  20779004.688    20779013.1184
  21689730.025   -15542101.275 9 -12096441.66447  21689734.208    21689743.0174
  24275929.149    -3621729.329 7  -2785499.82345  24275930.612    24275942.5974
 00  7 19  0 15 30.0000000  0  7 22 21 29 05 25 30 11
  24250214.505    -6241848.946 7  -4839538.33845  24250216.430    24250233.6814
  22064034.929   -16303060.217 8 -12693671.20846  22064036.726    22064048.0364
  21030504.054   -20206404.573 9 -15721272.38547  21030507.135    21030515.8444
  24265322.781    -4031804.684 8  -3123158.61745  24265329.463    24265342.1004
  20774608.335   -23404561.255 9 -18225564.72748  20774611.601    20774619.6184
  21697485.506   -15501354.637 9 -12064691.06547  21697488.017    21697496.0894
  24284937.749    -3574371.698 7  -2748597.80745  24284941.500    24284954.1584
 00  7 19  0 16  0.0000000  0  7 22 21 29 05 25 30 11
  24227228.915    -6362574.939 7  -4933610.34945  24227243.750    24227258.6974
  22082836.538   -16204264.690 8 -12616687.81046  22082836.825    22082848.1204
  21037891.550   -20167575.744 9 -15691016.18247  21037896.206    21037904.5144
  24282970.155    -3939136.466 8  -3050949.74345  24282963.842    24282976.5514
  20770273.918   -23427338.618 9 -18243313.30848  20770277.277    20770285.3704
  21705345.230   -15460045.738 9 -12032502.33347  21705348.646    21705356.9274
  24294017.386    -3526686.422 7  -2711440.51245  24294017.724    24294029.0904
 00  7 19  0 16 30.0000000  0  7 22 21 29 05 25 30 11
  24204273.567    -6483258.144 8  -5027649.08845  24204280.115    24204292.8844
  22101695.471   -16105127.259 8 -12539438.01546  22101701.884    22101713.5274
  21045336.366   -20128459.710 9 -15660536.19147  21045339.644    21045348.0964
  24300643.389    -3846196.893 7  -2978529.43045  24300650.421    24300661.8174
  20765996.930   -23449807.830 9 -18260821.77548  20766001.627    20766009.7844
  21713313.573   -15418176.420 9 -11999876.92647  21713316.365    21713324.6364
  24303147.184    -3478676.001 7  -2674029.85945  24303152.583    24303165.3874
 00  7 19  0 17  0.0000000  0  7 22 21 29 05 25 30 11
  24181325.714    -6603895.711 8  -5121652.23045  24181322.950    24181335.0284
  22120631.336   -16005651.005 8 -12461924.18446  22120632.457    22120643.5434
  21052833.733   -20089056.159 9 -15629832.15247  21052837.657    21052846.5174
  24318376.358    -3752988.726 7  -2905899.79445  24318387.390    24318398.7424
  20761781.712   -23471969.378 9 -18278090.49448  20761784.351    20761792.1624
  21721386.490   -15375748.316 9 -11966816.09047  21721390.029    21721399.1674
  24312351.900    -3430342.942 7  -2636367.76745  24312351.066    24312361.8994
 00  7 19  0 17 30.0000000  0  7 22 21 29 05 25 30 11
  24158370.049    -6724484.646 7  -5215617.50445  24158372.793    24158388.6424
  22139622.162   -15905838.711 8 -12384148.51046  22139625.848    22139636.9664
  21060386.560   -20049364.819 9 -15598903.87347  21060390.694    21060399.2904
  24336177.394    -3659514.380 7  -2833062.76245  24336174.453    24336186.9204
  20757622.540   -23493823.409 9 -18295119.58548  20757625.450    20757633.6244
  21729571.135   -15332762.886 9 -11933320.98147  21729570.068    21729578.7924
  24321604.201    -3381689.644 7  -2598456.17245  24321607.203    24321619.6254
 00  7 19  0 18  0.0000000  0  7 22 21 29 05 25 30 11
  24135435.001    -6845022.399 7  -5309542.85145  24135436.857    24135451.7714
  22158685.544   -15805692.477 8 -12306112.58946  22158684.190    22158694.8334
  21067995.303   -20009385.321 9 -15567751.05147  21067998.483    21068007.0884
  24354008.813    -3565776.521 8  -2760020.42845  24354013.264    24354024.6864
  20753521.097   -23515370.439 9 -18311909.46248  20753525.163    20753533.4264
  21737850.216   -15289221.894 9 -11899392.95947  21737855.582    21737864.6394
  24330920.298    -3332718.879 7  -2560297.18145  24330928.657    24330940.7134
 00  7 19  0 18 30.0000000  0  7 22 21 29 05 25 30 11
  24112508.537    -6965506.647 7  -5403426.55645  24112509.073    24112523.1614
  22177802.968   -15705214.856 8 -12227818.48446  22177804.243    22177815.9534
  21075659.759   -19969117.177 9 -15536373.31547  21075661.765    21075670.4884
  24371897.994    -3471777.781 8  -2686774.78545  24371899.733    24371911.5024
  20749481.694   -23536611.159 9 -18328460.66148  20749483.493    20749490.9944
  21746243.559   -15245126.863 9 -11865033.21947  21746246.660    21746255.4774
  24340305.590    -3283433.197 7  -2521892.79745  24340306.804    24340318.3014
 00  7 19  0 19  0.0000000  0  7 22 21 29 05 25 30 11
  24089596.653    -7085934.958 8  -5497266.66245  24089592.055    24089607.1894
  22196982.613   -15604409.070 8 -12149268.68246  22196986.061    22196997.9374
  21083377.441   -19928560.398 9 -15504770.66847  21083379.701    21083388.0744
  24389842.068    -3377520.820 7  -2613327.94545  24389837.727    24389848.8764
  20745496.357   -23557545.902 9 -18344773.43348  20745499.838    20745507.1194
  21754741.203   -15200479.224 9 -11830242.87947  21754742.687    21754751.5944
  24349742.760    -3233834.946 7  -2483244.86445  24349744.940    24349756.8324
 00  7 19  0 19 30.0000000  0  7 22 21 29 05 25 30 11
  24066689.772    -7206304.308 8  -5591060.79145  24066686.018    24066700.7194
  22216228.144   -15503277.409 8 -12070464.94246  22216230.346    22216243.1024
  21091147.467   -19887714.473 9 -15472942.71447  21091152.313    21091160.7704
  24407821.992    -3283008.031 8  -2539681.75445  24407821.688    24407834.0594
  20741570.272   -23578175.300 9 -18360848.27348  20741573.988    20741582.1744
  21763338.626   -15155280.888 9 -11795023.42247  21763343.867    21763352.9454
  24359237.817    -3183926.924 7  -2444355.58945  24359242.210    24359253.9854
 00  7 19  0 20  0.0000000  0  7 22 21 29 05 25 30 11
  24043784.129    -7326611.692 7  -5684806.65545  24043792.173    24043807.1554
  22235538.302   -15401823.209 8 -11991409.87946  22235536.832    22235548.9864
  21098977.164   -19846579.151 9 -15440889.25147  21098979.993    21098988.6814
  24425853.689    -3188242.037 7  -2465838.25845  24425854.907    24425868.3194
  20737702.824   -23598499.944 9 -18376685.63748  20737706.073    20737714.4064
  21772044.727   -15109533.345 9 -11759376.00747  21772049.307    21772058.0014
  24368792.371    -3133711.578 7  -2405226.84545  24368797.952    24368810.2984
 00  7 19  0 20 30.0000000  0  7 22 21 29 05 25 30 11
  24020909.717    -7446854.674 8  -5778502.33245  24020910.752    24020925.5134
  22254902.015   -15300049.283 8 -11912105.68046  22254905.150    22254916.5274
  21106858.748   -19805154.196 9 -15408610.11147  21106862.892    21106871.5854
  24443932.822    -3093225.425 7  -2391799.45545  24443935.784    24443948.4014
  20733892.684   -23618520.514 9 -18392286.06748  20733896.487    20733904.4214
  21780856.905   -15063238.441 9 -11723302.09047  21780858.789    21780867.6554
  24378407.110    -3083191.617 7  -2365860.72645  24378410.752    24378423.6204
 00  7 19  0 21  0.0000000  0  7 22 21 29 05 25 30 11
  23998039.506    -7567030.904 8  -5872145.97645  23998042.520    23998056.2644
  22274334.260   -15197958.159 8 -11832554.30846  22274332.126    22274343.3044
  21114797.926   -19763439.130 9 -15376104.90447  21114801.272    21114810.0484
  24462067.205    -2997960.839 8  -2317567.43745  24462066.250    24462075.7964
  20730141.633   -23638237.179 9 -18407649.68148  20730144.384    20730152.4904
  21789768.370   -15016398.025 9 -11686803.10547  21789772.352    21789780.5244
  24388074.353    -3032369.904 8  -2326259.49545  24388081.974    24388094.8624
 00  7 19  0 21 30.0000000  0  7 22 21 29 05 25 30 11
  23975178.736    -7687137.844 8  -5965735.67545  23975187.403    23975199.8394
  22293815.875   -15095552.759 8 -11752758.00046  22293819.143    22293830.3014
  21122791.131   -19721433.830 9 -15343373.53747  21122794.637    21122803.0784
  24480238.815    -2902450.800 7  -2243144.15945  24480239.860    24480251.9374
  20726447.771   -23657650.470 9 -18422776.91048  20726450.315    20726458.4214
  21798785.833   -14969013.589 9 -11649880.19947  21798789.182    21798797.6844
  24397809.158    -2981248.573 8  -2286424.76245  24397810.912    24397822.5764
 00  7 19  0 22  0.0000000  0  7 22 21 29 05 25 30 11
  23952340.544    -7807172.391 8  -6059268.93045  23952345.053    23952357.9944
  22313365.092   -14992835.345 8 -11672718.60346  22313365.390    22313377.4404
  21130841.881   -19679137.863 9 -15310415.67947  21130843.065    21130851.8074
  24498458.900    -2806697.756 7  -2168531.48745  24498460.713    24498473.7134
  20722811.060   -23676761.190 9 -18437668.36548  20722813.822    20722821.7334
  21807905.699   -14921086.971 9 -11612534.80447  21807909.362    21807917.7514
  24407594.562    -2929830.320 7  -2246358.65545  24407595.819    24407608.0414
 00  7 19  0 22 30.0000000  0  7 22 21 29 05 25 30 11
  23929512.624    -7927131.710 7  -6152743.55045  23929517.297    23929530.5114
  22332965.424   -14889808.688 8 -11592438.24246  22332970.556    22332982.8204
  21138943.138   -19636551.130 9 -15277231.24947  21138946.982    21138955.7084
  24516725.941    -2710704.433 7  -2093731.61345  24516726.995    24516740.0174
  20719229.457   -23695569.564 9 -18452324.22348  20719234.402    20719242.3514
  21817129.176   -14872619.928 9 -11574768.31147  21817132.464    21817141.4764
  24417432.378    -2878117.737 7  -2206063.23445  24417436.098    24417447.9944
 00  7 19  0 23  0.0000000  0  7 22 21 29 05 25 30 11
  23906694.870    -8047013.344 7  -6246157.61145  23906703.930    23906718.6684
  22352631.095   -14786475.655 8 -11511919.14746  22352635.104    22352647.0044
  21147102.955   -19593673.277 9 -15243819.97647  21147106.630    21147115.4844
  24535035.927    -2614473.405 7  -2018746.49545  24535038.930    24535051.8234
  20715709.200   -23714076.446 9 -18466745.15548  20715712.805    20715720.6154
  21826456.899   -14823614.209 9 -11536582.06747  21826458.082    21826466.4314
  24427324.689    -2826113.720 7  -2165540.68345  24427331.775    24427343.9374
 00  7 19  0 23 30.0000000  0  7 22 21 29 05 25 30 11
  23883909.147    -8166814.980 7  -6339509.35045  23883904.666    23883920.6144
  22372357.278   -14682839.060 8 -11431163.49146  22372356.549    22372368.4154
  21155318.867   -19550504.240 9 -15210181.80547  21155321.154    21155330.4804
  24553398.753    -2518007.362 7  -1943578.29345  24553397.229    24553409.4404
  20712244.467   -23732282.368 9 -18480931.57148  20712248.322    20712256.0354
  21835885.056   -14774071.751 9 -11497977.57247  21835885.785    21835894.6574
  24437278.792    -2773820.615 7  -2124792.85945  24437282.845    24437295.6604
 00  7 19  0 24  0.0000000  0  7 22 21 29 05 25 30 11
  23861124.109    -8286533.890 8  -6432796.59545  23861124.874    23861139.3534
  22392132.135   -14578902.039 8 -11350173.75646  22392135.007    22392146.7604
  21163586.680   -19507043.453 9 -15176316.29547  21163591.604    21163600.4784
  24571800.260    -2421308.785 7  -1868228.82945  24571799.513    24571809.8954
  20708837.354   -23750187.358 9 -18494883.50148  20708840.862    20708848.5484
  21845410.770   -14723994.468 9 -11458956.34647  21845414.811    21845424.0474
  24447281.798    -2721240.962 7  -2083821.79945  24447289.055    24447300.7474
 00  7 19  0 24 30.0000000  0  7 22 21 29 05 25 30 11
  23838358.933    -8406167.011 8  -6526017.03745  23838359.765    23838372.7214
  22411969.121   -14474667.324 8 -11268952.05146  22411970.207    22411983.0174
  21171917.021   -19463290.775 9 -15142223.33247  21171917.737    21171926.1804
  24590239.507    -2324380.110 7  -1792700.03245  24590242.603    24590256.1384
  20705486.455   -23767792.190 9 -18508601.53548  20705490.797    20705498.7624
  21855039.314   -14673384.014 8 -11419519.66647  21855045.475    21855055.1894
  24457348.502    -2668377.815 8  -2042629.83045  24457348.052    24457360.4884
 00  7 19  0 25  0.0000000  0  7 22 21 29 05 25 30 11
  23815609.772    -8525711.501 8  -6619168.41945  23815610.066    23815625.1764
  22431859.327   -14370137.548 8 -11187500.43646  22431861.600    22431874.0384
  21180294.644   -19419246.041 9 -15107902.79447  21180298.864    21180307.5824
  24608730.051    -2227223.968 7  -1716994.02445  24608732.176    24608744.3684
  20702196.435   -23785097.911 9 -18522086.49848  20702197.767    20702205.4124
  21864777.996   -14622242.264 9 -11379668.99247  21864777.797    21864786.7064
  24467458.570    -2615233.500 8  -2001218.72145  24467460.715    24467474.4134
 00  7 19  0 25 30.0000000  0  6 22 21 29 25 30 11
  23792871.536    -8645164.945 7  -6712248.82245  23792878.362    23792893.2414
  22451802.546   -14265315.572 8 -11105821.11746  22451808.478    22451820.7084
  21188734.294   -19374908.865 9 -15073354.37947  21188736.274    21188744.9154
  20698958.661   -23802104.702 9 -18535338.53248  20698961.259    20698969.2844
  21874607.738   -14570571.448 9 -11339406.05447  21874610.393    21874618.8464
  24477626.154    -2561810.817 8  -1959590.72245  24477627.723    24477639.3474
 00  7 19  0 26  0.0000000  0  6 22 21 29 25 30 11
  23770165.956    -8764524.918 7  -6805256.37645  23770164.693    23770179.6214
  22471808.691   -14160204.125 8 -11023916.24546  22471810.616    22471823.0314
  21197226.560   -19330279.264 9 -15038578.09647  21197229.100    21197237.6074
  20695778.900   -23818813.084 9 -18548358.03348  20695782.097    20695790.1194
  21884541.676   -14518372.990 9 -11298731.94747  21884542.975    21884552.4204
  24487840.720    -2508112.560 8  -1917747.95345  24487845.694    24487857.0524
 00  7 19  0 26 30.0000000  0  5 22 21 29 25 30
  23747464.088    -8883788.701 8  -6898188.94745  23747468.369    23747484.0864
  22491864.512   -14054805.546 8 -10941787.61946  22491868.005    22491879.9064
  21205774.638   -19285356.771 9 -15003573.58447  21205777.589    21205786.3944
  20692656.134   -23835223.706 9 -18561145.51548  20692659.238    20692667.1704
  21894571.265   -14465649.150 8 -11257648.46947  21894576.741    21894585.3574
 00  7 19  0 27  0.0000000  0  5 22 21 29 25 30
  23724789.934    -9002953.149 8  -6991044.18545  23724793.478    23724807.4004
  22511975.306   -13949123.484 8 -10859438.11246  22511978.973    22511990.6054
  21214378.603   -19240141.337 9 -14968340.82147  21214381.701    21214390.5964
  20689589.583   -23851337.049 9 -18573701.36348  20689592.884    20689600.8854
  21904702.800   -14412401.660 8 -11216156.97047  21904709.276    21904718.6294
 00  7 19  0 27 30.0000000  0  5 22 21 29 25 30
  23702136.224    -9122015.593 8  -7083819.94045  23702137.269    23702150.9654
  22532145.220   -13843160.978 8 -10776870.06146  22532142.992    22532154.4244
  21223037.883   -19194632.574 9 -14932879.47747  21223041.604    21223050.8474
  20686580.855   -23867153.880 9 -18586026.15248  20686583.195    20686591.1254
  21914935.430   -14358632.365 8 -11174258.86347  21914940.935    21914950.3464
 00  7 19  0 28  0.0000000  0  5 22 21 29 25 30
  23679487.617    -9240973.615 8  -7176514.28845  23679498.791    23679512.9274
  22552356.203   -13736920.294 8 -10694085.27146  22552359.434    22552372.6134
  21231755.003   -19148830.308 9 -14897189.43247  21231757.767    21231766.1024
  20683625.910   -23882674.280 9 -18598119.96048  20683629.510    20683637.6254
  21925269.904   -14304343.413 8 -11131955.82847  21925272.248    21925281.7544
 00  7 19  0 28 30.0000000  0  5 22 21 29 25 30
  23656881.631    -9359824.759 8  -7269125.38945  23656882.372    23656896.3614
  22572625.342   -13630403.981 8 -10611085.69546  22572628.687    22572641.2404
  21240528.028   -19102734.460 9 -14861270.61547  21240529.135    21240537.8464
  20680730.434   -23897899.308 9 -18609983.62248  20680732.616    20680740.2164
  21935699.956   -14249536.808 9 -11089249.43547  21935701.930    21935709.9664
 00  7 19  0 29  0.0000000  0  5 22 21 29 25 30
  23634282.167    -9478566.158 8  -7361650.97145  23634286.110    23634300.0374
  22592949.739   -13523615.102 8 -10527873.78346  22592949.834    22592963.0414
  21249354.601   -19056344.661 9 -14825122.75447  21249357.215    21249366.2044
  20677887.697   -23912829.389 9 -18621617.44048  20677891.252    20677899.1314
  21946224.857   -14194214.527 8 -11046141.19747  21946229.221    21946238.3374
 00  7 19  0 29 30.0000000  0  5 22 21 29 25 30
  23611705.643    -9597194.688 7  -7454088.61645  23611711.422    23611727.0204
  22613318.621   -13416557.006 8 -10444452.03246  22613323.824    22613335.7974
  21258236.285   -19009660.844 9 -14788745.78547  21258240.390    21258249.1734
  20675102.659   -23927464.823 9 -18633021.67248  20675106.249    20675114.2674
  21956849.379   -14138378.629 8 -11002632.76547  21956854.015    21956862.6564
 00  7 19  0 30  0.0000000  0  5 22 21 29 25 30
  23589152.696    -9715707.780 8  -7546436.27345  23589159.033    23589173.2064
  22633744.517   -13309232.032 8 -10360822.31346  22633747.313    22633759.1684
  21267179.464   -18962682.672 9 -14752139.44647  21267180.300    21267189.1534
  20672373.964   -23941806.562 9 -18644197.04448  20672376.906    20672384.9764
  21967575.170   -14082031.097 9 -10958725.63947  21967577.066    21967586.0964
 00  7 19  0 30 30.0000000  0  5 22 21 29 25 30
  23566628.815    -9834102.921 8  -7638692.06945  23566629.310    23566643.0744
  22654220.111   -13201643.341 8 -10276987.11746  22654220.789    22654232.6144
  21276171.031   -18915410.209 9 -14715303.79947  21276176.065    21276184.8764
  20669701.676   -23955855.446 9 -18655144.22048  20669703.364    20669711.4664
  21978393.157   -14025173.981 8 -10914421.45347  21978396.280    21978405.9394
 00  7 19  0 31  0.0000000  0  5 22 21 29 25 30
  23544127.991    -9952377.712 8  -7730854.04345  23544122.553    23544136.4024
  22674745.104   -13093793.636 8 -10192948.56846  22674743.360    22674756.2394
  21285225.928   -18867843.218 9 -14678238.64247  21285228.239    21285236.1054
  20667082.296   -23969611.793 9 -18665863.45548  20667085.937    20667093.8384
  21989308.711   -13967809.226 8 -10869721.69447  21989312.900    21989321.9874
 00  7 19  0 31 30.0000000  0  5 22 21 29 25 30
  23521636.365   -10070529.018 8  -7822919.82345  23521639.205    23521653.1904
  22695317.566   -12985685.837 8 -10108708.90146  22695316.188    22695328.9234
  21294333.767   -18819981.396 9 -14640943.74647  21294336.123    21294344.1024
  20664520.716   -23983075.905 9 -18676354.96548  20664523.755    20664531.7254
  22000324.374   -13909939.132 8 -10824628.16047  22000325.156    22000334.5274
 00  7 19  0 32  0.0000000  0  5 22 21 29 25 30
  23499177.287   -10188553.932 8  -7914887.13345  23499179.767    23499192.8624
  22715931.405   -12877322.326 8 -10024269.98246  22715937.107    22715949.3814
  21303496.823   -18771824.755 9 -14603419.12347  21303499.709    21303508.9514
  20662013.629   -23996248.352 9 -18686619.20648  20662017.276    20662025.0794
  22011431.534   -13851565.511 8 -10779142.25547  22011433.330    22011442.5164
 00  7 19  0 32 30.0000000  0  5 22 21 29 25 30
  23476750.145   -10306449.797 8  -8006753.86245  23476744.400    23476757.9914
  22736612.093   -12768706.273 8  -9939634.26646  22736606.524    22736618.8104
  21312717.242   -18723372.986 9 -14565664.53047  21312719.972    21312728.8454
  20659562.181   -24009130.188 9 -18696657.00248  20659565.941    20659573.5874
  22022636.383   -13792690.523 8 -10733265.69347  22022636.991    22022646.5804
 00  7 19  0 33  0.0000000  0  5 22 21 29 25 30
  23454334.175   -10424214.326 8  -8098518.25345  23454335.454    23454348.7384
  22757321.516   -12659841.057 8  -9854804.38046  22757322.679    22757334.7024
  21321992.608   -18674625.876 9 -14527679.81347  21321996.070    21322005.5294
  20657166.043   -24021721.867 9 -18706468.69848  20657169.686    20657177.4534
  22033935.276   -13733316.643 8 -10687000.37747  22033934.483    22033945.2934
 00  7 19  0 33 30.0000000  0  5 22 21 29 25 30
  23431940.794   -10541844.864 8  -8190178.27345  23431950.660    23431963.8534
  22778081.892   -12550729.070 8  -9769782.22645  22778084.935    22778098.0404
  21331323.848   -18625583.390 9 -14489464.93347  21331328.373    21331337.5044
  20654825.430   -24034023.892 9 -18716054.69448  20654828.714    20654836.4884
  22045323.950   -13673445.833 8 -10640347.84347  22045328.357    22045337.6194
 00  7 19  0 34  0.0000000  0  5 22 21 29 25 30
  23409582.742   -10659338.257 8  -8281731.40645  23409592.582    23409605.5344
  22798893.920   -12441373.495 8  -9684570.23546  22798895.311    22798908.0094
  21340713.734   -18576245.473 8 -14451019.84947  21340716.824    21340726.1284
  20652539.138   -24046036.907 9 -18725415.47948  20652542.672    20652550.4004
  22056809.845   -13613080.121 8 -10593309.70247  22056814.847    22056824.4544
 00  7 19  0 34 30.0000000  0  5 22 21 29 25 30
  23387266.692   -10776691.682 8  -8373175.48245  23387259.073    23387273.8204
  22819750.887   -12331777.119 8  -9599170.62346  22819749.909    22819764.6814
  21350160.421   -18526611.852 9 -14412344.33847  21350161.944    21350171.4554
  20650309.487   -24057761.516 9 -18734551.54048  20650311.681    20650319.5014
  22068394.581   -13552221.776 8 -10545887.64847  22068396.624    22068405.3844
 00  7 19  0 35  0.0000000  0  5 22 21 29 25 30
  23364954.371   -10893902.573 8  -8464508.45245  23364954.633    23364969.1294
  22840648.720   -12221943.021 8  -9513585.80746  22840652.409    22840664.8124
  21359657.909   -18476682.503 8 -14373438.40047  21359663.433    21359672.5754
  20648131.126   -24069198.185 9 -18743463.22348  20648135.001    20648143.1724
  22080070.274   -13490872.677 8 -10498083.20847  22080071.676    22080079.2704
 00  7 19  0 35 30.0000000  0  6 22 21 29 06 25 30
  23342672.057   -11010968.500 8  -8555728.52345  23342678.836    23342692.3954
  22861596.695   -12111873.901 8  -9427817.81846  22861597.941    22861610.7204
  21369218.940   -18426457.277 9 -14334301.90547  21369221.118    21369230.1914
  24849089.400    -2537303.18117  -1970397.33355  24849085.941    24849100.4774
  20646009.810   -24080347.602 9 -18752151.06748  20646013.479    20646021.4444
  22091834.879   -13429035.374 8 -10449898.33646  22091837.525    22091847.6704
 00  7 19  0 36  0.0000000  0  6 22 21 29 06 25 30
  23320431.140   -11127886.900 8  -8646833.62246  23320431.160    23320444.1844
  22882583.077   -12001572.557 8  -9341868.88646  22882586.854    22882599.7774
  21378832.934   -18375936.045 9 -14294934.75747  21378834.965    21378843.9154
  24837458.795    -2598368.030 7  -2017980.25845  24837464.648    24837479.6054
  20643943.063   -24091210.201 9 -18760615.42548  20643946.585    20643954.4454
  22103693.784   -13366711.999 8 -10401334.72446  22103697.490    22103707.0654
 00  7 19  0 36 30.0000000  0  6 22 21 29 06 25 30
  23298217.488   -11244654.435 8  -8737821.15946  23298209.431    23298223.0374
  22903617.677   -11891042.120 8  -9255741.46446  22903620.372    22903633.1394
  21388500.302   -18325118.808 8 -14255336.96247  21388504.872    21388514.3024
  24825885.383    -2659229.771 7  -2065404.81445  24825884.078    24825898.5104
  20641929.312   -24101787.069 9 -18768857.13448  20641933.852    20641941.5844
  22115642.178   -13303904.891 8 -10352394.17646  22115648.912    22115659.7484
 00  7 19  0 37  0.0000000  0  6 22 21 29 06 25 30
  23276022.373   -11361268.384 8  -8828689.01246  23276018.564    23276031.7684
  22924694.306   -11780284.961 8  -9169437.36046  22924697.353    22924709.9994
  21398227.018   -18274005.356 8 -14215508.34547  21398231.474    21398240.4294
  24814337.317    -2719885.793 8  -2112669.13545  24814341.280    24814354.4954
  20639972.278   -24112078.231 9 -18776876.20948  20639975.229    20639983.2694
  22127693.047   -13240616.260 8 -10303078.40546  22127692.088    22127703.1264
 00  7 19  0 37 30.0000000  0  6 22 21 29 06 25 30
  23253852.660   -11477726.241 8  -8919435.26345  23253857.160    23253869.7184
  22945816.756   -11669304.364 8  -9082959.17445  22945816.834    22945828.7204
  21408012.017   -18222595.549 9 -14175448.79347  21408014.751    21408023.5754
  24802833.466    -2780333.172 8  -2159770.85545  24802838.190    24802853.7934
  20638068.484   -24122084.512 9 -18784673.31048  20638071.349    20638079.1264
  22139823.539   -13176848.289 8 -10253389.12946  22139827.704    22139837.4674
 00  7 19  0 38  0.0000000  0  6 22 21 29 06 25 30
  23231718.013   -11594025.593 8  -9010057.97445  23231725.315    23231738.5614
  22966977.961   -11558103.400 8  -8996309.26945  22966976.881    22966990.1574
  21417850.303   -18170889.414 8 -14135158.33947  21417854.168    21417863.4864
  24791372.800    -2840569.263 7  -2206707.89845  24791376.097    24791390.3844
  20636218.224   -24131806.695 9 -18792249.03448  20636221.036    20636228.8764
  22152049.564   -13112602.928 8 -10203327.86246  22152052.603    22152063.5664
 00  7 19  0 38 30.0000000  0  6 22 21 29 06 25 30
  23209629.925   -11710163.587 8  -9100554.95245  23209626.531    23209637.9874
  22988176.433   -11446685.192 8  -8909490.08246  22988180.148    22988193.0444
  21427745.262   -18118886.880 8 -14094636.92247  21427749.456    21427758.9774
  24779953.314    -2900591.221 7  -2253478.10045  24779954.337    24779967.0264
  20634421.555   -24141245.149 9 -18799603.66848  20634425.048    20634432.7834
  22164363.799   -13047882.657 8 -10152896.52546  22164368.838    22164377.7194
 00  7 19  0 39  0.0000000  0  6 22 21 29 06 25 30
  23187552.237   -11826137.230 8  -9190923.87045  23187556.372    23187569.6144
  23009427.985   -11335052.060 8  -8822503.42346  23009423.224    23009436.3814
  21437696.372   -18066587.845 8 -14053884.47847  21437701.986    21437711.3274
  24768563.240    -2960396.233 7  -2300079.27445  24768570.868    24768585.4024
  20632678.306   -24150400.657 9 -18806737.82848  20632682.874    20632690.7214
  22176771.734   -12982689.920 8 -10102097.04146  22176774.495    22176785.1174
 00  7 19  0 39 30.0000000  0  6 22 21 29 06 25 30
  23165517.199   -11941943.636 8  -9281162.48045  23165518.476    23165531.1334
  23030706.841   -11223207.270 8  -8735351.81345  23030707.022    23030719.4504
  21447705.248   -18013992.207 8 -14012900.90647  21447710.682    21447719.9664
  24757235.115    -3019981.601 7  -2346509.30545  24757234.580    24757246.8244
  20630991.634   -24159273.473 9 -18813651.71348  20630994.417    20631002.0924
  22189267.773   -12917026.892 8 -10050931.11046  22189269.978    22189279.4824
 00  7 19  0 40  0.0000000  0  6 22 21 29 06 25 30
  23143511.453   -12057580.349 8  -9371268.85446  23143514.622    23143527.0744
  23052031.133   -11111153.883 8  -8648037.70445  23052028.958    23052042.7174
  21457774.301   -17961100.115 9 -13971686.33447  21457776.152    21457785.3544
  24745935.531    -3079344.510 7  -2392766.00345  24745939.103    24745951.9634
  20629357.221   -24167864.581 9 -18820346.08648  20629359.533    20629367.4104
  22201851.624   -12850895.620 8  -9999400.28946  22201854.664    22201863.4744
 00  7 19  0 40 30.0000000  0  6 22 21 29 06 25 30
  23121539.398   -12173044.891 8  -9461241.08346  23121541.823    23121554.2054
  23073388.235   -10998894.647 8  -8560563.18845  23073392.062    23073405.5164
  21467893.663   -17907911.310 8 -13930240.55047  21467897.399    21467905.9724
  24734681.135    -3138482.375 7  -2438847.33845  24734685.568    24734698.8874
  20627775.445   -24176174.661 9 -18826821.47348  20627778.120    20627786.1754
  22214525.422   -12784298.659 8  -9947506.59946  22214527.825    22214537.5024
 00  7 19  0 41  0.0000000  0  6 22 21 29 06 25 30
  23099598.626   -12288334.488 8  -9551076.96646  23099602.971    23099615.9094
  23094788.777   -10886432.444 8  -8472930.49345  23094793.474    23094806.2204
  21478070.730   -17854425.613 8 -13888563.43047  21478075.394    21478084.6794
  24723463.306    -3197392.510 7  -2484751.17845  24723473.383    24723488.7984
  20626246.992   -24184204.689 9 -18833078.63448  20626250.080    20626258.0594
  22227286.222   -12717238.574 8  -9895252.04346  22227289.281    22227298.7114
 00  7 19  0 41 30.0000000  0  6 22 21 29 06 25 30
  23077697.124   -12403446.029 8  -9640774.13046  23077697.731    23077710.2624
  23116227.423   -10773770.257 8  -8385142.01345  23116232.263    23116245.5234
  21488307.799   -17800643.416 8 -13846655.26047  21488309.548    21488318.9864
  24712303.219    -3256072.155 7  -2530475.41245  24712304.036    24712320.3744
  20624771.398   -24191954.905 9 -18839117.77148  20624775.400    20624783.1404
  22240136.003   -12649717.184 8  -9842638.01946  22240137.838    22240147.3614
 00  7 19  0 42  0.0000000  0  6 22 21 29 06 25 30
  23055820.401   -12518376.605 8  -9730330.28646  23055827.157    23055839.5614
  23137703.157   -10660911.076 8  -8297200.01645  23137709.391    23137722.0594
  21498601.113   -17746564.400 8 -13804515.81147  21498600.732    21498609.9154
  24701183.327    -3314518.666 7  -2576017.95445  24701185.264    24701198.5294
  20623349.469   -24199425.742 9 -18844939.20848  20623353.873    20623361.3374
  22253068.065   -12581737.250 8  -9789666.69346  22253073.764    22253083.4564
 00  7 19  0 42 30.0000000  0  6 22 21 29 06 25 30
  23033991.014   -12633123.967 8  -9819743.65646  23033991.388    23034003.7544
  23159221.572   -10547857.459 8  -8209106.48845  23159222.527    23159235.6934
  21508944.145   -17692188.667 8 -13762145.14947  21508948.031    21508957.4074
  24690110.644    -3372729.348 8  -2621376.80245  24690109.475    24690121.0704
  20621982.563   -24206617.865 9 -18850543.46848  20621985.341    20621992.8254
  22266094.380   -12513301.068 8  -9736339.84346  22266096.870    22266106.5264
 00  7 19  0 43  0.0000000  0  6 22 21 29 06 25 30
  23012188.063   -12747685.690 8  -9909012.38346  23012190.616    23012202.8944
  23180767.379   -10434612.959 8  -8120864.24645  23180771.996    23180786.1084
  21519347.729   -17637516.146 8 -13719543.21947  21519351.585    21519361.1684
  24679070.318    -3430701.292 7  -2666549.64945  24679076.257    24679089.3854
  20620666.691   -24213532.323 9 -18855931.35348  20620669.303    20620677.0844
  22279204.411   -12444410.864 8  -9682659.19746  22279205.916    22279215.6994
 00  7 19  0 43 30.0000000  0  6 22 21 29 06 25 30
  22990425.410   -12862058.819 8  -9998134.14745  22990425.302    22990437.4924
  23202360.189   -10321180.252 8  -8032475.36145  23202356.858    23202370.8914
  21529809.179   -17582546.818 8 -13676710.01647  21529811.917    21529821.3674
  24668090.123    -3488431.981 8  -2711534.49945  24668091.063    24668105.3694
  20619402.855   -24220169.276 9 -18861103.00648  20619406.193    20619414.4434
  22292399.124   -12375069.130 8  -9628626.71246  22292401.803    22292410.5804
 00  7 19  0 44  0.0000000  0  6 22 21 29 06 25 30
  22968695.634   -12976240.145 8 -10087106.43546  22968697.532    22968710.2574
  23223979.382   -10207562.084 8  -7943941.95445  23223979.042    23223992.2244
  21540327.081   -17527280.738 8 -13633645.58147  21540329.207    21540338.3224
  24657142.443    -3545918.529 7  -2756329.08745  24657150.558    24657165.3684
  20618192.424   -24226529.720 9 -18866059.19848  20618195.817    20618204.0104
  22305676.663   -12305278.285 8  -9574244.28546  22305682.057    22305692.4274
 00  7 19  0 44 30.0000000  0  6 22 21 29 06 25 30
  22947001.274   -13090227.020 8 -10175927.22946  22947006.704    22947019.2904
  23245626.487   -10093761.905 8  -7855266.72445  23245635.185    23245648.6664
  21550900.939   -17471717.884 8 -13590349.89247  21550902.772    21550911.5404
  24646266.113    -3603158.299 7  -2800931.34245  24646257.334    24646273.1124
  20617033.181   -24232614.058 9 -18870800.24148  20617037.771    20617046.1184
  22319045.502   -12235040.604 8  -9519513.69446  22319048.853    22319058.1484
 00  7 19  0 45  0.0000000  0  6 22 21 29 06 25 30
  22925345.756   -13204017.107 8 -10264594.67146  22925353.010    22925366.2634
  23267319.686    -9979782.209 8  -7766451.58845  23267324.220    23267338.8104
  21561527.413   -17415858.369 8 -13546823.03247  21561532.430    21561540.7104
  24635404.606    -3660148.555 7  -2845339.13045  24635412.426    24635426.3754
  20615929.789   -24238423.016 9 -18875326.69948  20615932.718    20615940.8064
  22332492.546   -12164358.535 8  -9464436.79446  22332498.628    22332507.6944
 00  7 19  0 45 30.0000000  0  6 22 21 29 06 25 30
  22903744.314   -13317607.921 8 -10353106.84146  22903737.302    22903749.7494
  23289047.137    -9865626.025 8  -7677498.96745  23289047.727    23289061.5264
  21572213.763   -17359702.137 8 -13503064.96647  21572218.164    21572227.5234
  24624616.710    -3716886.745 8  -2889550.59845  24624617.489    24624628.2844
  20614876.131   -24243957.505 9 -18879639.29348  20614879.503    20614887.5684
  22346030.380   -12093234.433 8  -9409015.45646  22346033.832    22346043.2224
 00  7 19  0 46  0.0000000  0  6 22 21 29 06 25 30
  22882150.956   -13430996.395 8 -10441461.31946  22882159.777    22882172.4484
  23310798.888    -9751296.157 8  -7588410.96845  23310803.661    23310817.4704
  21582959.162   -17303249.234 8 -13459075.72847  21582960.930    21582970.1314
  24613864.149    -3773370.120 8  -2933563.52445  24613867.895    24613881.0204
  20613875.528   -24249217.565 9 -18883738.04648  20613878.612    20613886.6124
  22359649.249   -12021670.746 8  -9353251.57846  22359651.799    22359660.7984
 00  7 19  0 46 30.0000000  0  6 22 21 29 06 25 30
  22860623.231   -13544179.544 8 -10529655.86546  22860622.970    22860633.7524
  23332589.625    -9636795.532 8  -7499189.94145  23332592.996    23332606.2034
  21593755.627   -17246499.698 8 -13414855.34147  21593760.088    21593769.1874
  24603165.499    -3829596.041 7  -2977375.85445  24603169.172    24603181.5194
  20612925.822   -24254203.968 9 -18887623.55248  20612929.447    20612937.7234
  22373349.246   -11949670.041 8  -9297147.17046  22373353.466    22373361.7574
 00  7 19  0 47  0.0000000  0  6 22 21 29 06 25 30
  22839118.153   -13657154.774 8 -10617688.36946  22839122.942    22839135.9744
  23354409.182    -9522127.166 8  -7409838.20345  23354413.970    23354427.5124
  21604614.336   -17189453.619 8 -13370403.89247  21604616.016    21604624.8374
  24592521.523    -3885561.882 7  -3020985.50145  24592517.822    24592533.0174
  20612028.628   -24258917.639 9 -18891296.53748  20612032.403    20612040.7744
  22387133.029   -11877234.580 8  -9240703.97746  22387136.570    22387147.2074
 00  7 19  0 47 30.0000000  0  6 22 21 29 06 25 30
  22817663.886   -13769919.558 8 -10705556.86346  22817665.482    22817677.4084
  23376267.402    -9407293.785 8  -7320357.87245  23376266.161    23376280.2844
  21615524.621   -17132111.073 8 -13325721.41847  21615528.155    21615536.9054
  24581914.104    -3941264.976 7  -3064390.35145  24581916.620    24581932.5184
  20611183.138   -24263358.745 9 -18894757.14048  20611187.293    20611195.5514
  22400999.858   -11804367.048 8  -9183924.13046  22401003.210    22401012.9714
 00  7 19  0 48  0.0000000  0  6 22 21 29 06 25 30
  22796239.391   -13882471.488 8 -10793259.48846  22796246.461    22796259.3134
  23398145.849    -9292299.102 8  -7230751.86745  23398148.593    23398164.0264
  21626492.619   -17074471.928 8 -13280807.83847  21626495.971    21626504.9684
  24571368.439    -3996702.573 7  -3107588.31345  24571368.307    24571383.6394
  20610390.747   -24267528.102 9 -18898005.98848  20610393.875    20610402.0944
  22414948.014   -11731069.831 8  -9126809.43546  22414950.795    22414960.7734
 00  7 19  0 48 30.0000000  0  6 22 21 29 06 25 30
  22774864.491   -13994807.479 8 -10880793.84946  22774870.100    22774881.8874
  23420060.325    -9177145.400 8  -7141021.96745  23420062.671    23420076.3014
  21637515.139   -17016536.492 8 -13235663.38447  21637520.852    21637529.8264
  24560870.172    -4051872.081 8  -3150577.39745  24560870.629    24560883.0924
  20609649.043   -24271426.726 9 -18901043.88048  20609652.428    20609660.0144
  22428980.709   -11657345.389 8  -9069361.86846  22428980.667    22428990.2654
 00  7 19  0 49  0.0000000  0  6 22 21 29 06 25 30
  22753535.701   -14106924.514 8 -10968157.63546  22753535.487    22753547.0254
  23442000.558    -9061835.819 7  -7051170.53945  23442004.575    23442019.1694
  21648598.785   -16958304.725 8 -13190288.01647  21648602.267    21648611.3554
  24550423.919    -4106770.893 8  -3193355.57645  24550423.696    24550436.8544
  20608957.981   -24275054.886 9 -18903871.02048  20608962.096    20608969.6754
  22443086.350   -11583196.239 8  -9011583.33346  22443090.779    22443100.5084
 00  7 19  0 49 30.0000000  0  6 22 21 29 06 25 30
  22732235.364   -14218819.993 8 -11055348.75246  22732242.065    22732253.6574
  23463970.284    -8946373.391 7  -6961200.03645  23463976.718    23463991.6464
  21659738.222   -16899776.790 8 -13144681.87147  21659739.969    21659748.9244
  24540023.128    -4161396.266 7  -3235920.64345  24540027.290    24540041.4424
  20608319.386   -24278413.056 9 -18906487.78048  20608322.728    20608330.8014
  22457282.671   -11508624.773 8  -8953475.73846  22457281.902    22457290.5434
 00  7 19  0 50  0.0000000  0  6 22 21 29 06 25 30
  22710994.930   -14330491.758 8 -11142365.56046  22710991.707    22711003.4804
  23485978.425    -8830760.746 8  -6871112.53845  23485976.941    23485992.8824
  21670930.377   -16840952.826 8 -13098845.06647  21670933.181    21670942.3274
  24529676.355    -4215745.603 7  -3278270.68045  24529684.853    24529697.9254
  20607732.424   -24281502.386 9 -18908895.04948  20607735.256    20607742.7694
  22471552.773   -11433633.614 8  -8895041.08646  22471551.649    22471561.3824
 00  7 19  0 50 30.0000000  0  6 22 21 29 06 25 30
  22689784.999   -14441937.068 8 -11229205.89546  22689783.741    22689795.7134
  23507997.113    -8715001.261 7  -6780910.57145  23508004.815    23508020.3264
  21682180.308   -16781832.905 8 -13052777.63747  21682183.550    21682192.5414
  24519394.430    -4269816.393 7  -3320403.63845  24519395.519    24519409.9994
  20607195.925   -24284323.473 9 -18911093.30248  20607198.403    20607205.9044
  22485902.841   -11358225.236 8  -8836281.35146  22485901.445    22485911.3114
 00  7 19  0 51  0.0000000  0  6 22 21 29 06 25 30
  22668615.896   -14553152.820 8 -11315867.36846  22668619.948    22668631.6054
  23530051.674    -8599097.704 7  -6690596.35045  23530061.645    23530076.2534
  21693486.946   -16722417.004 8 -13006479.57747  21693489.733    21693499.0194
  24509155.234    -4323605.940 7  -3362317.44845  24509160.556    24509174.0874
  20606710.203   -24286876.800 9 -18913082.91548  20606712.163    20606720.3864
  22500326.227   -11282402.135 8  -8777198.44646  22500330.288    22500340.1114
 00  7 19  0 51 30.0000000  0  6 22 21 29 06 25 30
  22647501.994   -14664136.174 8 -11402347.74846  22647501.076    22647512.3144
  23552142.605    -8483052.767 8  -6600171.95045  23552144.541    23552159.7354
  21704850.929   -16662705.441 8 -12959951.12847  21704853.169    21704861.8404
  24498976.493    -4377111.622 7  -3404010.05245  24498978.986    24498991.2424
  20606273.593   -24289162.996 9 -18914864.36748  20606277.129    20606285.2694
  22514838.867   -11206167.083 8  -8717794.55646  22514837.643    22514846.9174
 00  7 19  0 52  0.0000000  0  6 22 21 29 06 25 30
  22626423.122   -14774884.593 8 -11488645.05646  22626425.956    22626437.4544
  23574254.037    -8366869.940 8  -6509640.11145  23574254.234    23574269.3084
  21716271.921   -16602698.152 8 -12913192.24947  21716272.189    21716280.7684
  24488850.344    -4430331.100 8  -3445479.65245  24488850.800    24488864.3354
  20605890.472   -24291182.533 9 -18916438.02648  20605892.625    20605900.7794
  22529420.727   -11129522.197 8  -8658071.30846  22529422.569    22529432.2734
 00  7 19  0 52 30.0000000  0  6 22 21 29 06 25 30
  22605395.529   -14885395.721 8 -11574757.46446  22605395.652    22605407.4574
  23596387.864    -8250551.737 8  -6419002.78145  23596388.431    23596403.9454
  21727747.428   -16542395.358 8 -12866203.10947  21727747.653    21727756.6204
  24478770.217    -4483261.528 7  -3486724.04145  24478778.957    24478792.6104
  20605555.087   -24292936.181 9 -18917804.50348  20605559.109    20605567.0454
  22544081.127   -11052470.104 8  -8598030.73946  22544084.569    22544094.7784
 00  7 19  0 53  0.0000000  0  6 22 21 29 06 25 30
  22584408.260   -14995666.898 8 -11660682.90946  22584411.654    22584422.3754
  23618541.573    -8134100.820 8  -6328262.02045  23618548.652    23618563.0564
  21739273.075   -16481797.372 8 -12818983.95147  21739278.121    21739287.9534
  24468752.950    -4535900.156 7  -3527741.05945  24468760.826    24468775.2034
  20605272.306   -24294424.576 9 -18918964.29148  20605275.961    20605284.1104
  22558822.009   -10975013.752 8  -8537675.16546  22558824.024    22558834.2404
 00  7 19  0 53 30.0000000  0  6 22 21 29 06 25 30
  22563470.797   -15105694.975 8 -11746418.93946  22563473.910    22563485.3294
  23640735.883    -8017520.692 8  -6237420.56045  23640733.711    23640747.9844
  21750862.606   -16420904.150 8 -12771534.73447  21750865.956    21750875.4264
  24458797.244    -4588244.741 7  -3568528.94645  24458800.903    24458813.4584
  20605037.162   -24295648.323 9 -18919917.86648  20605043.021    20605051.1274
  22573634.369   -10897154.971 8  -8477006.05846  22573639.459    22573650.9644
 00  7 19  0 54  0.0000000  0  6 22 21 29 06 25 30
  22542579.880   -15215477.136 8 -11831963.33746  22542583.071    22542594.0784
  23662933.677    -7900814.272 7  -6146480.71645  23662940.757    23662956.2414
  21762507.611   -16359715.882 8 -12723855.61647  21762509.832    21762519.5474
  24448890.984    -4640292.749 7  -3609085.73745  24448896.336    24448910.6034
  20604857.702   -24296608.224 9 -18920665.84248  20604860.320    20604868.6054
  22588530.467   -10818896.625 8  -8416025.58446  22588532.716    22588542.7664
 00  7 19  0 54 30.0000000  0  6 22 21 29 06 25 30
  22521740.665   -15325010.988 8 -11917314.23546  22521739.253    22521751.6234
  23685166.615    -7783983.971 7  -6055444.33845  23685173.808    23685188.6814
  21774209.055   -16298232.709 8 -12675946.70647  21774210.494    21774219.7684
  24439046.419    -4692041.510 7  -3649409.32245  24439048.862    24439060.8464
  20604725.766   -24297304.602 9 -18921208.47448  20604727.840    20604735.9404
  22603498.804   -10740241.330 8  -8354735.78546  22603499.953    22603509.8344
 00  7 19  0 55  0.0000000  0  6 22 21 29 06 25 30
  22500941.140   -15434294.248 8 -12002469.87146  22500943.087    22500954.5844
  23707419.042    -7667032.622 7  -5964313.67145  23707429.901    23707443.0804
  21785960.660   -16236454.866 8 -12627808.17147  21785965.662    21785974.4794
  24429258.232    -4743488.429 8  -3689497.74545  24429259.025    24429272.5444
  20604641.469   -24297738.530 9 -18921546.60448  20604645.428    20604653.2974
  22618540.024   -10661191.811 8  -8293138.82946  22618542.914    22618553.1724
 00  7 19  0 55 30.0000000  0  6 22 21 29 06 25 30
  22480189.661   -15543324.060 8 -12087428.03446  22480195.391    22480206.3374
  23729711.124    -7549963.974 7  -5873091.53745  23729706.530    23729720.2764
  21797773.913   -16174382.615 8 -12579440.23247  21797777.819    21797786.4554
  24419518.188    -4794630.779 7  -3729348.83845  24419525.424    24419539.9744
  20604610.308   -24297910.224 9 -18921680.39148  20604612.685    20604620.4854
  22633654.084   -10581750.638 8  -8231236.66146  22633659.469    22633669.7384
 00  7 19  0 56  0.0000000  0  6 22 21 29 06 25 30
  22459489.296   -15652097.368 8 -12172186.31146  22459496.061    22459508.0904
  23751999.334    -7432780.472 8  -5781779.88145  23752007.073    23752020.2874
  21809640.817   -16112016.154 8 -12530843.04547  21809645.499    21809654.6864
  24409853.157    -4845466.323 7  -3768960.82945  24409852.937    24409867.1854
  20604626.213   -24297820.639 9 -18921610.57648  20604629.566    20604637.5634
  22648845.886   -10501920.111 8  -8169031.09946  22648850.636    22648861.1994
 00  7 19  0 56 30.0000000  0  6 22 21 29 06 25 30
  22438842.182   -15760611.391 8 -12256742.54546  22438846.454    22438858.0644
  23774325.765    -7315485.060 8  -5690381.04145  23774326.879    23774342.6284
  21821563.760   -16049355.534 8 -12482016.64647  21821569.548    21821579.1564
  24400236.210    -4895992.566 7  -3808331.80545  24400238.749    24400250.2334
  20604691.123   -24297470.045 9 -18921337.38348  20604696.198    20604704.3354
  22664115.381   -10421703.069 8  -8106524.37446  22664115.269    22664126.5944
 00  7 19  0 57  0.0000000  0  6 22 21 29 06 25 30
  22418243.538   -15868863.851 8 -12341094.96146  22418246.607    22418258.2784
  23796665.588    -7198081.042 7  -5598897.59645  23796667.571    23796683.1664
  21833545.868   -15986401.125 8 -12432961.31847  21833549.437    21833558.5634
  24390678.399    -4946206.709 7  -3847459.62145  24390681.877    24390694.8924
  20604809.179   -24296859.150 9 -18920861.36148  20604812.415    20604820.5744
  22679450.363   -10341101.835 8  -8043718.27346  22679453.768    22679463.2704
 00  7 19  0 57 30.0000000  0  6 22 21 29 06 25 30
  22397697.242   -15976852.378 8 -12425241.70946  22397697.956    22397708.8574
  23819034.758    -7080570.904 7  -5507331.50145  23819029.182    23819044.9884
  21845582.280   -15923153.001 8 -12383677.14047  21845585.744    21845594.7214
  24381183.882    -4996106.465 8  -3886342.47545  24381187.420    24381199.4924
  20604973.707   -24295988.990 9 -18920183.30948  20604978.097    20604986.0944
  22694859.822   -10260119.144 8  -7980614.91246  22694864.582    22694874.7794
 00  7 19  0 58  0.0000000  0  6 22 21 29 06 25 30
  22377197.136   -16084574.004 8 -12509180.49546  22377199.173    22377210.1394
  23841402.062    -6962957.407 7  -5415684.86145  23841410.277    23841426.9814
  21857672.864   -15859611.571 8 -12334164.37246  21857677.301    21857686.5344
  24371751.120    -5045689.456 8  -3924978.48045  24371751.259    24371764.3204
  20605191.936   -24294859.935 9 -18919303.51448  20605193.239    20605200.8284
  22710344.083   -10178757.734 8  -7917216.48746  22710347.080    22710357.0874
 00  7 19  0 58 30.0000000  0  6 22 21 29 06 25 30
  22356745.527   -16192025.758 8 -12592908.96446  22356751.126    22356762.1484
  23863811.245    -6845243.679 8  -5323960.09245  23863812.684    23863826.6004
  21869821.885   -15795776.896 8 -12284423.14746  21869824.112    21869833.4814
  24362375.479    -5094953.191 7  -3963365.69745  24362375.967    24362389.3964
  20605452.984   -24293472.506 9 -18918222.39748  20605457.002    20605464.9414
  22725900.463   -10097020.007 8  -7853524.81746  22725901.245    22725911.1454
 00  7 19  0 59  0.0000000  0  6 22 21 29 06 25 30
  22336351.526   -16299204.989 8 -12676425.09046  22336355.591    22336366.7254
  23886231.698    -6727433.157 8  -5232159.87045  23886230.909    23886245.6554
  21882027.043   -15731649.332 8 -12234453.66946  21882027.803    21882036.5744
  24353061.289    -5143895.060 7  -4001502.09745  24353063.027    24353076.3694
  20605764.860   -24291827.448 9 -18916940.52548  20605770.052    20605778.1804
  22741524.966   -10014908.643 8  -7789542.00046  22741526.535    22741537.0104
 00  7 19  0 59 30.0000000  0  6 22 21 29 06 25 30
  22316011.296   -16406109.483 8 -12759727.14346  22316012.196    22316023.7594
  23908661.617    -6609528.264 7  -5140286.11845  23908667.732    23908682.6144
  21894282.424   -15667228.752 8 -12184255.88246  21894286.489    21894294.7864
  24343803.485    -5192512.587 7  -4039385.75445  24343811.202    24343824.6604
  20606129.686   -24289925.506 9 -18915458.47948  20606131.992    20606140.1514
  22757217.761    -9932426.202 8  -7725270.06146  22757221.915    22757232.3924
 00  7 19  1  0  0.0000000  0  6 22 21 29 06 25 30
  22295713.921   -16512736.761 8 -12842813.16246  22295721.536    22295732.1524
  23931118.772    -6491532.173 7  -5048341.31045  23931122.581    23931137.2694
  21906601.182   -15602515.898 8 -12133830.33646  21906601.298    21906610.1864
  24334616.217    -5240803.262 7  -4077014.75145  24334622.186    24334634.8934
  20606539.962   -24287767.242 9 -18913776.70348  20606542.758    20606550.6094
  22772988.995    -9849575.415 8  -7660711.06046  22772988.098    22772997.8604
 00  7 19  1  0 30.0000000  0  6 22 21 29 06 25 30
  22275484.203   -16619083.848 8 -12925680.88246  22275484.891    22275495.6474
  23953591.855    -6373447.639 7  -4956327.65045  23953592.988    23953607.3894
  21918966.016   -15537510.897 8 -12083177.14346  21918971.274    21918979.6904
  24325492.060    -5288764.800 8  -4114387.23445  24325494.823    24325506.9934
  20606999.063   -24285353.099 9 -18911895.54248  20607002.057    20607010.1844
  22788818.613    -9766358.888 8  -7595867.06346  22788823.610    22788834.0174
 00  7 19  1  1  0.0000000  0  6 22 21 29 06 25 30
  22255298.429   -16725147.939 8 -13008328.05046  22255301.070    22255312.3154
  23976079.030    -6255277.305 7  -4864247.11645  23976079.193    23976096.0704
  21931394.352   -15472214.252 8 -12032296.71346  21931397.009    21931405.8884
  24316428.801    -5336394.685 7  -4151501.32845  24316430.652    24316443.7644
  20607507.490   -24282683.747 9 -18909815.51748  20607510.023    20607518.1794
  22804725.157    -9682779.248 8  -7530740.14946  22804728.836    22804738.0614
 00  7 19  1  1 30.0000000  0  6 22 21 29 06 25 30
  22235171.282   -16830926.387 8 -13090752.65046  22235171.752    22235183.0254
  23998570.875    -6137024.837 7  -4772102.57545  23998582.265    23998597.5124
  21943876.731   -15406625.912 8 -11981188.97046  21943878.221    21943887.1054
  24307428.785    -5383690.479 7  -4188355.12445  24307431.739    24307442.7434
  20608063.142   -24279759.810 9 -18907537.11348  20608065.958    20608074.4654
  22820699.725    -9598839.095 8  -7465332.28346  22820702.023    22820711.7634
 00  7 19  1  2  0.0000000  0  6 22 21 29 06 25 30
  22215096.880   -16936416.955 8 -13172952.94146  22215097.586    22215108.7874
  24021097.783    -6018692.780 7  -4679896.01445  24021099.824    24021116.2084
  21956409.893   -15340746.192 8 -11929854.19846  21956414.581    21956423.1694
  24298495.674    -5430649.791 7  -4224946.67545  24298494.779    24298507.8864
  20608666.515   -24276581.898 9 -18905060.80148  20608670.676    20608679.1284
  22836742.481    -9514541.154 8  -7399645.64346  22836742.845    22836753.1724
 00  7 19  1  2 30.0000000  0  6 22 21 29 06 25 30
  22195078.920   -17041617.111 8 -13254926.93646  22195079.029    22195089.7634
  24043622.013    -5900283.628 7  -4587629.38945  24043632.105    24043647.9654
  21969003.854   -15274575.657 8 -11878292.80246  21969006.105    21969015.4184
  24289619.886    -5477270.138 7  -4261274.11245  24289623.644    24289637.8434
  20609320.508   -24273150.932 9 -18902387.31148  20609323.741    20609332.0164
  22852849.249    -9429887.989 8  -7333682.21946  22852852.317    22852862.7614
 00  7 19  1  3  0.0000000  0  6 22 21 29 06 25 30
  22175112.296   -17146523.908 8 -13336672.35046  22175115.532    22175126.4944
  24066170.999    -5781800.541 7  -4495305.12745  24066179.314    24066195.4954
  21981652.152   -15208114.284 8 -11826504.78946  21981653.507    21981663.0014
  24280808.561    -5523549.096 7  -4297335.51945  24280816.243    24280830.7734
  20610022.771   -24269467.425 9 -18899517.03648  20610025.104    20610033.0554
  22869026.109    -9344882.193 8  -7267443.98646  22869028.354    22869038.8854
 00  7 19  1  3 30.0000000  0  6 22 21 29 06 25 30
  22155209.270   -17251134.527 8 -13418186.96246  22155208.393    22155218.7684
  24088747.284    -5663246.412 7  -4402925.55945  24088741.639    24088756.2394
  21994354.032   -15141362.701 8 -11774490.64446  21994355.858    21994365.6054
  24272069.014    -5569484.384 7  -4333129.13945  24272075.532    24272088.1024
  20610769.462   -24265531.827 9 -18896450.31948  20610773.673    20610782.1434
  22885259.202    -9259526.398 8  -7200933.05346  22885271.220    22885281.4144
 00  7 19  1  4  0.0000000  0  6 22 21 29 06 25 30
  22135356.237   -17355446.559 8 -13499468.92046  22135358.634    22135369.3424
  24111308.934    -5544624.196 7  -4310492.91145  24111310.877    24111329.1544
  22007108.230   -15074321.013 8 -11722250.42746  22007113.045    22007122.8734
  24263391.651    -5615073.574 7  -4368653.05445  24263398.866    24263412.8114
  20611568.068   -24261344.659 9 -18893187.58248  20611570.825    20611578.9214
  22901578.786    -9173823.021 8  -7134151.27846  22901580.574    22901589.9954
 00  7 19  1  4 30.0000000  0  6 22 21 29 06 25 30
  22115559.047   -17459457.827 8 -13580516.50246  22115565.223    22115575.9244
  24133885.310    -5425936.532 7  -4218009.29345  24133897.795    24133914.8534
  22019922.081   -15006989.730 8 -11669784.55346  22019926.379    22019935.9974
  24254786.450    -5660314.475 8  -4403905.58845  24254791.001    24254804.0764
  20612411.709   -24256906.722 9 -18889729.43848  20612415.355    20612423.2734
  22917951.291    -9087775.167 8  -7067101.03746  22917954.563    22917964.5654
 00  7 19  1  5  0.0000000  0  6 22 21 29 06 25 30
  22095830.487   -17563165.592 8 -13661327.59946  22095830.390    22095841.3064
  24156477.004    -5307186.626 7  -4125477.19345  24156496.003    24156513.1674
  22032792.380   -14939369.099 8 -11617093.21446  22032794.308    22032803.8334
  24246247.907    -5705204.588 8  -4438884.78145  24246248.171    24246262.0654
  20613305.145   -24252218.469 9 -18886076.24548  20613307.412    20613315.1674
  22934386.931    -9001385.365 8  -6999784.38646  22934393.366    22934403.8224
 00  7 19  1  5 30.0000000  0  6 22 21 29 06 25 30
  22076151.892   -17666567.003 8 -13741899.97846  22076154.307    22076164.2064
  24179116.554    -5188377.287 7  -4032898.75445  24179105.432    24179122.0704
  22045713.609   -14871459.681 8 -11564176.84946  22045716.520    22045726.6784
  24237771.155    -5749741.486 7  -4473588.76745  24237773.367    24237786.2184
  20614242.912   -24247280.995 9 -18882228.85048  20614246.734    20614255.0184
  22950890.886    -8914656.323 8  -6932203.38946  22950897.393    22950907.2024
 00  7 19  1  6  0.0000000  0  6 22 21 29 06 25 30
  22056531.117   -17769659.313 8 -13822231.52346  22056535.640    22056546.2724
  24201732.325    -5069511.627 7  -3940276.46845  24201724.249    24201740.9254
  22058687.884   -14803261.509 8 -11511035.48746  22058693.818    22058704.2114
  24229363.673    -5793922.904 7  -4508015.72645  24229365.530    24229379.1994
  20615229.591   -24242094.484 9 -18878187.40148  20615233.891    20615241.9174
  22967462.709    -8827590.685 8  -6864360.09046  22967465.862    22967475.8024
 00  7 19  1  6 30.0000000  0  6 22 21 29 06 25 30
  22036978.186   -17872440.117 8 -13902320.32446  22036977.020    22036987.4244
  24224354.906    -4950592.092 7  -3847612.18345  24224354.851    24224371.0154
  22071723.783   -14734775.164 8 -11457669.57746  22071726.744    22071736.8924
  24221026.087    -5837746.520 7  -4542163.89045  24221025.024    24221039.3754
  20616264.728   -24236659.872 9 -18873952.62348  20616267.770    20616275.8584
  22984090.194    -8740191.110 8  -6796256.57846  22984097.321    22984107.4724
 00  7 19  1  7  0.0000000  0  6 22 21 29 06 25 30
  22017473.869   -17974907.307 8 -13982164.75546  22017477.119    22017488.2314
  24246988.641    -4831621.656 7  -3754908.17845  24246994.204    24247010.6194
  22084808.710   -14666000.851 8 -11404079.26946  22084814.706    22084824.2934
  24212749.129    -5881210.131 8  -4576031.50245  24212755.215    24212768.3144
  20617344.689   -24230977.392 9 -18869524.70548  20617349.120    20617357.1494
  23000790.322    -8652460.023 8  -6727894.77046  23000791.411    23000801.6854
 00  7 19  1  7 30.0000000  0  5 22 29 06 25 30
  21998035.801   -18077058.206 8 -14061762.73346  21998038.911    21998049.8734
  22097955.625   -14596939.173 8 -11350265.03146  22097957.322    22097966.3224
  24204554.726    -5924311.315 8  -4609616.74345  24204554.271    24204565.6594
  20618474.899   -24225048.070 9 -18864904.44148  20618477.505    20618485.4284
  23017541.027    -8564400.303 8  -6659276.89546  23017549.578    23017559.1504
 00  7 19  1  8  0.0000000  0  5 22 29 06 25 30
  21978658.126   -18178889.736 8 -14141111.83246  21978660.742    21978671.6704
  22111146.771   -14527590.498 8 -11296227.16946  22111153.673    22111162.7234
  24196424.923    -5967047.837 8  -4642917.82945  24196422.388    24196433.7574
  20619649.311   -24218872.016 9 -18860091.92848  20619652.838    20619660.6064
  23034370.074    -8476014.580 8  -6590404.97846  23034368.567    23034379.1724
 00  7 19  1  8 30.0000000  0  5 22 29 06 25 30
  21959341.872   -18280399.299 8 -14220210.07547  21959344.995    21959355.0964
  22124403.254   -14457955.237 8 -11241965.98246  22124404.889    22124413.8954
  24188351.131    -6009417.513 7  -4675933.03745  24188357.471    24188370.0374
  20620872.821   -24212449.813 9 -18855087.60748  20620874.815    20620882.7404
  23051242.678    -8387305.350 8  -6521280.96946  23051249.684    23051260.2554
 00  7 19  1  9  0.0000000  0  5 22 29 06 25 30
  21940084.333   -18381584.788 8 -14299055.78646  21940089.178    21940100.0574
  22137707.897   -14388033.686 8 -11187481.71246  22137709.945    22137719.8564
  24180359.731    -6051417.973 7  -4708660.57345  24180364.141    24180377.5984
  20622140.670   -24205782.350 9 -18849892.17048  20622143.524    20622151.5144
  23068191.902    -8298275.344 8  -6451906.98346  23068191.700    23068201.7654
 00  7 19  1  9 30.0000000  0  5 22 29 06 25 30
  21920892.896   -18482443.848 8 -14377647.12947  21920896.124    21920907.3694
  22151067.568   -14317826.329 8 -11132774.77046  22151069.501    22151079.7494
  24172443.608    -6093046.947 8  -4741098.63845  24172444.266    24172455.2614
  20623454.687   -24198870.607 9 -18844506.39248  20623458.796    20623466.7864
  23085185.754    -8208927.243 8  -6382285.12546  23085192.961    23085204.3444
 00  7 19  1 10  0.0000000  0  5 22 29 06 25 30
  21901765.552   -18582973.826 8 -14455982.04747  21901765.680    21901777.2034
  22164482.452   -14247333.603 8 -11077845.42346  22164485.091    22164494.3214
  24164587.462    -6134302.448 8  -4773245.68145  24164593.405    24164605.4594
  20624815.324   -24191714.946 9 -18838930.53848  20624820.230    20624828.4254
  23102254.662    -8119263.770 8  -6312417.57746  23102255.724    23102267.0604
 00  7 19  1 10 30.0000000  0  5 22 29 06 25 30
  21882695.543   -18683171.782 8 -14534058.25347  21882698.696    21882709.0684
  22177948.968   -14176555.999 8 -11022694.10746  22177953.489    22177963.0584
  24156810.022    -6175182.169 8  -4805099.90745  24156814.580    24156826.0304
  20626225.183   -24184315.527 9 -18833164.74748  20626228.441    20626236.6564
  23119377.392    -8029287.790 8  -6242306.47346  23119378.453    23119388.5214
 00  7 19  1 11  0.0000000  0  5 22 29 06 25 30
  21863696.251   -18783035.227 8 -14611873.82947  21863696.211    21863706.3114
  22191470.746   -14105494.026 8 -10967321.21446  22191475.611    22191485.7844
  24149102.023    -6215684.022 7  -4836659.69545  24149105.466    24149118.2184
  20627679.088   -24176673.107 9 -18827209.61348  20627682.779    20627690.9044
  23136547.181    -7939001.895 8  -6171953.90846  23136558.905    23136569.4884
 00  7 19  1 11 30.0000000  0  5 22 29 06 25 30
  21844750.647   -18882561.905 8 -14689426.98247  21844756.400    21844766.7374
  22205048.097   -14034147.968 8 -10911726.94746  22205052.500    22205061.7304
  24141468.323    -6255805.692 7  -4867923.24645  24141471.368    24141483.9774
  20629181.122   -24168788.541 9 -18821065.78648  20629183.447    20629191.4484
  23153792.815    -7848408.690 8  -6101361.86446  23153799.018    23153808.0264
 00  7 19  1 12  0.0000000  0  5 22 29 06 25 30
  21825880.839   -18981749.723 8 -14766716.06247  21825880.720    21825892.5094
  22218677.715   -13962518.341 8 -10855911.73446  22218682.615    22218692.6114
  24133900.162    -6295544.800 7  -4898888.68045  24133908.887    24133921.8214
  20630725.948   -24160662.196 9 -18814733.56848  20630730.055    20630737.7804
  23171096.188    -7757510.762 8  -6030532.35546  23171095.671    23171106.5324
 00  7 19  1 12 30.0000000  0  5 22 29 06 25 30
  21807065.814   -19080595.782 8 -14843738.84047  21807071.194    21807082.5784
  22232370.280   -13890605.884 8 -10799876.12046  22232368.954    22232376.4544
  24126420.611    -6334899.279 7  -4929554.39045  24126419.856    24126432.8554
  20632317.984   -24152294.688 9 -18808213.42648  20632322.181    20632329.9774
  23188441.622    -7666310.802 8  -5959467.49346  23188450.080    23188461.0174
 00  7 19  1 13  0.0000000  0  5 22 29 06 25 30
  21788325.910   -19179097.356 8 -14920493.19947  21788327.455    21788337.4324
  22246104.299   -13818410.949 8 -10743620.38646  22246106.664    22246115.7464
  24119001.760    -6373867.056 8  -4959918.79445  24119005.255    24119016.8834
  20633957.627   -24143686.909 9 -18801506.06048  20633960.322    20633967.7654
  23205862.817    -7574811.452 8  -5888169.39546  23205862.001    23205872.9194
 00  7 19  1 13 30.0000000  0  5 22 29 06 25 30
  21769648.215   -19277252.028 8 -14996977.26147  21769648.719    21769659.3734
  22259892.461   -13745933.771 8 -10687144.72046  22259898.801    22259908.0224
  24111660.118    -6412445.964 8  -4989980.19545  24111663.382    24111676.5894
  20635641.021   -24134839.104 9 -18794611.66148  20635644.129    20635651.5654
  23223327.234    -7483015.412 8  -5816640.05046  23223330.244    23223341.0854
 00  7 19  1 14  0.0000000  0  5 22 29 06 25 30
  21751034.382   -19375057.566 8 -15073189.25747  21751036.744    21751047.5094
  22273744.159   -13673175.107 8 -10630449.74246  22273744.220    22273754.0334
  24104393.819    -6450633.788 7  -5019736.85445  24104397.272    24104408.9734
  20637369.736   -24125751.909 9 -18787530.73148  20637373.368    20637380.8634
  23240847.917    -7390925.377 8  -5744881.64846  23240853.923    23240865.6934
 00  7 19  1 14 30.0000000  0  5 22 29 06 25 30
  21732489.914   -19472511.859 8 -15149127.54747  21732491.891    21732502.1954
  22287638.376   -13600135.259 8 -10573535.66446  22287642.140    22287653.1084
  24097198.167    -6488428.671 8  -5049187.32545  24097203.456    24097216.0514
  20639144.325   -24116425.806 9 -18780263.63048  20639147.815    20639155.6014
  23258427.997    -7298543.838 8  -5672896.08346  23258435.110    23258445.5434
 00  7 19  1 15  0.0000000  0  6 22 29 06 25 16 30
  21714012.426   -19569611.986 8 -15224789.88647  21714014.402    21714024.6374
  22301591.191   -13526815.042 8 -10516403.12046  22301594.667    22301605.2054
  24090079.774    -6525828.365 7  -5078329.85045  24090086.820    24090098.9034
  20640963.677   -24106861.587 9 -18772810.99148  20640968.058    20640975.6064
  24622580.723    -1865696.60317  -1434967.49855  24622578.645    24622591.5944
  23276064.967    -7205873.709 8  -5600685.65346  23276068.922    23276079.7784
 00  7 19  1 15 30.0000000  0  6 22 29 06 25 16 30
  21695599.762   -19666355.269 8 -15300174.15247  21695604.160    21695614.5754
  22315597.792   -13453214.831 8 -10459052.39346  22315600.352    22315610.5274
  24083036.831    -6562830.736 8  -5107162.80045  24083045.109    24083057.7474
  20642831.138   -24097059.780 9 -18765173.22948  20642833.306    20642840.9114
  24605118.558    -1957394.680 7  -1506420.41945  24605127.950    24605143.0644
  23293758.879    -7112917.938 8  -5528252.67946  23293757.801    23293768.7174
 00  7 19  1 16  0.0000000  0  6 22 29 06 25 16 30
  21677264.470   -19762739.437 8 -15375278.59047  21677263.045    21677273.2664
  22329652.613   -13379335.329 8 -10401484.01546  22329659.107    22329669.8524
  24076081.079    -6599433.717 8  -5135684.55045  24076081.095    24076092.4304
  20644741.738   -24087021.233 9 -18757350.98548  20644743.549    20644751.3024
  24587734.854    -2048794.539 7  -1577640.88645  24587735.790    24587751.1804
  23311495.798    -7019678.813 8  -5455598.90546  23311501.281    23311512.1954
 00  7 19  1 16 30.0000000  0  6 22 29 06 25 16 30
  21658988.972   -19858762.451 9 -15450101.62247  21658990.882    21659000.4654
  22343768.599   -13305176.819 8 -10343698.26146  22343771.496    22343781.8594
  24069187.746    -6635635.341 8  -5163893.50345  24069191.786    24069203.4104
  20646696.735   -24076745.977 9 -18749344.29548  20646698.911    20646706.4194
  24570400.517    -2139893.539 7  -1648626.99445  24570400.960    24570412.5604
  23329294.330    -6926159.055 8  -5382726.42346  23329297.975    23329309.1484
 00  7 19  1 17  0.0000000  0  6 22 29 06 25 16 30
  21640779.128   -19954421.911 8 -15524641.36547  21640787.159    21640797.5424
  22357933.950   -13230740.012 8 -10285695.63246  22357936.214    22357946.9284
  24062380.128    -6671433.544 8  -5191788.15145  24062379.252    24062391.6034
  20648695.361   -24066234.878 9 -18741153.83248  20648698.867    20648706.5304
  24553117.207    -2230689.432 7  -1719376.93145  24553121.815    24553133.7594
  23347137.825    -6832361.287 8  -5309637.30346  23347146.703    23347157.8174
 00  7 19  1 17 30.0000000  0  6 22 29 06 25 16 30
  21622649.601   -20049715.067 8 -15598895.67747  21622652.941    21622663.6304
  22372148.453   -13156025.508 8 -10227476.63346  22372154.295    22372164.5134
  24055638.119    -6706826.373 7  -5219366.91245  24055643.294    24055655.9234
  20650739.844   -24055488.933 9 -18732780.37848  20650743.742    20650751.5174
  24535888.716    -2321179.007 7  -1789888.10045  24535901.367    24535915.9734
  23365053.481    -6738288.111 8  -5236333.57346  23365048.852    23365059.0034
 00  7 19  1 18  0.0000000  0  6 22 29 06 25 16 30
  21604587.959   -20144639.337 8 -15672862.53547  21604589.528    21604600.2624
  22386421.177   -13081033.930 8 -10169041.73346  22386425.560    22386434.9994
  24048982.751    -6741811.763 7  -5246628.16745  24048985.608    24048998.4954
  20652830.835   -24044508.222 9 -18724223.98648  20652833.185    20652841.1614
  24518737.764    -2411359.868 7  -1860158.76945  24518740.653    24518755.8424
  23383001.237    -6643942.367 8  -5162817.47046  23383002.631    23383012.3634
 00  7 19  1 18 30.0000000  0  6 22 29 06 25 16 30
  21586594.163   -20239192.474 8 -15746540.20547  21586596.747    21586607.0944
  22400746.059   -13005765.694 8 -10110391.22346  22400748.399    22400757.6794
  24042404.624    -6776387.681 8  -5273570.37445  24042407.594    24042417.9894
  20654964.903   -24033292.888 9 -18715484.77448  20654967.564    20654975.2164
  24501630.139    -2501229.413 7  -1930186.83245  24501638.931    24501654.2954
  23401000.477    -6549326.908 8  -5089091.19046  23401007.481    23401017.3214
 00  7 19  1 19  0.0000000  0  6 22 29 06 25 16 30
  21568672.200   -20333372.517 8 -15819927.15247  21568674.923    21568685.2524
  22415118.244   -12930221.466 8 -10051525.68746  22415123.657    22415133.7944
  24035900.997    -6810552.154 8  -5300191.98145  24035907.205    24035917.0104
  20657142.582   -24021843.605 9 -18706563.25848  20657146.382    20657153.9814
  24484598.228    -2590784.810 7  -1999970.09445  24484598.319    24484611.7754
  23419058.283    -6454443.811 8  -5015156.35146  23419062.271    23419072.8234
 00  7 19  1 19 30.0000000  0  6 22 29 06 25 16 30
  21550823.944   -20427177.041 8 -15893021.49247  21550824.423    21550834.3704
  22429543.982   -12854401.827 8  -9992445.53546  22429551.160    22429561.5254
  24029479.944    -6844303.258 8  -5326491.47845  24029483.964    24029494.9694
  20659366.356   -24010161.160 9 -18697460.05648  20659369.448    20659377.1534
  24467614.585    -2680023.491 7  -2069506.55645  24467616.424    24467628.8394
  23437161.851    -6359296.386 8  -4941015.57746  23437168.434    23437179.8854
 00  7 19  1 20  0.0000000  0  6 22 29 06 25 16 30
  21533044.331   -20520603.199 9 -15965821.01947  21533046.149    21533055.8944
  22444026.456   -12778307.574 8  -9933151.39246  22444031.947    22444042.2854
  24023141.682    -6877639.052 8  -5352467.34245  24023140.561    24023151.1364
  20661633.413   -23998246.354 9 -18688175.79148  20661636.333    20661644.4494
  24450698.859    -2768942.774 7  -2138794.14345  24450695.986    24450709.7004
  23455316.014    -6263887.020 8  -4866670.74946  23455324.136    23455335.4114
 00  7 19  1 20 30.0000000  0  6 22 29 06 25 16 30
  21515338.150   -20613648.665 9 -16038323.88647  21515340.124    21515350.1104
  22458558.397   -12701939.077 8  -9873643.57646  22458563.805    22458574.4754
  24016878.069    -6910557.467 8  -5378118.00445  24016875.064    24016887.7174
  20663944.975   -23986099.855 9 -18678710.99748  20663948.096    20663955.6614
  24433838.573    -2857540.175 7  -2207830.92845  24433835.153    24433849.8774
  23473523.668    -6168218.460 8  -4792123.91045  23473529.209    23473539.9354
 00  7 19  1 21  0.0000000  0  6 22 29 06 25 16 30
  21497705.650   -20706311.221 9 -16110528.38647  21497707.046    21497716.7534
  22473148.153   -12625297.114 8  -9813922.65546  22473149.078    22473159.8534
  24010683.202    -6943056.619 8  -5403441.93245  24010689.849    24010701.5794
  20666298.930   -23973721.785 9 -18669065.75348  20666303.538    20666311.0744
  24417022.894    -2945812.507 7  -2276614.40745  24417036.128    24417050.2784
  23491773.652    -6072293.107 8  -4717376.93945  23491783.006    23491794.2454
 00  7 19  1 21 30.0000000  0  6 22 29 06 25 16 30
  21480142.608   -20798588.973 8 -16182433.03247  21480146.847    21480157.1184
  22487783.172   -12548382.239 8  -9753989.08446  22487786.259    22487796.0894
  24004585.086    -6975134.586 8  -5428437.69545  24004587.284    24004598.2224
  20668699.040   -23961112.578 9 -18659240.40348  20668703.072    20668710.7554
  24400301.811    -3033757.896 7  -2345143.17745  24400301.383    24400314.8834
  23510092.024    -5976113.702 8  -4642432.02845  23510086.313    23510096.5674
 00  7 19  1 22  0.0000000  0  6 22 29 06 25 16 30
  21462659.139   -20890479.488 8 -16254035.93447  21462660.406    21462670.4484
  22502468.548   -12471195.167 8  -9693843.40446  22502474.233    22502484.8374
  23998563.033    -7006789.555 8  -5453103.85445  23998563.859    23998573.8914
  20671141.469   -23948272.990 9 -18649235.54048  20671146.197    20671154.3494
  24383636.509    -3121373.055 7  -2413414.54145  24383629.083    24383643.1374
  23528432.258    -5879682.910 8  -4567291.26246  23528436.794    23528447.2724
 00  7 19  1 22 30.0000000  0  6 22 29 06 25 16 30
  21445242.914   -20981980.005 8 -16325334.94347  21445248.061    21445258.6444
  22517210.588   -12393736.513 8  -9633486.08646  22517213.772    22517224.2984
  23992613.004    -7038019.687 8  -5477438.95645  23992620.626    23992632.6894
  20673630.231   -23935203.539 9 -18639051.55648  20673633.359    20673641.3294
  24367020.889    -3208655.757 7  -2481426.90845  24367018.650    24367033.2814
  23546833.312    -5783003.280 8  -4491956.56945  23546834.075    23546844.8414
 00  7 19  1 23  0.0000000  0  6 22 29 06 25 16 30
  21427909.302   -21073088.125 9 -16396328.20247  21427911.301    21427920.9034
  22532003.076   -12316007.034 8  -9572917.75146  22532005.536    22532015.1614
  23986749.426    -7068823.022 8  -5501441.47145  23986758.440    23986770.0914
  20676162.275   -23921904.938 9 -18628689.01748  20676164.309    20676171.9164
  24350469.154    -3295603.088 7  -2549177.93345  24350473.100    24350486.8814
  23565277.818    -5686077.646 8  -4416430.19045  23565278.284    23565289.2074
 00  7 19  1 23 30.0000000  0  7 22 29 06 25 16 01 30
  21410646.558   -21163801.979 9 -16467014.23947  21410648.684    21410658.3064
  22546844.616   -12238007.255 8  -9512138.79146  22546847.904    22546857.9734
  23980973.353    -7099197.940 8  -5525110.16445  23980978.673    23980989.5444
  20678734.569   -23908377.595 9 -18618148.23648  20678738.509    20678746.1744
  24333990.605    -3382212.803 7  -2616665.88145  24333991.595    24334006.4934
  24773183.445    -1005553.38517   -545388.77455  24773189.846    24773203.9454
  23583768.332    -5588908.564 8  -4340714.11846  23583768.575    23583780.3084
 00  7 19  1 24  0.0000000  0  7 22 29 06 25 16 01 30
  21393458.477   -21254119.457 8 -16537391.42547  21393461.784    21393471.6164
  22561736.863   -12159737.999 8  -9451149.86546  22561742.974    22561752.9164
  23975276.209    -7129142.401 8  -5548443.44245  23975279.918    23975290.5754
  20681353.203   -23894621.782 9 -18607429.42448  20681356.115    20681363.9024
  24317570.273    -3468482.021 7  -2683888.53245  24317576.231    24317589.9294
  24755147.294    -1100340.965 7   -619249.07945  24755153.079    24755165.9024
  23602302.298    -5491498.821 8  -4264810.54845  23602305.562    23602316.3374
 00  7 19  1 24 30.0000000  0  7 22 29 06 25 16 01 30
  21376343.009   -21344038.207 8 -16607457.90247  21376350.423    21376360.5314
  22576682.999   -12081200.046 8  -9389951.56246  22576688.196    22576698.1054
  23969658.961    -7158654.715 8  -5571439.99045  23969663.308    23969675.6554
  20684015.064   -23880638.641 9 -18596533.47148  20684017.307    20684024.8594
  24301228.533    -3554408.090 7  -2750843.80245  24301224.962    24301237.4934
  24737105.254    -1195151.928 7   -693127.56745  24737108.818    24737123.5824
  23620883.889    -5393851.050 8  -4188721.50145  23620887.325    23620898.1844
 00  7 19  1 25  0.0000000  0  7 22 29 06 25 16 01 30
  21359313.438   -21433555.609 9 -16677211.63947  21359315.905    21359326.2554
  22591678.021   -12002393.898 8  -9328544.26246  22591684.061    22591694.8924
  23964128.237    -7187733.048 8  -5594098.37145  23964131.427    23964141.6944
  20686716.143   -23866428.184 9 -18585460.38948  20686721.198    20686728.9424
  24284937.865    -3639988.357 7  -2817529.61245  24284940.182    24284951.9174
  24719062.061    -1289984.990 7   -767023.30445  24719063.205    24719076.4794
  23639510.291    -5295967.842 8  -4112449.00145  23639514.146    23639524.6504
 00  7 19  1 25 30.0000000  0  7 22 29 06 25 16 01 30
  21342357.476   -21522669.360 9 -16746650.84047  21342358.573    21342368.6114
  22606729.593   -11923320.215 8  -9266928.50446  22606732.238    22606741.9024
  23958671.190    -7216375.667 8  -5616417.22045  23958679.740    23958691.1604
  20689465.779   -23851991.186 9 -18574210.77348  20689468.246    20689476.1474
  24268719.509    -3725220.258 7  -2883943.95945  24268720.168    24268734.3984
  24701017.012    -1384839.176 7   -840935.47745  24701014.659    24701027.5554
  23658185.414    -5197851.838 8  -4035995.07645  23658184.418    23658195.5844
 00  7 19  1 26  0.0000000  0  7 22 29 06 25 16 01 30
  21325475.226   -21611377.549 9 -16815774.02347  21325477.904    21325487.2854
  22621826.810   -11843979.991 8  -9205105.02946  22621830.229    22621839.9664
  23953314.719    -7244580.848 8  -5638395.21245  23953312.071    23953322.9854
  20692253.971   -23837327.808 9 -18562784.76548  20692258.573    20692266.2504
  24252563.623    -3810101.354 7  -2950084.93445  24252568.118    24252581.1624
  24682962.098    -1479713.284 7   -914863.16945  24682960.313    24682973.2904
  23676885.793    -5099505.598 8  -3959361.79145  23676899.306    23676910.7674
 00  7 19  1 26 30.0000000  0  7 22 29 06 25 16 01 30
  21308672.502   -21699678.109 9 -16884579.56847  21308674.820    21308684.7674
  22636972.830   -11764373.870 8  -9143074.38846  22636978.037    22636988.4604
  23948022.821    -7272346.867 8  -5660030.97845  23948029.556    23948040.1144
  20695088.632   -23822438.646 9 -18551182.81748  20695091.889    20695099.5424
  24236482.085    -3894628.811 8  -3015950.35945  24236484.376    24236495.4974
  24664899.922    -1574606.115 7   -988805.50245  24664903.807    24664915.4924
  23695649.296    -5000931.674 8  -3882551.05645  23695657.944    23695669.3714
 00  7 19  1 27  0.0000000  0  7 22 29 06 25 16 01 30
  21291946.255   -21787568.666 9 -16953065.63847  21291949.404    21291959.1494
  22652170.369   -11684502.436 8  -9080837.00146  22652177.861    22652187.8034
  23942825.975    -7299671.805 8  -5681323.05545  23942828.185    23942839.8094
  20697964.637   -23807324.343 9 -18539405.43748  20697968.016    20697975.7554
  24220463.677    -3978800.077 7  -3081538.24845  24220464.622    24220479.0544
  24646842.020    -1669516.338 7  -1062761.36745  24646841.966    24646855.3294
  23714453.140    -4902132.873 8  -3805565.09845  23714458.159    23714469.2384
 00  7 19  1 27 30.0000000  0  7 22 29 06 25 16 01 30
  21275302.063   -21875046.731 9 -17021230.28247  21275302.839    21275312.5554
  22667426.327   -11604366.559 8  -9018393.55946  22667427.324    22667436.8804
  23937708.529    -7326554.145 8  -5702270.28045  23937713.447    23937723.2614
  20700882.187   -23791985.683 9 -18527453.23148  20700886.577    20700894.6234
  24204518.959    -4062612.780 8  -3146846.71445  24204516.797    24204529.2644
  24628775.236    -1764442.832 7  -1136729.89545  24628777.495    24628791.2884
  23733306.290    -4803111.719 8  -3728405.87645  23733301.305    23733312.8244
 00  7 19  1 28  0.0000000  0  7 22 29 06 25 16 01 30
  21258734.461   -21962110.098 9 -17089071.78447  21258735.694    21258745.3424
  22682723.759   -11523966.907 8  -8955744.55946  22682726.084    22682737.4944
  23932679.761    -7352992.037 8  -5722871.17045  23932682.810    23932693.6894
  20703845.365   -23776422.859 9 -18515326.35048  20703847.987    20703856.1794
  24188628.497    -4146064.173 8  -3211873.64245  24188636.994    24188649.5024
  24610705.323    -1859384.280 7  -1210710.05545  24610710.225    24610722.6144
  23752183.380    -4703870.856 8  -3651075.46045  23752186.326    23752198.0984
 00  7 19  1 28 30.0000000  0  7 22 29 06 25 16 01 30
  21242242.723   -22048757.044 9 -17156588.80447  21242246.729    21242256.5184
  22698072.980   -11443304.264 8  -8892890.66046  22698075.873    22698086.5704
  23927729.354    -7378983.889 8  -5743124.50545  23927736.238    23927747.9264
  20706849.896   -23760636.207 9 -18503025.04748  20706852.047    20706860.1704
  24172829.293    -4229151.634 8  -3276616.99845  24172825.342    24172837.9924
  24592640.696    -1954339.362 7  -1284700.86745  24592639.643    24592654.9854
  23771109.450    -4604412.773 8  -3573575.78945  23771112.978    23771124.9854
 00  7 19  1 29  0.0000000  0  7 22 29 06 25 16 01 30
  21225837.049   -22134985.488 9 -17223779.72947  21225838.067    21225847.8994
  22713474.959   -11362379.381 8  -8829832.41146  22713475.890    22713486.1994
  23922873.858    -7404527.857 8  -5763028.82945  23922875.674    23922887.3014
  20709896.852   -23744626.793 9 -18490550.17548  20709898.586    20709906.5114
  24157082.249    -4311872.806 8  -3341074.86645  24157083.453    24157095.8434
  24574570.583    -2049306.947 7  -1358701.40445  24574569.687    24574582.0724
  23790073.371    -4504740.461 8  -3495909.16445  23790079.636    23790092.7584
 00  7 19  1 29 30.0000000  0  7 22 29 06 25 16 01 30
  21209506.808   -22220792.926 9 -17290642.57347  21209509.233    21209519.6854
  22728923.042   -11281193.118 8  -8766570.48146  22728925.216    22728935.3974
  23918097.173    -7429622.569 8  -5782583.09345  23918100.036    23918111.8074
  20712983.365   -23728395.042 9 -18477902.05048  20712987.051    20712995.4964
  24141408.494    -4394224.823 7  -3405245.17145  24141412.049    24141426.3584
  24556493.633    -2144285.925 7  -1432710.87345  24556494.731    24556506.8364
  23809079.115    -4404856.206 8  -3418077.40345  23809087.772    23809099.1914
 00  7 19  1 30  0.0000000  0  7 22 29 06 25 16 01 30
  21193255.216   -22306176.959 9 -17357175.50847  21193261.540    21193270.8174
  22744419.308   -11199746.252 8  -8703105.49246  22744424.104    22744433.6364
  23913407.710    -7454266.400 8  -5801786.02045  23913410.543    23913422.5814
  20716115.653   -23711940.935 9 -18465080.66648  20716118.356    20716126.7144
  24125805.881    -4476205.277 7  -3469125.90145  24125811.497    24125824.6814
  24538419.954    -2239274.743 8  -1506728.02745  24538420.156    24538431.5524
  23828131.851    -4304762.242 8  -3340082.21045  23828135.488    23828146.9064
 00  7 19  1 30 30.0000000  0  7 22 29 06 25 16 01 30
  21177090.517   -22391135.618 9 -17423376.97947  21177093.927    21177103.4984
  22759973.579   -11118039.495 8  -8639437.96646  22759972.754    22759982.2364
  23908802.995    -7478457.755 8  -5820636.36645  23908806.180    23908817.5414
  20719287.231   -23695265.271 9 -18452086.63848  20719291.646    20719299.8414
  24110286.196    -4557811.849 7  -3532715.28345  24110282.668    24110295.7284
  24520338.024    -2334272.201 7  -1580751.89245  24520340.272    24520354.9114
  23847222.576    -4204461.510 8  -3261925.91345  23847221.131    23847233.5974
 00  7 19  1 31  0.0000000  0  7 22 29 06 25 16 01 30
  21161006.018   -22475667.188 9 -17489245.66847  21161008.452    21161017.6484
  22775563.456   -11036073.895 8  -8575568.76546  22775570.004    22775580.6214
  23904287.747    -7502194.894 8  -5839132.77145  23904289.911    23904300.9714
  20722503.829   -23678368.479 9 -18438920.30648  20722507.063    20722515.2884
  24094827.319    -4639041.771 7  -3596011.14745  24094824.267    24094836.9854
  24502251.169    -2429277.158 7  -1654781.61045  24502263.072    24502275.9794
  23866342.772    -4103956.778 8  -3183610.67845  23866346.196    23866359.0104
 00  7 19  1 31 30.0000000  0  7 22 29 06 25 16 01 30
  21145000.980   -22559769.625 9 -17554779.95947  21145004.421    21145013.5544
  22791209.759   -10953849.942 8  -8511498.26446  22791216.742    22791227.4794
  23899856.571    -7525476.329 8  -5857274.13845  23899859.714    23899870.1384
  20725761.817   -23661251.122 9 -18425582.10848  20725764.699    20725772.7114
  24079431.088    -4719892.372 7  -3659011.45945  24079439.472    24079453.3744
  24484181.107    -2524288.270 8  -1728816.12145  24484184.043    24484195.0004
  23885514.426    -4003250.385 8  -3105138.29545  23885511.137    23885522.4054
 00  7 19  1 32  0.0000000  0  7 22 29 06 25 16 01 30
  21129080.735   -22643440.409 9 -17619977.90747  21129082.241    21129091.7684
  22806911.534   -10871368.700 8  -8447227.28246  22806913.092    22806923.5444
  23895514.714    -7548300.608 8  -5875059.24845  23895515.747    23895527.1894
  20729061.164   -23643913.543 9 -18412072.30448  20729063.855    20729071.8794
  24064123.908    -4800361.349 8  -3721714.39945  24064127.033    24064139.1694
  24466096.808    -2619304.238 7  -1802854.42745  24466100.096    24466113.9394
  23904713.545    -3902345.033 8  -3026510.85045  23904712.792    23904724.5264
 00  7 19  1 32 30.0000000  0  7 22 29 06 25 16 01 30
  21113242.014   -22726677.352 9 -17684837.77347  21113242.390    21113252.3144
  22822646.476   -10788630.968 8  -8382756.41946  22822656.535    22822667.9024
  23891252.491    -7570666.188 8  -5892486.93345  23891259.275    23891270.3494
  20732400.105   -23626356.275 9 -18398391.31548  20732405.299    20732412.9654
  24048887.419    -4880446.172 7  -3784118.02245  24048888.504    24048897.8824
  24448014.050    -2714323.779 7  -1876895.51545  24448019.796    24448032.0774
  23923953.063    -3801243.393 8  -2947730.45945  23923952.451    23923963.3114
 00  7 19  1 33  0.0000000  0  7 22 29 06 25 16 01 30
  21097485.376   -22809478.533 9 -17749358.09947  21097485.841    21097495.5464
  22838443.303   -10705637.641 8  -8318086.42546  22838449.826    22838460.9044
  23887086.407    -7592571.607 8  -5909556.04445  23887091.055    23887101.4584
  20735786.001   -23608579.781 9 -18384539.49948  20735788.179    20735795.8174
  24033721.788    -4960144.009 8  -3846220.07145  24033718.987    24033733.9454
  24429937.251    -2809345.498 7  -1950938.31345  24429938.141    24429950.6144
  23943228.691    -3699948.063 8  -2868799.16145  23943227.709    23943239.2544
 00  7 19  1 33 30.0000000  0  7 22 29 06 25 16 01 30
  21081809.599   -22891842.339 9 -17813537.61447  21081812.413    21081822.1624
  22854286.293   -10622389.451 8  -8253217.80446  22854292.142    22854301.8154
  23883005.782    -7614015.320 8  -5926265.37645  23883010.285    23883020.7434
  20739209.227   -23590584.376 9 -18370517.10448  20739212.479    20739220.5164
  24018623.797    -5039453.046 8  -3908019.13445  24018629.151    24018640.9934
  24411853.712    -2904368.073 7  -2024981.77245  24411854.492    24411867.9734
  23962540.751    -3598461.482 8  -2789718.79445  23962539.963    23962551.6464
 00  7 19  1 34  0.0000000  0  7 22 29 06 25 16 01 30
  21066219.518   -22973766.672 9 -17877374.68647  21066222.863    21066232.2374
  22870179.570   -10538887.283 8  -8188151.28346  22870182.007    22870192.2064
  23879011.740    -7634995.713 8  -5942613.70145  23879018.363    23879028.2034
  20742676.111   -23572370.647 9 -18356324.59648  20742678.614    20742686.0824
  24003602.936    -5118370.198 7  -3969512.88345  24003610.274    24003623.6144
  24393768.083    -2999390.093 7  -2099024.80545  24393772.996    24393787.4914
  23981882.632    -3496786.337 8  -2710491.51445  23981888.524    23981899.3704
 00  7 19  1 34 30.0000000  0  7 22 29 06 25 16 01 30
  21050713.147   -23055249.021 9 -17940867.35447  21050717.635    21050726.6514
  22886111.333   -10455131.984 8  -8122887.54946  22886120.267    22886129.1214
  23875114.127    -7655511.554 8  -5958600.05245  23875114.413    23875123.4094
  20746183.238   -23553939.022 9 -18341962.29448  20746186.022    20746193.3474
  23988666.085    -5196893.178 8  -4030699.47645  23988669.909    23988681.1124
  24375688.270    -3094410.281 7  -2173066.40945  24375692.220    24375704.3914
  24001266.393    -3394924.803 7  -2631118.97845  24001271.335    24001283.6064
 00  7 19  1 35  0.0000000  0  7 22 29 06 25 16 01 30
  21035291.997   -23136287.389 9 -18004014.06047  21035295.961    21035305.3054
  22902100.210   -10371124.480 8  -8057427.25446  22902105.970    22902117.0574
  23871301.581    -7675561.346 8  -5974223.22745  23871298.636    23871308.4314
  20749733.213   -23535289.850 9 -18327430.47348  20749734.960    20749742.3144
  23973800.362    -5275019.349 8  -4091576.89645  23973801.855    23973813.3324
  24357601.516    -3189427.166 7  -2247105.44545  24357609.584    24357623.1034
  24020688.717    -3292879.556 8  -2551603.30545  24020689.975    24020702.7604
 00  7 19  1 35 30.0000000  0  7 22 29 06 25 16 01 30
  21019956.882   -23216879.933 9 -18066813.38147  21019959.605    21019969.1244
  22918139.477   -10286865.605 8  -7991771.13246  22918140.226    22918150.3654
  23867570.294    -7695143.651 8  -5989482.16045  23867572.047    23867583.5964
  20753319.292   -23516423.928 9 -18312729.75848  20753324.550    20753332.5444
  23959002.103    -5352746.506 8  -4152143.40445  23959009.817    23959023.1884
  24339526.657    -3284439.416 7  -2321140.86445  24339530.330    24339543.0064
  24040146.084    -3190653.311 8  -2471946.56945  24040143.648    24040155.3664
 00  7 19  1 36  0.0000000  0  7 22 29 06 25 16 01 30
  21004703.834   -23297025.114 9 -18129264.09747  21004707.971    21004718.0474
  22934217.566   -10202356.341 8  -7925919.87946  22934222.235    22934232.9784
  23863935.877    -7714257.008 8  -6004375.66645  23863934.836    23863946.0174
  20756953.379   -23497341.771 9 -18297860.55448  20756955.617    20756963.6534
  23944293.192    -5430072.086 8  -4212396.94145  23944295.085    23944308.2524
  24321452.886    -3379445.618 7  -2395171.54645  24321451.382    24321463.4684
  24059630.575    -3088248.769 8  -2392150.90245  24059631.301    24059642.6044
 00  7 19  1 36 30.0000000  0  7 22 29 06 25 16 01 30
  20989541.637   -23376720.775 9 -18191364.54047  20989542.675    20989552.3994
  22950349.069   -10117597.533 8  -7859874.16846  22950351.708    22950361.0634
  23860382.096    -7732900.033 8  -6018902.65245  23860387.378    23860399.5174
  20760624.447   -23478043.720 9 -18282823.11148  20760627.668    20760635.8664
  23929653.808    -5506993.457 8  -4272335.55245  23929657.071    23929669.4554
  24303368.196    -3474444.490 7  -2469196.57545  24303371.860    24303385.4254
  24079150.700    -2985668.342 8  -2312218.14645  24079151.228    24079163.4404
 00  7 19  1 37  0.0000000  0  7 22 29 06 25 16 01 30
  20974460.965   -23455964.597 9 -18253112.90347  20974463.565    20974472.9184
  22966520.196   -10032589.993 8  -7793634.65746  22966526.807    22966538.0164
  23856927.423    -7751071.357 8  -6033062.07245  23856929.096    23856940.8504
  20764337.490   -23458529.657 9 -18267617.35648  20764341.164    20764349.3254
  23915099.256    -5583508.530 7  -4331957.60545  23915097.458    23915109.9504
  24285291.177    -3569434.700 8  -2543214.80245  24285297.522    24285309.2334
  24098703.916    -2882914.505 8  -2232150.27445  24098705.211    24098716.4204
 00  7 19  1 37 30.0000000  0  7 22 29 06 25 16 01 30
  20959469.211   -23534754.648 9 -18314507.67947  20959469.934    20959479.6844
  22982754.355    -9947334.790 8  -7727202.16846  22982750.917    22982761.7054
  23853560.070    -7768769.621 8  -6046852.88945  23853561.850    23853573.0184
  20768093.132   -23438800.402 9 -18252243.92048  20768095.578    20768103.7434
  23900611.377    -5659614.770 8  -4391261.05645  23900614.081    23900628.3884
  24267222.833    -3664414.624 8  -2617225.00845  24267222.889    24267234.7194
  24118281.706    -2779989.495 7  -2151949.03945  24118290.698    24118301.6274
 00  7 19  1 38  0.0000000  0  7 22 29 06 25 16 01 30
  20944563.057   -23613089.171 9 -18375547.50547  20944563.244    20944573.0014
  22999017.503    -9861832.875 8  -7660577.42346  22999022.212    22999032.7614
  23850279.907    -7785993.497 8  -6060274.08245  23850284.257    23850295.4914
  20771885.640   -23418856.498 9 -18236703.21948  20771890.641    20771898.8524
  23886207.450    -5735309.509 8  -4450243.88845  23886211.160    23886223.4174
  24249143.238    -3759383.020 7  -2691226.22645  24249150.149    24249162.3064
  24137908.669    -2676896.223 8  -2071616.66445  24137908.654    24137920.8294
 00  7 19  1 38 30.0000000  0  7 22 29 06 25 16 01 30
  20929741.969   -23690966.636 9 -18436231.17547  20929743.595    20929752.9564
  23015341.370    -9776085.220 8  -7593761.20946  23015339.651    23015349.0794
  23847092.509    -7802741.821 8  -6073324.68945  23847096.292    23847108.7134
  20775723.675   -23398698.323 9 -18220995.56048  20775726.901    20775734.8594
  23871883.059    -5810590.432 8  -4508904.27945  23871884.652    23871896.6474
  24231079.175    -3854338.341 8  -2765217.30345  24231082.322    24231092.9864
  24157549.542    -2573637.101 8  -1991155.07345  24157558.419    24157569.8004
 00  7 19  1 39  0.0000000  0  7 22 29 06 25 16 01 30
  20915007.743   -23768384.898 9 -18496557.03447  20915011.161    20915020.5924
  23031695.830    -9690092.672 8  -7526754.14546  23031703.380    23031713.4464
  23843992.930    -7819013.347 8  -6086003.77645  23844000.268    23844011.8564
  20779598.782   -23378326.547 9 -18205121.46448  20779603.404    20779611.3894
  23857633.443    -5885455.166 8  -4567240.38345  23857639.305    23857650.7084
  24213009.151    -3949279.306 8  -2839197.18445  24213015.139    24213027.1924
  24177230.506    -2470214.754 8  -1910566.24545  24177239.132    24177250.3244
 00  7 19  1 39 30.0000000  0  7 22 29 06 25 16 01 30
  20900365.486   -23845341.782 9 -18556523.37247  20900366.821    20900376.2724
  23048114.252    -9603856.127 8  -7459556.98046  23048114.095    23048124.8144
  23840992.428    -7834806.692 8  -6098310.26045  23840994.933    23841007.3274
  20783518.664   -23357741.339 9 -18189081.05448  20783520.726    20783528.5714
  23843475.326    -5959901.630 8  -4625250.55045  23843472.066    23843484.4384
  24194943.650    -4044204.516 8  -2913164.78645  24194951.397    24194963.7934
  24196947.785    -2366631.404 7  -1829851.97145  24196950.260    24196961.3814
 00  7 19  1 40  0.0000000  0  7 22 29 06 25 16 01 30
  20885809.522   -23921835.314 9 -18616128.65347  20885810.436    20885819.9344
  23064558.424    -9517376.673 8  -7392170.55046  23064569.585    23064581.2604
  23838078.391    -7850120.644 8  -6110243.17045  23838080.406    23838092.6544
  20787475.191   -23336943.117 9 -18172874.65748  20787478.448    20787486.3384
  23829383.800    -6033926.856 8  -4682932.46945  23829385.089    23829396.9974
  24176884.473    -4139112.527 8  -2987118.91745  24176890.627    24176903.6524
  24216693.192    -2262889.850 7  -1749014.46345  24216692.303    24216703.1614
 00  7 19  1 40 30.0000000  0  7 22 29 06 25 16 01 30
  20871339.806   -23997864.097 9 -18675371.80547  20871342.895    20871352.1334
  23081070.728    -9430655.130 8  -7324595.46346  23081072.120    23081084.0874
  23835251.056    -7864954.043 8  -6121801.61345  23835256.628    23835270.1484
  20791472.808   -23315932.466 9 -18156502.73248  20791476.458    20791484.5314
  23815379.339    -6107528.741 8  -4740284.51945  23815380.168    23815391.9364
  24158833.237    -4234001.736 8  -3061058.42545  24158834.702    24158847.1174
  24236455.351    -2158992.308 7  -1668055.37945  24236462.680    24236474.5164
 00  7 19  1 41  0.0000000  0  7 22 29 06 25 16 01 30
  20856961.515   -24073426.503 9 -18734251.53747  20856963.992    20856972.9164
  23097620.837    -9343692.619 8  -7256832.65446  23097619.866    23097632.6554
  23832522.545    -7879305.458 8  -6132984.50945  23832527.654    23832538.5844
  20795510.217   -23294709.049 9 -18139965.02748  20795515.401    20795522.9684
  23801448.917    -6180704.896 8  -4797304.82445  23801454.161    23801466.5064
  24140777.921    -4328870.586 8  -3134982.06745  24140780.887    24140794.4644
  24256263.361    -2054941.157 8  -1586976.52945  24256262.775    24256275.4364
 00  7 19  1 41 30.0000000  0  7 22 29 06 25 16 01 30
  20842672.821   -24148520.396 9 -18792766.19347  20842673.908    20842682.9414
  23114210.517    -9256490.083 8  -7188882.77445  23114215.526    23114225.6954
  23829885.487    -7893173.951 8  -6143791.10945  23829887.858    23829898.8824
  20799590.930   -23273273.777 9 -18123262.22348  20799594.519    20799602.0734
  23787612.772    -6253453.203 8  -4853991.76245  23787611.207    23787622.8374
  24122732.966    -4423717.649 8  -3208888.75145  24122732.300    24122743.6604
  24276091.011    -1950739.575 8  -1505780.51845  24276091.867    24276103.8394
 00  7 19  1 42  0.0000000  0  7 22 29 06 25 16 01 30
  20828471.112   -24223143.728 9 -18850914.19047  20828473.422    20828482.6054
  23130851.849    -9169048.450 8  -7120746.58646  23130855.228    23130866.3654
  23827337.755    -7906558.435 8  -6154220.53745  23827341.634    23827353.4954
  20803711.279   -23251627.417 9 -18106394.94948  20803713.643    20803721.4054
  23773848.679    -6325771.077 8  -4910343.28245  23773849.716    23773860.0304
  24104688.015    -4518541.430 8  -3282777.26645  24104687.598    24104699.1354
  24295939.828    -1846389.292 7  -1424468.59345  24295949.026    24295960.6364
 00  7 19  1 42 30.0000000  0  7 22 29 06 25 16 01 30
  20814361.264   -24297294.720 9 -18908694.11347  20814362.609    20814372.2654
  23147537.872    -9081368.759 8  -7052424.94045  23147539.885    23147551.7074
  23824885.232    -7919457.577 8  -6164271.78345  23824885.302    23824898.1634
  20807870.414   -23229770.071 9 -18089363.27248  20807873.186    20807880.5664
  23760167.334    -6397656.082 8  -4966357.54645  23760170.213    23760183.2624
  24086639.827    -4613340.531 8  -3356646.54745  24086647.743    24086658.5144
  24315830.070    -1741893.065 8  -1343042.97845  24315834.035    24315846.0254
 00  7 19  1 43  0.0000000  0  7 22 29 06 25 16 01 30
  20800338.809   -24370972.082 9 -18966104.98447  20800342.570    20800352.0844
  23164264.692    -8993452.159 8  -6983918.62845  23164270.754    23164280.8364
  23822522.189    -7931870.195 8  -6173943.91845  23822524.361    23822535.8154
  20812068.490   -23207702.112 9 -18072167.48648  20812072.541    20812079.9774
  23746565.293    -6469105.887 8  -5022032.59845  23746572.747    23746586.3104
  24068609.293    -4708113.702 8  -3430495.66145  24068613.782    24068624.6694
  24335741.153    -1637253.379 7  -1261505.59345  24335746.179    24335757.4294
 00  7 19  1 43 30.0000000  0  7 22 29 06 25 16 01 30
  20786411.663   -24444174.104 9 -19023145.45347  20786412.917    20786421.9354
  23181041.223    -8905299.451 8  -6915228.36145  23181044.755    23181057.4414
  23820247.825    -7943795.089 8  -6183236.02045  23820254.435    23820267.3854
  20816307.977   -23185423.899 9 -18054807.85948  20816311.487    20816319.7644
  23733057.555    -6540118.565 8  -5077367.05145  23733060.223    23733072.5894
  24050580.140    -4802859.305 7  -3504323.27545  24050581.805    24050593.6864
  24355684.189    -1532472.536 7  -1179858.19745  24355685.528    24355696.8134
 00  7 19  1 44  0.0000000  0  7 22 29 06 25 16 01 30
  20772572.085   -24516898.716 9 -19079813.93047  20772573.710    20772582.8424
  23197860.854    -8816911.862 8  -6846355.11645  23197864.119    23197876.7784
  23818077.210    -7955231.410 8  -6192147.37046  23818079.177    23818090.9184
  20820587.537   -23162936.063 9 -18037284.89848  20820590.570    20820599.2524
  23719631.083    -6610691.307 8  -5132358.72445  23719630.500    23719641.9804
  24032558.449    -4897575.688 8  -3578128.09645  24032559.310    24032570.4014
  24375651.745    -1427553.235 7  -1098102.90345  24375651.274    24375662.4584
 00  7 19  1 44 30.0000000  0  7 22 29 06 25 16 01 30
  20758822.783   -24589144.027 9 -19136108.92147  20758825.757    20758834.7644
  23214728.774    -8728290.224 8  -6777299.46845  23214729.781    23214740.6394
  23815994.746    -7966177.971 8  -6200677.11346  23815995.485    23816008.2114
  20824905.522   -23140238.823 9 -18019598.76648  20824910.098    20824918.2334
  23706278.366    -6680822.357 8  -5187006.20745  23706284.701    23706295.9544
  24014536.686    -4992261.234 8  -3651908.90845  24014540.508    24014552.2094
  24395631.324    -1322497.772 7  -1016241.48845  24395643.137    24395653.2094
 00  7 19  1 45  0.0000000  0  7 22 29 06 25 16 01 30
  20745168.048   -24660908.321 9 -19192029.10247  20745169.423    20745178.5224
  23231636.496    -8639435.795 8  -6708062.39945  23231637.831    23231649.1724
  23814002.283    -7976633.832 8  -6208824.49845  23814005.963    23814017.9944
  20829265.714   -23117332.686 9 -18001749.85848  20829268.936    20829277.2154
  23693021.044    -6750509.166 8  -5241307.52146  23693024.190    23693036.4754
  23996530.431    -5086914.410 8  -3725664.46645  23996528.370    23996540.2114
  24415645.131    -1217308.505 7   -934275.81045  24415659.386    24415669.8194
 00  7 19  1 45 30.0000000  0  7 22 29 06 25 16 01 30
  20731604.621   -24732190.372 9 -19247573.49047  20731605.009    20731613.8834
  23248586.667    -8550349.477 8  -6638644.69445  23248589.158    23248601.6584
  23812102.345    -7986597.987 8  -6216588.71545  23812109.565    23812121.3984
  20833665.697   -23094217.818 9 -17983738.30148  20833667.573    20833675.7274
  23679841.094    -6819749.485 8  -5295260.90645  23679846.798    23679859.3024
  23978519.510    -5181533.560 8  -3799393.57845  23978523.835    23978534.0654
  24435691.448    -1111987.901 7   -852207.81945  24435700.876    24435712.8244
 00  7 19  1 46  0.0000000  0  7 22 29 06 25 16 01 30
  20718129.171   -24802988.558 9 -19302740.84747  20718132.213    20718141.5854
  23265582.105    -8461032.387 8  -6569047.14945  23265586.679    23265597.1724
  23810308.077    -7996069.447 8  -6223969.03145  23810307.354    23810318.7144
  20838103.161   -23070894.541 9 -17965564.34048  20838105.980    20838114.0124
  23666761.948    -6888541.068 8  -5348864.63345  23666757.620    23666769.2734
  23960518.186    -5276117.352 8  -3873095.12945  23960524.736    23960536.3364
  24455760.473    -1006538.439 7   -770039.38045  24455767.938    24455778.3794
 00  7 19  1 46 30.0000000  0  7 22 29 06 25 16 01 30
  20704750.803   -24873300.924 9 -19357529.65047  20704752.499    20704761.2514
  23282630.495    -8371485.628 8  -6499270.62845  23282628.021    23282638.6974
  23808594.291    -8005047.322 8  -6230964.72445  23808599.346    23808609.8074
  20842579.918   -23047363.682 9 -17947228.63248  20842583.664    20842591.8254
  23653752.361    -6956881.732 8  -5402116.96646  23653753.093    23653764.9454
  23942529.477    -5370664.350 8  -3946767.93045  23942532.489    23942544.4454
  24475850.949     -900962.672 7   -687772.51645  24475858.204    24475868.7274
 00  7 19  1 47  0.0000000  0  7 22 29 06 25 16 01 30
  20691462.098   -24943125.479 9 -19411938.34547  20691465.125    20691474.0284
  23299704.872    -8281710.237 8  -6429315.94745  23299711.471    23299723.4014
  23806980.548    -8013530.598 8  -6237575.02446  23806985.837    23806996.8844
  20847097.225   -23023624.808 9 -17928730.83448  20847101.241    20847109.1304
  23640831.738    -7024769.115 8  -5455016.11145  23640833.743    23640845.9314
  23924549.709    -5465172.766 8  -4020410.69545  23924549.012    23924559.8134
  24495977.426     -795262.824 7   -605408.99045  24495973.351    24495983.0904
 00  7 19  1 47 30.0000000  0  7 22 29 06 25 16 01 30
  20678269.882   -25012460.906 9 -19465965.89447  20678271.061    20678279.6394
  23316835.937    -8191707.357 8  -6359184.02045  23316838.192    23316849.8634
  23805462.646    -8021518.367 8  -6243799.21145  23805464.944    23805475.8774
  20851655.972   -22999678.986 9 -17910071.77148  20851658.199    20851665.9774
  23627998.224    -7092200.912 8  -5507560.26445  23628002.452    23628013.1584
  23906569.395    -5559641.109 8  -4094022.33645  23906572.134    23906582.2594
  24516099.357     -689441.066 7   -522950.46645  24516109.998    24516119.6734
 00  7 19  1 48  0.0000000  0  7 22 29 06 25 16 01 30
  20665167.372   -25081305.981 9 -19519611.35947  20665170.179    20665178.9144
  23334010.048    -8101477.955 8  -6288875.57645  23334009.048    23334019.9624
  23804038.163    -8029009.560 8  -6249636.45245  23804038.718    23804050.8424
  20856250.325   -22975526.369 9 -17891251.56248  20856254.376    20856261.9084
  23615253.896    -7159175.188 8  -5559747.93645  23615255.930    23615268.6164
  23888600.338    -5654067.678 8  -4167601.36745  23888602.944    23888615.3224
  24536271.559     -583500.051 7   -440398.96945  24536268.081    24536280.6654
 00  7 19  1 48 30.0000000  0  7 22 29 06 25 16 01 30
  20652161.766   -25149659.041 9 -19572873.43547  20652163.023    20652171.9224
  23351214.461    -8011023.208 8  -6218391.54045  23351221.170    23351232.7194
  23802702.743    -8036003.486 8  -6255086.22845  23802708.709    23802720.3784
  20860886.375   -22951167.045 9 -17872270.29048  20860889.871    20860897.3034
  23602597.679    -7225689.749 8  -5611577.34645  23602599.241    23602611.7434
  23870644.804    -5748450.794 8  -4241146.48645  23870643.233    23870654.0514
  24556447.130     -477442.318 7   -357756.59445  24556451.527    24556461.7724
 00  7 19  1 49  0.0000000  0  7 22 29 06 25 16 01 30
  20639246.242   -25217518.177 9 -19625750.62847  20639249.373    20639258.7784
  23368468.130    -7920344.381 8  -6147732.89045  23368478.095    23368490.3044
  23801473.861    -8042499.060 8  -6260147.65745  23801472.322    23801482.6914
  20865562.117   -22926601.537 9 -17853128.35148  20865564.545    20865572.1954
  23590027.248    -7291742.366 8  -5663046.81845  23590029.995    23590041.2974
  23852690.081    -5842788.827 8  -4314656.50945  23852690.421    23852700.8044
  24576653.255     -371269.849 7   -275024.76145  24576654.945    24576666.3424
 00  7 19  1 49 30.0000000  0  6 22 29 06 25 16 01
  20626428.712   -25284881.688 9 -19678241.62447  20626430.363    20626439.7154
  23385769.926    -7829442.287 8  -6076900.26645  23385776.351    23385786.4404
  23800322.026    -8048495.549 8  -6264820.21845  23800330.614    23800341.0864
  20870272.550   -22901830.339 9 -17833826.12948  20870278.053    20870286.0784
  23577549.883    -7357330.772 8  -5714154.57045  23577548.918    23577560.1714
  23834741.872    -5937080.289 8  -4388130.29045  23834746.941    23834757.6544
 00  7 19  1 50  0.0000000  0  6 22 29 06 25 16 01
  20613704.019   -25351748.149 9 -19730345.30447  20613706.407    20613715.9574
  23403114.228    -7738318.272 8  -6005894.69745  23403116.413    23403128.4684
  23799281.158    -8053992.072 8  -6269103.16245  23799283.958    23799294.5914
  20875028.947   -22876853.962 9 -17814364.03248  20875031.061    20875038.6954
  23565149.598    -7422453.078 8  -5764899.15145  23565156.493    23565168.0464
  23816808.886    -6031323.463 8  -4461566.42246  23816813.427    23816825.5314
 00  7 19  1 50 30.0000000  0  6 22 29 06 25 16 01
  20601076.604   -25418116.596 9 -19782060.92648  20601077.109    20601086.3004
  23420492.715    -7646973.253 8  -5934716.95745  23420498.872    23420510.1694
  23798328.635    -8058987.840 8  -6272995.92745  23798333.246    23798343.9614
  20879819.396   -22851672.501 9 -17794742.12848  20879822.631    20879830.6574
  23552853.684    -7487106.486 8  -5815278.34046  23552853.551    23552866.3474
  23798887.980    -6125516.768 8  -4534963.69645  23798888.025    23798900.5584
 00  7 19  1 51  0.0000000  0  6 22 29 06 25 16 01
  20588539.344   -25483985.354 9 -19833387.18548  20588542.659    20588551.4494
  23437915.420    -7555408.658 8  -5863368.10445  23437922.019    23437934.0504
  23797470.016    -8063482.115 8  -6276497.91045  23797478.002    23797489.8384
  20884649.304   -22826286.508 9 -17774960.84848  20884653.361    20884661.5814
  23540632.824    -7551289.953 8  -5865291.34646  23540639.795    23540651.8234
  23780974.708    -6219658.520 8  -4608320.75545  23780972.860    23780985.0954
 00  7 19  1 51 30.0000000  0  6 22 29 06 25 16 01
  20576102.958   -25549352.434 9 -19884322.53648  20576103.943    20576112.5244
  23455391.319    -7463625.418 8  -5791848.87645  23455388.373    23455401.4974
  23796714.978    -8067473.985 8  -6279608.43145  23796719.568    23796729.7654
  20889519.129   -22800696.298 9 -17755020.43348  20889523.053    20889531.2934
  23528515.911    -7615000.640 8  -5914935.96546  23528515.586    23528527.8714
  23763063.329    -6313747.059 8  -4681636.37346  23763069.666    23763081.1174
 00  7 19  1 52  0.0000000  0  6 22 29 06 25 16 01
  20563756.160   -25614216.403 9 -19934865.83948  20563760.376    20563769.3964
  23472892.502    -7371624.841 8  -5720160.31545  23472896.296    23472909.3574
  23796051.827    -8070962.810 8  -6282326.93345  23796055.932    23796065.8824
  20894427.930   -22774901.935 9 -17734920.93248  20894431.488    20894439.8584
  23516480.506    -7678236.566 8  -5964210.65246  23516482.745    23516493.5174
  23745173.188    -6407780.707 8  -4754909.21946  23745175.065    23745187.1554
 00  7 19  1 52 30.0000000  0  6 22 29 06 25 16 01
  20551509.963   -25678576.128 9 -19985016.22748  20551512.851    20551521.9874
  23490446.033    -7279407.908 8  -5648303.12845  23490444.117    23490457.7324
  23795484.130    -8073947.901 8  -6284652.94345  23795486.456    23795498.1774
  20899372.123   -22748903.495 9 -17714662.41648  20899379.078    20899387.3234
  23504540.927    -7740995.820 8  -6013113.92045  23504540.301    23504550.6774
  23727288.929    -6501757.832 8  -4828138.03145  23727291.733    23727302.7474
 00  7 19  1 53  0.0000000  0  6 22 29 06 25 16 01
  20539359.443   -25742430.486 9 -20034772.82248  20539361.790    20539370.8684
  23508026.209    -7186976.025 8  -5576278.47845  23508034.375    23508045.3804
  23795015.455    -8076428.596 8  -6286585.89145  23795014.906    23795024.5854
  20904362.872   -22722701.630 9 -17694245.38948  20904365.481    20904373.2124
  23492683.164    -7803276.229 8  -6061644.01646  23492687.847    23492700.6434
  23709417.015    -6595676.827 8  -4901321.57145  23709420.068    23709430.1594
 00  7 19  1 53 30.0000000  0  6 22 29 06 25 16 01
  20527304.661   -25805777.784 9 -20084134.30848  20527307.548    20527316.2364
  23525665.611    -7094330.112 8  -5504087.01745  23525665.067    23525675.2084
  23794636.068    -8078404.221 8  -6288125.31045  23794638.175    23794650.0864
  20909387.689   -22696296.477 9 -17673669.94648  20909390.178    20909397.8534
  23480926.802    -7865075.897 8  -6109799.57746  23480928.694    23480940.1014
  23691555.761    -6689535.986 8  -4974458.46346  23691558.795    23691571.5754
 00  7 19  1 54  0.0000000  0  6 22 29 06 25 16 01
  20515346.523   -25868616.343 9 -20133099.37648  20515349.595    20515358.7954
  23543331.503    -7001471.547 8  -5431729.87645  23543334.501    23543346.6814
  23794357.276    -8079873.857 8  -6289270.43845  23794359.762    23794370.4944
  20914449.769   -22669688.569 9 -17652936.51648  20914453.563    20914461.2524
  23469258.644    -7926392.333 8  -6157578.54046  23469260.250    23469271.8624
  23673704.556    -6783333.527 8  -5047547.32146  23673708.624    23673720.5114
 00  7 19  1 54 30.0000000  0  6 22 29 06 25 16 01
  20503487.181   -25930944.710 9 -20181666.88848  20503488.850    20503497.9424
  23561042.552    -6908401.560 8  -5359208.03045  23561045.508    23561055.9944
  23794176.202    -8080836.971 8  -6290020.88645  23794175.162    23794186.2324
  20919552.693   -22642878.179 9 -17632045.30348  20919555.308    20919562.7034
  23457683.679    -7987223.905 8  -6204979.69846  23457683.537    23457694.8004
  23655871.157    -6877068.026 8  -5120587.09846  23655872.550    23655884.6044
 00  7 19  1 55  0.0000000  0  6 22 29 06 25 16 01
  20491723.435   -25992761.983 9 -20229836.13948  20491725.374    20491734.2154
  23578794.043    -6815121.170 7  -5286522.12245  23578794.838    23578809.2484
  23794087.125    -8081293.096 8  -6290376.27745  23794088.964    23794099.3574
  20924690.495   -22615865.715 9 -17610996.63548  20924695.009    20924702.9664
  23446199.077    -8047568.558 8  -6252001.47946  23446200.700    23446211.7304
  23638043.806    -6970737.638 8  -5193576.33046  23638048.213    23638058.8224
 00  7 19  1 55 30.0000000  0  6 22 29 06 25 16 01
  20480057.662   -26054067.054 9 -20277606.28548  20480059.287    20480068.1494
  23596587.071    -6721631.673 8  -5213673.41245  23596586.665    23596600.1414
  23794089.903    -8081241.670 8  -6290336.15245  23794099.274    23794108.3874
  20929870.140   -22588651.462 9 -17589790.72948  20929873.764    20929881.8744
  23434811.465    -8107424.389 8  -6298642.33246  23434811.381    23434822.1154
  23620230.611    -7064340.554 8  -5266513.54845  23620234.439    23620246.4944
 00  7 19  1 56  0.0000000  0  6 22 29 06 25 16 01
  20468488.341   -26114858.227 9 -20324975.97948  20468490.957    20468500.1744
  23614417.098    -6627934.362 7  -5140662.70745  23614416.054    23614428.2804
  23794204.866    -8080681.902 8  -6289899.92645  23794206.851    23794213.5154
  20935086.360   -22561235.414 9 -17568427.58048  20935091.279    20935099.0004
  23423511.284    -8166789.237 8  -6344900.60946  23423513.574    23423525.4404
  23602433.693    -7157874.882 8  -5339397.38446  23602436.017    23602447.2454
 00  7 19  1 56 30.0000000  0  6 22 29 06 25 16 01
  20457016.962   -26175133.920 9 -20371944.00148  20457020.795    20457030.1264
  23632278.992    -6534030.348 8  -5067490.97645  23632285.744    23632299.6304
  23794403.199    -8079613.193 8  -6289067.13345  23794408.478    23794418.1604
  20940343.070   -22533618.074 9 -17546907.57848  20940346.439    20940354.5404
  23412304.344    -8225661.065 8  -6390774.71346  23412309.849    23412321.9384
  23584649.038    -7251339.117 8  -5412226.60045  23584649.510    23584660.4964
 00  7 19  1 57  0.0000000  0  6 22 29 06 25 16 01
  20445647.648   -26234892.943 9 -20418509.41948  20445649.267    20445657.8634
  23650191.076    -6439920.974 7  -4994159.18545  23650194.333    23650207.6794
  23794705.890    -8078035.128 8  -6287837.43545  23794709.280    23794719.9724
  20945634.994   -22505799.657 9 -17525230.89748  20945640.502    20945647.9464
  23401200.335    -8284038.327 8  -6436263.46346  23401201.530    23401213.0254
  23566872.772    -7344731.419 8  -5484999.75646  23566878.622    23566891.0324
 00  7 19  1 57 30.0000000  0  6 22 29 06 25 16 01
  20434373.258   -26294134.424 9 -20464671.56848  20434375.829    20434384.2614
  23668140.477    -6345607.279 8  -4920668.17145  23668142.066    23668155.2624
  23795105.985    -8075947.393 8  -6286210.56645  23795106.619    23795117.2854
  20950968.333   -22477780.453 9 -17503397.74248  20950972.222    20950979.9714
  23390185.617    -8341919.010 8  -6481365.28046  23390188.037    23390200.3934
  23549117.906    -7438049.733 8  -5557715.20446  23549120.809    23549132.3634
 00  7 19  1 58  0.0000000  0  6 22 29 06 25 16 01
  20423196.562   -26352857.284 9 -20510429.58948  20423200.979    20423209.9974
  23686123.615    -6251090.663 7  -4847019.05245  23686127.378    23686142.3604
  23795595.122    -8073349.314 8  -6284186.07445  23795600.282    23795612.3104
  20956338.434   -22449560.812 9 -17481408.40248  20956342.235    20956350.4934
  23379263.038    -8399300.763 8  -6526078.27646  23379266.703    23379279.6814
  23531375.578    -7531292.638 8  -5630371.95746  23531377.565    23531387.0934
 00  7 19  1 58 30.0000000  0  6 22 29 06 25 16 01
  20412122.505   -26411059.968 9 -20555782.26748  20412125.356    20412134.0334
  23704145.245    -6156372.571 7  -4773212.98645  23704152.162    23704165.8614
  23796183.973    -8070240.421 8  -6281763.51845  23796192.666    23796202.4004
  20961748.107   -22421141.091 9 -17459263.16348  20961750.774    20961758.4204
  23368445.690    -8456182.297 8  -6570401.50946  23368443.637    23368455.7794
  23513647.010    -7624458.252 8  -5702968.48546  23513647.788    23513659.5094
 00  7 19  1 59  0.0000000  0  6 22 29 06 25 16 01
  20401146.432   -26468740.916 9 -20600728.41148  20401149.136    20401157.5184
  23722208.445    -6061454.010 8  -4699250.63545  23722216.850    23722227.3064
  23796880.601    -8066620.367 8  -6278942.63545  23796881.568    23796891.7334
  20967193.192   -22392521.506 9 -17436962.18348  20967197.106    20967204.3344
  23357716.460    -8512561.426 8  -6614333.26646  23357716.268    23357726.1974
  23495926.166    -7717544.785 8  -5775503.36146  23495933.800    23495945.2564
 00  7 19  1 59 30.0000000  0  6 22 29 06 25 16 01
  20390270.112   -26525899.135 9 -20645267.22748  20390272.195    20390281.1584
  23740320.136    -5966336.229 7  -4625133.04845  23740314.689    23740329.9004
  23797665.040    -8062488.668 8  -6275723.09945  23797667.895    23797677.2104
  20972676.286   -22363702.129 9 -17414505.50348  20972680.713    20972688.3744
  23347079.289    -8568436.385 8  -6657872.16446  23347082.593    23347094.1674
  23478236.120    -7810550.173 8  -5847975.04746  23478236.533    23478246.9324
 00  7 19  2  0  0.0000000  0  6 22 29 06 25 16 01
  20379493.753   -26582533.888 9 -20689398.14848  20379494.902    20379503.5984
  23758450.908    -5871020.624 7  -4550861.45445  23758453.652    23758467.1484
  23798550.382    -8057844.900 8  -6272104.57145  23798551.297    23798561.0804
  20978200.519   -22334683.520 9 -17391893.60048  20978202.849    20978210.5474
  23336545.226    -8623805.230 8  -6701016.69146  23336545.657    23336557.3014
  23460550.555    -7903472.955 8  -5920382.32146  23460553.578    23460564.2504
 00  7 19  2  0 30.0000000  0  6 22 29 06 25 16 01
  20368815.608   -26638644.016 9 -20733120.26848  20368817.499    20368825.9694
  23776625.301    -5775508.440 7  -4476436.55945  23776629.315    23776640.8354
  23799530.230    -8052688.556 8  -6268086.58545  23799532.891    23799542.8434
  20983759.540   -22305465.611 9 -17369126.38748  20983762.920    20983770.8104
  23326103.305    -8678666.268 8  -6743765.50546  23326105.565    23326118.3724
  23442884.700    -7996311.287 8  -5992723.83446  23442886.413    23442897.5994
 00  7 19  2  1  0.0000000  0  6 22 29 06 25 16 01
  20358238.565   -26694228.068 9 -20776432.45548  20358239.958    20358249.0094
  23794826.923    -5679800.970 7  -4401859.47845  23794841.362    23794854.3784
  23800609.847    -8047019.385 8  -6263669.03645  23800611.715    23800621.9094
  20989355.038   -22276049.005 9 -17346204.35148  20989359.960    20989368.4194
  23315763.014    -8733017.620 8  -6786117.16846  23315763.393    23315775.9124
  23425231.860    -8089063.262 8  -6064997.99646  23425236.451    23425248.3394
 00  7 19  2  1 30.0000000  0  6 22 29 06 25 16 01
  20347760.950   -26749284.797 9 -20819333.74248  20347763.332    20347772.3134
  23813093.483    -5583899.423 7  -4327131.24345  23813093.197    23813104.9474
  23801783.726    -8040837.069 8  -6258851.59845  23801787.595    23801799.1424
  20994992.988   -22246433.830 9 -17323127.58547  20994995.304    20995003.7824
  23305516.128    -8786857.261 8  -6828070.09446  23305518.490    23305528.6274
  23407604.228    -8181727.065 8  -6137203.49946  23407603.452    23407613.2174
 00  7 19  2  2  0.0000000  0  6 22 29 06 25 16 01
  20337385.614   -26803813.229 9 -20861823.37648  20337386.920    20337395.7344
  23831382.644    -5487805.087 7  -4252252.79045  23831376.372    23831390.7074
  23803058.697    -8034141.169 8  -6253633.99746  23803061.757    23803072.9644
  21000665.363   -22216620.450 9 -17299896.38247  21000668.688    21000677.1864
  23295369.939    -8840184.025 8  -6869623.40246  23295370.736    23295381.5074
  23389983.274    -8274301.118 8  -6209339.04946  23389986.096    23389998.0054
 00  7 19  2  2 30.0000000  0  6 22 29 06 25 16 01
  20327109.409   -26857812.663 9 -20903900.79548  20327111.050    20327119.7624
  23849697.767    -5391519.668 8  -4177225.40345  23849701.866    23849714.0524
  23804426.408    -8026931.578 8  -6248016.11045  23804433.200    23804444.6824
  21006375.389   -22186609.003 9 -17276510.82947  21006379.491    21006388.1264
  23285313.954    -8892995.533 8  -6910775.20246  23285319.619    23285331.6164
  23372382.426    -8366783.237 8  -6281402.97446  23372388.371    23372399.3834
 00  7 19  2  3  0.0000000  0  6 22 29 06 25 16 01
  20316934.136   -26911282.047 9 -20945565.19848  20316936.457    20316944.8924
  23868045.125    -5295044.025 7  -4102049.80345  23868058.310    23868073.5034
  23805900.687    -8019208.015 8  -6241997.72945  23805903.579    23805914.7054
  21012127.279   -22156399.560 9 -17252970.99847  21012128.779    21012136.5644
  23275366.631    -8945290.432 8  -6951524.42946  23275369.424    23275380.1954
  23354808.579    -8459171.496 8  -6353393.71646  23354806.247    23354817.0594
 00  7 19  2  3 30.0000000  0  6 22 29 06 25 16 01
  20306860.791   -26964220.082 9 -20986815.56748  20306862.345    20306870.5564
  23886458.142    -5198379.708 8  -4026727.25745  23886454.184    23886466.7104
  23807465.164    -8010970.001 8  -6235578.45945  23807471.046    23807482.5144
  21017912.330   -22125992.266 9 -17229276.99747  21017915.117    21017922.9784
  23265518.110    -8997066.886 8  -6991869.69246  23265516.581    23265527.5004
  23337235.401    -8551464.391 8  -6425310.19846  23337244.070    23337254.5784
 00  7 19  2  4  0.0000000  0  6 22 29 06 25 16 01
  20296886.265   -27016625.376 9 -21027650.81348  20296889.723    20296898.5904
  23904881.509    -5101527.913 7  -3951258.51345  23904884.294    23904897.9574
  23809132.744    -8002217.491 8  -6228758.32145  23809136.290    23809147.7834
  21023733.325   -22095387.628 9 -17205429.23447  21023739.173    21023746.8884
  23255755.618    -9048323.165 8  -7031809.57146  23255762.953    23255773.2664
  23319697.422    -8643659.843 8  -6497150.67046  23319699.502    23319711.0054
 00  7 19  2  4 30.0000000  0  6 22 29 06 25 16 01
  20287018.684   -27068497.391 9 -21068070.50148  20287018.720    20287027.6764
  23923354.442    -5004490.065 7  -3875644.92145  23923349.324    23923364.5224
  23810892.762    -7992950.317 8  -6221537.12345  23810899.318    23810911.5584
  21029595.558   -22064586.188 9 -17181428.10247  21029600.458    21029608.0734
  23246105.631    -9099057.897 8  -7071343.08246  23246108.522    23246119.4514
  23302165.811    -8735755.669 8  -6568913.57146  23302174.080    23302185.4474
 00  7 19  2  5  0.0000000  0  6 22 29 06 25 16 01
  20277248.087   -27119835.462 9 -21108074.14148  20277249.388    20277258.1924
  23941851.058    -4907267.461 7  -3799887.34245  23941852.770    23941865.4514
  23812762.109    -7983168.285 8  -6213914.76045  23812761.057    23812772.5304
  21035496.856   -22033587.648 9 -17157273.39847  21035499.106    21035507.0234
  23236547.924    -9149269.152 8  -7110468.67046  23236553.393    23236564.8674
  23284667.812    -8827750.508 8  -6640597.72946  23284668.379    23284678.8234
 00  7 19  2  5 30.0000000  0  6 22 29 06 25 16 01
  20267581.034   -27170638.586 9 -21147660.93548  20267581.981    20267590.4284
  23960379.746    -4809861.361 7  -3723986.70945  23960386.356    23960400.0504
  23814716.014    -7972871.372 8  -6205891.19045  23814720.611    23814731.4074
  21041431.672   -22002392.510 9 -17132965.50847  21041435.118    21041443.4124
  23227098.866    -9198955.327 8  -7149185.09446  23227098.560    23227109.9744
  23267177.182    -8919642.254 8  -6712201.57946  23267182.141    23267193.2744
 00  7 19  2  6  0.0000000  0  6 22 29 06 25 16 01
  20258015.268   -27220905.334 9 -21186829.77748  20258016.791    20258025.2534
  23978961.403    -4712273.310 7  -3647944.37445  23978957.604    23978973.2014
  23816773.771    -7962059.367 8  -6197466.22045  23816777.597    23816789.4814
  21047406.465   -21971000.507 9 -17108504.20747  21047409.083    21047416.9254
  23217743.367    -9248114.733 8  -7187491.07946  23217743.975    23217755.2704
  23249712.061    -9011428.927 8  -6783723.51746  23249715.408    23249726.3044
 00  7 19  2  6 30.0000000  0  6 22 29 06 25 16 01
  20248551.743   -27270634.776 9 -21225579.94148  20248553.482    20248561.9054
  23997554.406    -4614504.569 7  -3571761.22045  23997561.488    23997576.7174
  23818922.760    -7950732.105 8  -6188639.75045  23818933.555    23818944.5354
  21053415.706   -21939412.324 9 -17083890.04547  21053419.995    21053428.0194
  23208485.711    -9296745.807 8  -7225385.37046  23208489.077    23208500.2734
  23232266.937    -9103108.715 8  -6855162.22046  23232269.809    23232279.4974
 00  7 19  2  7  0.0000000  0  6 22 29 06 25 16 01
  20239191.075   -27319826.335 9 -21263910.97548  20239192.537    20239200.8494
  24016202.776    -4516556.468 7  -3495438.27445  24016201.899    24016214.4904
  23821188.325    -7938889.475 8  -6179411.74545  23821187.524    23821198.0794
  21059464.124   -21907628.345 9 -17059123.30647  21059468.368    21059476.4644
  23199333.505    -9344847.192 8  -7262866.91746  23199335.858    23199347.7064
  23214843.294    -9194679.763 8  -6926516.18646  23214843.832    23214852.9374
 00  7 19  2  7 30.0000000  0  6 22 29 06 25 16 01
  20229932.825   -27368479.490 9 -21301822.47148  20229933.951    20229942.4584
  24034874.051    -4418430.572 7  -3418976.77745  24034874.089    24034890.4514
  23823530.201    -7926531.369 8  -6169782.03745  23823539.427    23823550.0074
  21065550.121   -21875648.499 9 -17034203.96447  21065554.360    21065561.9904
  23190281.836    -9392417.146 8  -7299934.35746  23190284.155    23190293.6824
  23197437.159    -9286140.114 8  -6997783.89546  23197440.190    23197450.9214
 00  7 19  2  8  0.0000000  0  6 22 29 06 25 16 01
  20220775.443   -27416593.140 9 -21339313.57348  20220778.117    20220786.7704
  24053583.865    -4320128.033 7  -3342377.75145  24053582.403    24053595.6464
  23825988.019    -7913657.651 8  -6159750.54145  23825989.914    23825999.1284
  21071672.078   -21843472.832 9 -17009132.02347  21071676.977    21071684.9014
  23181329.546    -9439454.024 8  -7336586.42446  23181332.554    23181344.2664
  23180051.528    -9377487.601 8  -7068963.64546  23180056.503    23180066.2774
 00  7 19  2  8 30.0000000  0  6 22 29 06 25 16 01
  20211722.270   -27464166.159 9 -21376383.41348  20211725.106    20211733.6884
  24072323.599    -4221650.549 7  -3265642.28745  24072322.592    24072334.9024
  23828529.276    -7900268.435 8  -6149317.36245  23828536.604    23828546.1424
  21077833.981   -21811101.751 9 -16983907.81347  21077837.294    21077844.9754
  23172482.597    -9485956.474 8  -7372822.05346  23172483.213    23172495.3124
  23162697.159    -9468720.468 8  -7140054.09946  23162695.748    23162705.6594
 00  7 19  2  9  0.0000000  0  6 22 29 06 25 16 01
  20202772.104   -27511197.679 9 -21413031.30248  20202775.342    20202783.8564
  24091091.501    -4122999.329 7  -3188771.53345  24091094.985    24091108.8574
  23831182.104    -7886363.578 8  -6138482.40445  23831182.879    23831192.4634
  21084031.200   -21778535.592 9 -16958531.59747  21084034.291    21084042.0894
  23163734.182    -9531922.989 8  -7408640.07046  23163735.666    23163747.2764
  23145348.503    -9559836.687 8  -7211053.63246  23145357.440    23145367.1814
 00  7 19  2  9 30.0000000  0  6 22 29 06 25 16 01
  20193927.591   -27557687.262 9 -21449256.90548  20193928.939    20193937.1144
  24109897.503    -4024175.647 7  -3111766.33145  24109901.127    24109914.3584
  23833921.125    -7871943.269 8  -6127245.78545  23833926.532    23833935.9784
  21090264.785   -21745774.275 9 -16933003.30247  21090268.072    21090276.1604
  23155087.415    -9577352.053 8  -7444039.31046  23155090.445    23155102.7814
  23128041.263    -9650834.294 8  -7281960.77746  23128040.112    23128050.1454
 00  7 19  2 10  0.0000000  0  6 22 29 06 25 16 01
  20185180.896   -27603634.392 9 -21485059.81748  20185185.416    20185193.7784
  24128729.547    -3925181.132 7  -3034628.05645  24128735.947    24128751.9034
  23836768.437    -7857007.431 8  -6115607.44745  23836768.407    23836778.8304
  21096535.476   -21712818.184 9 -16907323.23847  21096539.301    21096547.4854
  23146542.236    -9622242.093 8  -7479018.51646  23146549.097    23146561.2254
  23110743.973    -9741711.545 8  -7352774.13246  23110746.684    23110757.0584
 00  7 19  2 10 30.0000000  0  6 22 29 06 25 16 01
  20176543.571   -27649038.104 9 -21520439.29748  20176545.523    20176553.6484
  24147603.273    -3826017.022 7  -2957357.63845  24147610.322    24147623.7084
  23839699.487    -7841556.243 8  -6103567.55545  23839709.130    23839718.5634
  21102845.932   -21679667.455 9 -16881491.51547  21102847.556    21102855.9194
  23138111.908    -9666591.811 8  -7513576.71146  23138109.751    23138120.1644
  23093467.867    -9832466.314 8  -7423492.05546  23093476.018    23093486.5344
 00  7 19  2 11  0.0000000  0  6 22 29 06 25 16 01
  20168008.075   -27693897.323 9 -21555394.49948  20168009.203    20168016.9254
  24166506.431    -3726684.892 7  -2879956.20445  24166510.320    24166525.6464
  23842751.000    -7825589.536 8  -6091125.97345  23842746.979    23842757.7894
  21109189.224   -21646321.920 9 -16855507.99047  21109193.054    21109201.2934
  23129766.990    -9710399.961 8  -7547712.91746  23129773.404    23129784.3504
  23076231.538    -9923096.491 8  -7494112.90146  23076229.795    23076240.8214
 00  7 19  2 11 30.0000000  0  6 22 29 06 25 16 01
  20159573.111   -27738211.387 9 -21589924.90948  20159576.143    20159584.3324
  24185438.968    -3627186.042 7  -2802424.96545  24185446.423    24185460.0884
  23845878.100    -7809107.619 8  -6078282.90145  23845884.214    23845894.7604
  21115573.476   -21612782.077 9 -16829373.06347  21115575.604    21115583.8654
  23121538.020    -9753664.764 8  -7581425.70146  23121538.987    23121551.5904
  23059000.635   -10013600.203 8  -7564635.14746  23059006.869    23059018.3544
 00  7 19  2 12  0.0000000  0  6 22 29 06 25 16 01
  20151245.891   -27781980.069 9 -21624030.33748  20151246.902    20151255.4784
  24204405.747    -3527522.046 7  -2724764.97945  24204412.158    24204426.3464
  23849115.702    -7792110.455 8  -6065038.34145  23849118.183    23849129.5274
  21121991.779   -21579047.824 9 -16803086.64847  21121995.153    21122003.1814
  23113408.963    -9796384.985 8  -7614714.14346  23113410.725    23113422.6044
  23041808.416   -10103975.360 8  -7635057.28546  23041810.261    23041819.9834
 00  7 19  2 12 30.0000000  0  6 22 29 06 25 16 01
  20143019.428   -27825202.915 9 -21657710.43848  20143022.058    20143030.5874
  24223403.455    -3427694.155 7  -2646977.29245  24223409.031    24223422.9344
  23852448.065    -7774598.298 8  -6051392.48845  23852451.201    23852461.4144
  21128449.138   -21545119.757 9 -16776649.19947  21128451.306    21128459.5274
  23105382.002    -9838559.140 8  -7647577.09946  23105384.354    23105396.6424
  23024634.436   -10194220.170 8  -7705377.87046  23024636.398    23024646.9734
 00  7 19  2 13  0.0000000  0  6 22 29 06 25 16 01
  20134899.129   -27867878.786 9 -21690964.32648  20134901.200    20134909.4944
  24242439.325    -3327703.887 7  -2569063.05045  24242436.940    24242450.4564
  23855879.783    -7756571.365 8  -6037345.51045  23855881.954    23855892.7274
  21134941.354   -21510997.830 9 -16750060.69347  21134944.885    21134952.6574
  23097460.109    -9880186.227 8  -7680013.76146  23097463.201    23097474.7754
  23007486.998   -10284332.659 8  -7775595.32746  23007489.749    23007499.8224
 00  7 19  2 13 30.0000000  0  6 22 29 06 25 16 01
  20126880.298   -27910006.833 9 -21723791.33448  20126884.176    20126892.7304
  24261488.987    -3227552.721 7  -2491023.40445  24261493.040    24261509.0154
  23859405.732    -7738029.804 8  -6022897.54945  23859409.315    23859420.5564
  21141471.683   -21476682.111 9 -16723321.17347  21141474.833    21141482.7704
  23089640.584    -9921264.671 8  -7712022.91246  23089645.914    23089657.6744
  22990366.960   -10374310.649 8  -7845707.99146  22990367.966    22990377.3454
 00  7 19  2 14  0.0000000  0  6 22 29 06 25 16 01
  20118969.435   -27951586.696 9 -21756191.18348  20118971.860    20118980.4824
  24280576.725    -3127242.191 7  -2412859.69145  24280582.709    24280597.8894
  23863036.393    -7718973.875 8  -6008048.76845  23863034.837    23863046.3744
  21148037.744   -21442173.120 9 -16696431.07047  21148041.574    21148049.7294
  23081933.981    -9961793.467 8  -7743603.75946  23081934.224    23081945.6154
  22973265.264   -10464152.155 8  -7915714.28246  22973270.662    22973280.1004
 00  7 19  2 14 30.0000000  0  6 22 29 06 25 16 01
  20111163.440   -27992618.229 9 -21788163.76648  20111163.832    20111172.2264
  24299699.349    -3026773.780 7  -2334572.84045  24299701.084    24299717.1714
  23866758.775    -7699403.787 8  -5992799.32845  23866759.168    23866769.9184
  21154641.188   -21407470.790 9 -16669390.30247  21154645.084    21154653.4824
  23074323.142   -10001770.757 8  -7774754.84346  23074327.840    23074338.1854
  22956198.794   -10553855.216 8  -7985612.72146  22956200.472    22956210.6544
 00  7 19  2 15  0.0000000  0  6 22 29 06 25 16 01
  20103456.728   -28033100.828 9 -21819708.60648  20103460.199    20103468.7534
  24318849.339    -2926148.859 7  -2256164.11245  24318851.150    24318866.4494
  23870579.601    -7679319.804 8  -5977149.46345  23870582.059    23870591.4854
  21161281.144   -21372575.190 9 -16642198.93347  21161285.544    21161293.6784
  23066823.423   -10041195.686 8  -7805475.55246  23066826.040    23066836.0054
  22939155.737   -10643417.705 8  -8055401.58646  22939157.212    22939168.0374
 00  7 19  2 15 30.0000000  0  6 22 29 06 25 16 01
  20095858.288   -28073033.573 9 -21850824.98448  20095861.188    20095869.5004
  24338027.933    -2825368.819 7  -2177634.50145  24338029.174    24338044.1974
  23874498.325    -7658722.155 8  -5961099.36545  23874501.683    23874511.5594
  21167959.699   -21337486.505 9 -16614857.12047  21167962.884    21167970.7084
  23059428.242   -10080067.028 8  -7835764.86246  23059428.762    23059439.2884
  22922141.090   -10732837.350 8  -8125079.13546  22922141.407    22922151.0704
 00  7 19  2 16  0.0000000  0  6 22 29 06 25 16 01
  20088363.797   -28112415.907 9 -21881512.46648  20088366.981    20088375.2044
  24357238.556    -2724435.288 7  -2098985.22745  24357235.661    24357251.2544
  23878517.291    -7637611.077 8  -5944649.15445  23878518.168    23878529.6114
  21174674.527   -21302205.004 9 -16587365.05747  21174676.938    21174684.7034
  23052133.171   -10118384.053 8  -7865622.26246  23052135.581    23052148.2674
  22905148.080   -10822112.205 8  -8194643.87046  22905152.605    22905162.8204
 00  7 19  2 16 30.0000000  0  6 22 03 06 25 16 01
  20080975.770   -28151247.346 9 -21911770.69148  20080977.483    20080985.6934
  24694893.425    -2071369.41317  -1594556.41355  24694904.113    24694916.3644
  23882629.446    -7615986.836 8  -5927799.10545  23882633.660    23882644.5024
  21181424.187   -21266730.835 9 -16559722.86147  21181427.226    21181435.5254
  23044945.829   -10156144.684 8  -7895046.06546  23044949.425    23044962.4084
  22888191.139   -10911240.337 8  -8264094.30446  22888192.083    22888201.4524
 00  7 19  2 17  0.0000000  0  6 22 03 06 25 16 01
  20073692.859   -28189527.855 9 -21941599.61748  20073693.083    20073701.4274
  24675328.369    -2174202.254 7  -1674685.66845  24675336.383    24675350.5574
  23886841.735    -7593849.895 8  -5910549.55445  23886845.866    23886857.0444
  21188210.509   -21231063.909 9 -16531930.46547  21188214.480    21188222.3754
  23037865.583   -10193348.200 8  -7924035.78646  23037869.752    23037881.3644
  22871257.316   -11000219.639 8  -8333428.74046  22871259.674    22871269.7364
 00  7 19  2 17 30.0000000  0  6 22 03 06 25 16 01
  20066510.577   -28227257.036 9 -21970998.94948  20066513.451    20066521.9294
  24655755.404    -2277101.906 7  -1754866.91745  24655754.095    24655767.3374
  23891150.202    -7571200.712 8  -5892900.83245  23891155.514    23891166.9114
  21195035.192   -21195204.413 9 -16503988.01747  21195038.549    21195046.2074
  23030895.959   -10229993.369 8  -7952590.41546  23030897.729    23030908.7274
  22854356.548   -11089048.035 8  -8402645.59246  22854356.854    22854366.4064
 00  7 19  2 18  0.0000000  0  6 22 03 06 25 16 01
  20059437.567   -28264434.067 9 -21999968.03248  20059438.879    20059447.2044
  24636151.910    -2380065.620 7  -1835098.11745  24636159.582    24636174.5264
  23895557.351    -7548039.661 8  -5874853.25845  23895563.142    23895573.6794
  21201895.197   -21159152.606 9 -16475895.70947  21201899.073    21201906.6704
  23024029.797   -10266079.076 8  -7980709.09446  23024029.958    23024041.9484
  22837481.111   -11177723.325 8  -8471743.12746  22837482.577    22837492.1944
 00  7 19  2 18 30.0000000  0  6 22 03 06 25 16 01
  20052466.682   -28301058.385 9 -22028506.42648  20052469.631    20052477.4554
  24616544.284    -2483090.812 7  -1915377.19845  24616555.135    24616569.7554
  23900072.721    -7524367.029 8  -5856407.03745  23900067.489    23900079.2614
  21208792.489   -21122908.664 9 -16447653.67247  21208796.050    21208803.7464
  23017270.404   -10301604.352 8  -8008391.05446  23017270.856    23017281.9394
  22820636.568   -11266243.571 8  -8540719.86846  22820636.806    22820646.4144
 00  7 19  2 19  0.0000000  0  6 22 03 06 25 16 01
  20045603.457   -28337129.744 9 -22056613.94448  20045605.624    20045613.2784
  24596946.216    -2586175.104 7  -1995702.34945  24596939.214    24596952.5164
  23904664.498    -7500183.122 8  -5837562.43445  23904669.775    23904680.8594
  21215728.199   -21086472.666 9 -16419262.00147  21215729.711    21215737.2724
  23010614.443   -10336568.117 8  -8035635.49746  23010616.484    23010628.9024
  22803813.533   -11354606.735 8  -8609574.18346  22803821.519    22803831.8174
 00  7 19  2 19 30.0000000  0  6 22 03 06 25 16 01
  20038842.862   -28372648.341 9 -22084290.73648  20038846.292    20038854.4914
  24577310.822    -2689315.717 7  -2076071.37245  24577311.651    24577325.9464
  23909359.956    -7475488.528 8  -5818319.90845  23909369.299    23909380.3944
  21222695.178   -21049844.917 9 -16390720.91647  21222699.389    21222707.2684
  23004068.826   -10370969.158 8  -8062441.47346  23004070.907    23004081.4014
  22787033.873   -11442810.476 8  -8678304.31146  22787037.479    22787047.2424
 00  7 19  2 20  0.0000000  0  6 22 03 06 25 16 01
  20032190.915   -28407613.569 9 -22111536.32848  20032192.806    20032200.7334
  24557658.749    -2792509.967 7  -2156482.23444  24557670.862    24557687.9364
  23914162.021    -7450283.700 8  -5798679.76845  23914165.802    23914176.1914
  21229703.907   -21013025.449 9 -16362030.43747  21229706.157    21229714.1664
  22997629.937   -10404806.706 8  -8088808.36046  22997631.961    22997642.3544
  22770275.018   -11530852.766 8  -8746908.61046  22770282.583    22770293.1834
 00  7 19  2 20 30.0000000  0  6 22 03 06 25 16 01
  20025643.418   -28442024.837 9 -22138350.27948  20025644.472    20025652.1324
  24538035.786    -2895755.014 7  -2236932.66244  24538025.465    24538040.7944
  23919052.786    -7424569.142 8  -5778642.42445  23919058.958    23919069.7894
  21236745.872   -20976014.144 9 -16333190.46347  21236749.068    21236757.2724
  22991298.132   -10438079.267 8  -8114735.00946  22991300.002    22991309.9744
  22753562.117   -11618731.600 8  -8815385.54046  22753560.208    22753570.4064
 00  7 19  2 21  0.0000000  0  6 22 03 06 25 16 01
  20019199.919   -28475881.749 9 -22164732.25448  20019201.526    20019209.6264
  24518354.008    -2999048.370 7  -2317420.74844  24518369.937    24518384.3064
  23924042.663    -7398345.375 8  -5758208.28645  23924049.191    23924060.2094
  21243823.885   -20938811.155 9 -16304201.12247  21243828.485    21243836.6234
  22985074.630   -10470786.568 8  -8140221.20246  22985075.999    22985086.7454
  22736865.307   -11706444.762 8  -8883733.37346  22736868.451    22736878.6894
 00  7 19  2 21 30.0000000  0  6 22 03 06 25 16 01
  20012863.216   -28509184.290 9 -22190682.26048  20012864.108    20012872.3194
  24498708.002    -3102387.463 7  -2397944.43844  24498705.268    24498719.0174
  23929130.617    -7371612.811 8  -5737377.72345  23929136.585    23929147.1794
  21250942.094   -20901416.624 9 -16275062.53847  21250944.788    21250952.3314
  22978957.804   -10502927.234 8  -8165265.86346  22978960.171    22978970.6944
  22720204.341   -11793990.080 8  -8951950.45746  22720209.653    22720219.3184
 00  7 19  2 22  0.0000000  0  6 22 03 06 25 16 01
  20006630.784   -28541932.508 9 -22216200.33448  20006632.397    20006640.4314
  24479019.052    -3205769.120 7  -2478501.32245  24479031.666    24479045.9044
  23934316.240    -7344372.229 8  -5716151.28345  23934321.048    23934330.6564
  21258095.238   -20863830.687 9 -16245774.80447  21258097.072    21258104.8574
  22972951.382   -10534500.185 8  -8189868.15446  22972951.769    22972962.6324
  22703575.820   -11881365.548 8  -9020035.15946  22703582.783    22703592.8374
 00  7 19  2 22 30.0000000  0  6 22 03 06 25 16 01
  20000505.148   -28574126.021 9 -22241286.16148  20000506.457    20000514.3204
  24459351.691    -3309190.784 7  -2559089.37945  24459351.900    24459365.5844
  23939596.648    -7316623.997 8  -5694529.28645  23939600.100    23939611.6034
  21265281.228   -20826052.975 9 -16216337.63047  21265285.951    21265293.4794
  22967047.862   -10565504.835 8  -8214027.60546  22967050.893    22967062.3384
  22686986.513   -11968569.038 8  -9087985.91046  22686988.503    22686997.7074
 00  7 19  2 23  0.0000000  0  6 22 03 06 25 16 01
  19994483.334   -28605764.206 9 -22265939.27448  19994485.602    19994494.0154
  24439666.136    -3412650.030 7  -2639706.70945  24439663.626    24439677.4374
  23944975.589    -7288368.907 8  -5672512.32445  23944976.318    23944987.4494
  21272509.106   -20788084.334 9 -16186751.68347  21272510.926    21272518.7814
  22961258.350   -10595939.967 8  -8237743.24546  22961260.716    22961271.1684
  22670419.501   -12055598.152 8  -9155800.71846  22670426.364    22670436.4464
 00  7 19  2 23 30.0000000  0  6 22 03 06 25 16 01
  19988568.552   -28636846.983 9 -22290159.60048  19988570.732    19988579.3694
  24419967.764    -3516144.286 7  -2720351.30645  24419969.267    24419983.0234
  23950445.555    -7259607.377 8  -5650100.75245  23950450.024    23950461.1344
  21279768.706   -20749924.661 9 -16157016.87947  21279772.606    21279780.2154
  22955573.278   -10625805.014 8  -8261014.68946  22955576.798    22955588.0994
  22653899.989   -12142451.013 8  -9223478.20346  22653899.475    22653909.5634
 00  7 19  2 24  0.0000000  0  6 22 03 06 25 16 01
  19982759.735   -28667374.444 9 -22313947.21448  19982761.654    19982769.5204
  24400272.476    -3619670.442 7  -2801020.77945  24400269.060    24400282.1284
  23956016.778    -7230340.073 8  -5627295.02445  23956019.736    23956030.6484
  21287065.669   -20711574.071 9 -16127133.30247  21287070.528    21287078.1314
  22950002.786   -10655098.993 8  -8283841.12946  22950002.948    22950013.5134
  22637401.323   -12229125.398 8  -9291016.62546  22637405.345    22637414.9674
 00  7 19  2 24 30.0000000  0  6 22 03 06 25 16 01
  19977056.074   -28697346.700 9 -22337302.20948  19977058.070    19977066.4444
  24380563.993    -3723226.021 7  -2881713.14445  24380563.503    24380575.6674
  23961684.031    -7200567.496 8  -5604095.61545  23961685.726    23961695.9484
  21294400.319   -20673032.464 9 -16097100.88847  21294404.427    21294412.7424
  22944532.973   -10683821.084 8  -8306221.97546  22944537.377    22944547.6364
  22620943.998   -12315618.979 8  -9358414.17046  22620947.181    22620957.0624
 00  7 19  2 25  0.0000000  0  6 22 03 06 25 16 01
  19971459.072   -28726763.258 9 -22360224.19048  19971460.289    19971468.5994
  24360848.434    -3826808.496 7  -2962426.52545  24360852.574    24360865.5804
  23967439.884    -7170290.586 8  -5580503.24245  23967446.778    23967457.5594
  21301773.537   -20634299.938 9 -16066919.70847  21301775.116    21301783.2274
  22939180.924   -10711970.555 8  -8328156.61846  22939180.571    22939190.9224
  22604517.752   -12401929.741 8  -9425669.26046  22604522.153    22604532.9494
 00  7 19  2 25 30.0000000  0  6 22 03 06 25 16 01
  19965965.796   -28755623.769 9 -22382712.86848  19965968.089    19965976.5334
  24341131.842    -3930414.673 7  -3043158.38545  24341136.290    24341148.2734
  23973300.693    -7139509.933 8  -5556518.29345  23973303.763    23973314.7244
  21309176.393   -20595376.576 9 -16036589.82147  21309181.996    21309190.5434
  22933928.270   -10739546.674 8  -8349644.47446  22933931.934    22933942.2124
  22588131.015   -12488055.341 8  -9492780.05646  22588133.191    22588143.6844
 00  7 19  2 26  0.0000000  0  6 22 03 06 25 16 01
  19960579.841   -28783928.215 9 -22404768.22948  19960581.885    19960590.3064
  24321411.404    -4034042.324 7  -3123906.97545  24321415.629    24321428.3744
  23979254.293    -7108226.264 8  -5532141.39545  23979256.466    23979268.2474
  21316623.469   -20556262.998 9 -16006111.71647  21316624.804    21316633.0684
  22928791.741   -10766548.589 8  -8370684.91746  22928793.518    22928804.8244
  22571773.038   -12573993.544 8  -9559744.84446  22571780.150    22571789.6614
 00  7 19  2 26 30.0000000  0  6 22 03 06 25 16 01
  19955298.694   -28811676.931 9 -22426390.54148  19955301.363    19955309.8804
  24301697.879    -4137688.429 7  -3204669.92445  24301692.408    24301705.1344
  23985302.853    -7076440.195 8  -5507373.01545  23985306.294    23985317.5914
  21324100.289   -20516958.733 9 -15975485.02947  21324104.417    21324112.0704
  22923764.514   -10792975.587 8  -8391277.35146  22923764.490    22923775.9614
  22555457.179   -12659742.262 8  -9626561.96546  22555461.551    22555472.3834
 00  7 19  2 27  0.0000000  0  6 22 03 06 25 16 01
  19950124.445   -28838870.044 9 -22447579.93948  19950126.837    19950134.9604
  24281957.282    -4241350.518 7  -3285445.34645  24281965.303    24281979.7554
  23991445.624    -7044152.556 8  -5482213.81345  23991450.059    23991461.2574
  21331616.391   -20477463.663 9 -15944709.65647  21331620.141    21331627.7474
  22918846.138   -10818827.058 8  -8411421.33346  22918845.870    22918856.0554
  22539179.147   -12745299.260 8  -9693229.69546  22539181.330    22539191.0864
 00  7 19  2 27 30.0000000  0  6 22 03 06 25 16 01
  19945056.419   -28865507.076 9 -22468336.02348  19945058.070    19945066.0174
  24262229.112    -4345025.635 7  -3366230.89145  24262235.721    24262249.9594
  23997681.468    -7011364.158 8  -5456664.39645  23997689.141    23997700.3304
  21339168.254   -20437778.052 9 -15913785.80747  21339172.038    21339179.5794
  22914031.096   -10844102.479 8  -8431116.44446  22914036.538    22914047.5814
  22522932.873   -12830662.536 8  -9759746.48246  22522937.698    22522946.7854
 00  7 19  2 28  0.0000000  0  6 22 03 06 25 16 01
  19940091.767   -28891587.859 9 -22488658.66348  19940094.733    19940103.1674
  24242495.476    -4448710.797 7  -3447024.26345  24242506.105    24242520.4754
  24004017.494    -6978075.710 8  -5430725.35045  24004024.006    24004035.7494
  21346756.383   -20397901.983 9 -15882713.54747  21346760.110    21346767.9764
  22909338.014   -10868800.828 8  -8450361.87746  22909335.667    22909347.1464
  22506731.040   -12915829.824 8  -9826110.54746  22506730.593    22506740.1954
 00  7 19  2 28 30.0000000  0  6 22 03 06 25 16 01
  19935235.717   -28917112.580 9 -22508548.02848  19935237.845    19935245.8024
  24222783.763    -4552403.350 7  -3527823.40245  24222774.186    24222786.3984
  24010445.426    -6944287.957 8  -5404397.21945  24010453.499    24010464.0264
  21354380.735   -20357835.595 9 -15851492.99747  21354384.202    21354392.2184
  22904740.297   -10892921.657 8  -8469157.31346  22904745.854    22904757.4054
  22490557.813   -13000798.767 8  -9892320.03346  22490561.370    22490570.7714
 00  7 19  2 29  0.0000000  0  6 22 03 06 25 16 01
  19930484.969   -28942081.711 9 -22528004.46648  19930486.160    19930494.1634
  24203037.193    -4656100.553 8  -3608626.18545  24203041.050    24203053.6214
  24016970.686    -6910001.737 7  -5377680.66645  24016976.639    24016989.4044
  21362041.767   -20317579.210 9 -15820124.39147  21362044.834    21362052.8234
  22900264.199   -10916464.330 8  -8487502.23946  22900265.536    22900277.6644
  22474427.429   -13085567.184 8  -9958373.29346  22474430.007    22474439.0754
 00  7 19  2 29 30.0000000  0  6 22 03 06 25 16 01
  19925838.753   -28966495.232 9 -22547027.96848  19925840.458    19925848.6154
  24183302.114    -4759799.611 8  -3689430.46145  24183308.393    24183320.0714
  24023595.320    -6875218.048 7  -5350576.48245  24023596.731    24023608.2634
  21369738.731   -20277132.728 9 -15788607.66547  21369741.699    21369749.3554
  22895891.156   -10939428.137 8  -8505396.06846  22895895.193    22895908.6104
  22458337.140   -13170132.750 8 -10024268.47346  22458337.834    22458348.6264
 00  7 19  2 30  0.0000000  0  6 22 03 06 25 16 01
  19921298.326   -28990353.009 9 -22565618.42448  19921300.417    19921308.4954
  24163574.778    -4863497.775 8  -3770233.98245  24163573.833    24163587.2594
  24030304.560    -6839937.735 8  -5323085.31145  24030309.511    24030321.6964
  21377470.784   -20236496.168 9 -15756942.81847  21377474.296    21377482.1714
  22891635.020   -10961813.077 8  -8522838.83346  22891637.008    22891647.9774
  22442280.266   -13254493.366 8 -10090003.94646  22442284.151    22442294.7064
 00  7 19  2 30 30.0000000  0  6 22 03 06 25 16 01
  19916864.869   -29013654.903 9 -22583775.72748  19916866.126    19916874.2664
  24143843.675    -4967192.383 8  -3851034.74045  24143842.130    24143854.0124
  24037120.456    -6804161.795 8  -5295207.94545  24037118.657    24037130.3684
  21385238.761   -20195669.749 9 -15725130.03147  21385243.512    21385251.2904
  22887484.811   -10983618.046 8  -8539829.66146  22887486.512    22887496.7534
  22426267.907   -13338646.885 8 -10155578.05446  22426270.774    22426280.5574
 00  7 19  2 31  0.0000000  0  6 22 03 06 25 16 01
  19912534.892   -29036401.161 9 -22601500.06048  19912537.526    19912546.0754
  24124094.797    -5070880.734 7  -3931830.59845  24124109.780    24124123.0394
  24044016.540    -6767891.244 8  -5266945.16245  24044019.915    24044031.6614
  21393043.944   -20154653.129 9 -15693169.04247  21393048.620    21393056.7494
  22883442.770   -11004842.788 8  -8556368.39446  22883446.943    22883457.9944
  22410293.744   -13422590.967 8 -10220988.96147  22410296.743    22410306.5684
 00  7 19  2 31 30.0000000  0  6 22 03 06 25 16 01
  19908311.753   -29058592.429 9 -22618791.93748  19908314.552    19908322.9074
  24104374.485    -5174559.831 8  -4012619.25845  24104380.766    24104393.5054
  24051012.521    -6731126.815 8  -5238297.54245  24051015.446    24051027.4814
  21400887.283   -20113446.612 9 -15661060.08347  21400889.903    21400898.4794
  22879518.104   -11025486.875 8  -8572454.67246  22879519.799    22879528.8584
  22394360.644   -13506323.279 8 -10286234.83847  22394362.851    22394373.1164
 00  7 19  2 32  0.0000000  0  6 22 03 06 25 16 01
  19904195.739   -29080228.753 9 -22635651.39348  19904197.534    19904205.7674
  24084648.065    -5278226.829 8  -4093398.52545  24084653.252    24084665.6304
  24058100.330    -6693869.565 8  -5209265.89445  24058106.319    24058116.7484
  21408764.294   -20072050.053 9 -15628803.02647  21408767.496    21408775.7724
  22875697.838   -11045549.690 8  -8588088.02046  22875701.891    22875711.4644
  22378469.109   -13589841.582 8 -10351313.96647  22378469.582    22378479.7664
 00  7 19  2 32 30.0000000  0  6 22 03 06 25 16 01
  19900183.562   -29101309.976 9 -22652078.30148  19900185.934    19900194.2164
  24064929.019    -5381878.923 8  -4174166.16945  24064929.140    24064940.7514
  24065287.730    -6656120.260 8  -5179850.86045  24065290.078    24065300.7374
  21416676.805   -20030463.793 9 -15596398.15847  21416680.970    21416689.3234
  22871992.556   -11065030.998 8  -8603268.21546  22871994.382    22872005.5074
  22362615.594   -13673143.612 8 -10416224.56047  22362618.022    22362627.8234
 00  7 19  2 33  0.0000000  0  6 22 03 06 25 16 01
  19896276.862   -29121836.179 9 -22668072.73248  19896280.158    19896287.9904
  24045194.348    -5485513.163 8  -4254919.90145  24045207.029    24045219.4194
  24072572.110    -6617879.870 8  -5150053.14045  24072567.095    24072577.7744
  21424628.397   -19988687.416 9 -15563845.15347  21424630.892    21424639.2254
  22868395.082   -11083930.285 8  -8617994.89646  22868398.436    22868409.4494
  22346806.083   -13756227.281 8 -10480965.00147  22346808.021    22346817.3154
 00  7 19  2 33 30.0000000  0  6 22 03 06 25 16 01
  19892476.871   -29141807.742 9 -22683634.97948  19892479.648    19892487.2624
  24025488.413    -5589127.037 8  -4335657.78245  24025489.408    24025502.3264
  24079931.670    -6579149.612 8  -5119873.71145  24079936.687    24079947.8964
  21432612.974   -19946720.998 9 -15531144.06747  21432616.908    21432625.2754
  22864910.094   -11102247.277 8  -8632267.84646  22864912.334    22864923.6834
  22331034.121   -13839090.308 8 -10545533.50347  22331038.474    22331049.1384
 00  7 19  2 34  0.0000000  0  6 22 03 06 25 16 01
  19888782.091   -29161225.435 9 -22698765.63948  19888784.374    19888792.4414
  24005764.865    -5692717.738 8  -4416377.57945  24005777.415    24005789.6724
  24087391.544    -6539930.413 7  -5089313.24745  24087399.320    24087411.1824
  21440636.957   -19904565.236 9 -15498295.43947  21440639.115    21440647.0514
  22861533.681   -11119981.503 8  -8646086.68846  22861537.524    22861549.0294
  22315307.707   -13921730.336 8 -10609928.24147  22315312.938    22315322.6344
 00  7 19  2 34 30.0000000  0  6 22 03 06 25 16 01
  19885193.109   -29180089.405 9 -22713464.81648  19885194.924    19885203.0074
  23986073.846    -5796282.063 8  -4497076.87445  23986070.180    23986082.7494
  24094953.608    -6500223.154 8  -5058372.51445  24094955.415    24094966.4464
  21448694.488   -19862219.907 9 -15465299.09447  21448697.247    21448705.3004
  22858273.291   -11137132.639 8  -8659451.16946  22858273.906    22858284.6294
  22299631.932   -14004145.309 8 -10674147.63147  22299630.233    22299639.7494
 00  7 19  2 35  0.0000000  0  6 22 03 06 25 16 01
  19881707.833   -29198399.462 9 -22727732.37148  19881710.417    19881718.4054
  23966356.278    -5899817.453 7  -4577753.56545  23966367.595    23966379.6524
  24102599.859    -6460029.128 8  -5027052.49145  24102603.879    24102614.6824
  21456785.110   -19819684.808 9 -15432154.87347  21456791.112    21456799.0614
  22855118.299   -11153700.531 8  -8672361.18746  22855121.225    22855131.7534
  22283986.899   -14086332.780 8 -10738189.72747  22283989.386    22283999.2744
 00  7 19  2 35 30.0000000  0  6 22 03 06 25 16 01
  19878326.776   -29216155.815 9 -22741568.47348  19878331.475    19878339.5414
  23946677.592    -6003320.924 8  -4658405.40845  23946671.483    23946683.2124
  24110339.722    -6419349.486 8  -4995354.03745  24110345.600    24110355.3274
  21464919.327   -19776959.738 9 -15398862.62547  21464921.583    21464929.6754
  22852078.969   -11169684.858 8  -8684816.48546  22852080.391    22852089.3554
  22268391.568   -14168290.361 8 -10802052.68747  22268394.591    22268403.9074
 00  7 19  2 36  0.0000000  0  6 22 03 06 25 16 01
  19875056.516   -29233359.240 9 -22754973.72548  19875057.848    19875066.0404
  23926974.200    -6106789.676 8  -4739030.17545  23926981.113    23926993.9074
  24118172.854    -6378185.145 8  -4963277.89745  24118179.503    24118189.4214
  21473085.168   -19734045.321 9 -15365422.83247  21473087.788    21473096.1634
  22849147.407   -11185085.298 8  -8696816.81346  22849150.393    22849158.5324
  22252838.596   -14250016.018 8 -10865734.94347  22252842.426    22252852.1784
 00  7 19  2 36 30.0000000  0  6 22 03 06 25 16 01
  19871888.207   -29250010.345 9 -22767948.59348  19871889.262    19871897.4174
  23907296.840    -6210220.798 8  -4819625.64145  23907299.372    23907311.9634
  24126106.197    -6336537.192 8  -4930824.92945  24126104.372    24126115.3674
  21481286.312   -19690941.405 9 -15331835.37547  21481290.153    21481298.4044
  22846326.931   -11199901.573 8  -8708361.95946  22846329.971    22846339.6914
  22237333.334   -14331507.127 8 -10929234.41747  22237334.406    22237344.3574
 00  7 19  2 37  0.0000000  0  6 22 03 06 25 16 01
  19868824.843   -29266109.344 9 -22780493.25548  19868825.782    19868833.9734
  23887620.194    -6313611.524 8  -4900189.64545  23887624.362    23887635.2704
  24134114.821    -6294407.015 8  -4897996.23845  24134121.556    24134132.7124
  21489526.041   -19647648.041 9 -15298100.30247  21489528.965    21489536.7954
  22843621.209   -11214133.564 8  -8719451.80746  22843622.130    22843632.1184
  22221870.164   -14412761.656 8 -10992549.56147  22221872.298    22221882.3414
 00  7 19  2 37 30.0000000  0  6 22 03 06 25 16 01
  19865866.554   -29281656.134 9 -22792607.63548  19865867.250    19865875.1264
  23867958.300    -6416959.133 7  -4980720.02145  23867957.813    23867968.7164
  24142233.799    -6251795.441 8  -4864792.39545  24142230.974    24142240.8254
  21497799.603   -19604165.088 9 -15264217.49947  21497803.655    21497811.5004
  22841019.544   -11227781.025 8  -8730086.18046  22841024.205    22841034.7104
  22206453.402   -14493777.380 8 -11055678.61347  22206455.102    22206465.0754
 00  7 19  2 38  0.0000000  0  6 22 03 06 25 16 01
  19863012.364   -29296651.319 9 -22804292.19048  19863013.687    19863021.4494
  23848293.903    -6520260.609 8  -5061214.46845  23848300.086    23848311.1164
  24150425.855    -6208703.908 8  -4831214.54245  24150429.674    24150441.1814
  21506112.503   -19560492.297 9 -15230186.77247  21506114.023    21506121.9774
  22838533.942   -11240843.953 8  -8740265.06046  22838537.928    22838548.0194
  22191083.875   -14574551.660 8 -11118619.53947  22191085.473    22191094.9344
 00  7 19  2 38 30.0000000  0  6 22 03 06 25 16 01
  19860261.902   -29311095.538 9 -22815547.41248  19860265.004    19860273.2124
  23828640.554    -6623513.087 8  -5141670.73245  23828651.297    23828663.1554
  24158716.341    -6165133.624 8  -4797263.63945  24158721.399    24158732.2954
  21514456.485   -19516629.982 9 -15196008.36147  21514460.781    21514469.1804
  22836163.688   -11253322.431 8  -8749988.51846  22836162.717    22836174.8494
  22175759.087   -14655082.435 8 -11181370.71547  22175760.648    22175769.3694
 00  7 19  2 39  0.0000000  0  6 22 03 06 25 16 01
  19857618.421   -29324989.542 9 -22826373.89048  19857621.076    19857629.1314
  23809015.323    -6726713.622 8  -5222086.54145  23809013.386    23809024.3284
  24167103.572    -6121085.531 7  -4762940.43145  24167103.139    24167113.8024
  21522839.089   -19472578.238 9 -15161682.35647  21522843.290    21522851.7514
  22833892.065   -11265215.799 8  -8759256.06946  22833899.433    22833911.6124
  22160480.152   -14735367.326 8 -11243930.30347  22160482.526    22160491.5554
 00  7 19  2 39 30.0000000  0  6 22 03 06 25 16 01
  19855079.044   -29338333.438 9 -22836771.71848  19855081.900    19855089.6994
  23789382.252    -6829859.374 8  -5302459.63845  23789384.742    23789396.1694
  24175569.684    -6076561.031 8  -4728246.00845  24175576.703    24175587.2454
  21531259.408   -19428337.098 9 -15127208.76547  21531262.208    21531270.4974
  22831748.305   -11276524.299 8  -8768067.84546  22831747.683    22831760.0094
  22145251.471   -14815403.902 8 -11306296.40747  22145252.385    22145262.1954
 00  7 19  2 40  0.0000000  0  6 22 03 06 25 16 01
  19852644.254   -29351127.564 9 -22846741.14448  19852647.195    19852655.0864
  23769762.812    -6932947.891 8  -5382788.12545  23769768.345    23769778.8154
  24184136.752    -6031561.239 8  -4693181.20545  24184139.439    24184150.1984
  21539713.583   -19383906.497 9 -15092587.54947  21539717.181    21539725.4864
  22829704.410   -11287247.999 8  -8776423.93346  22829707.718    22829719.0504
  22130066.626   -14895189.898 8 -11368467.23047  22130069.489    22130079.0964
 00  7 19  2 40 30.0000000  0  6 22 03 06 25 16 01
  19850315.365   -29363372.437 9 -22856282.58448  19850317.184    19850324.8934
  23750149.757    -7035975.883 7  -5463069.44845  23750160.994    23750173.0344
  24192784.668    -5986087.435 8  -4657747.01045  24192792.615    24192803.4584
  21548202.046   -19339286.395 9 -15057818.66447  21548207.916    21548216.1464
  22827777.203   -11297386.663 8  -8784324.15446  22827778.128    22827788.7224
  22114928.547   -14974723.178 8 -11430441.15547  22114934.579    22114944.2384
 00  7 19  2 41  0.0000000  0  6 22 03 06 25 16 01
  19848089.285   -29375068.997 9 -22865396.76948  19848091.414    19848099.3304
  23730552.267    -7138940.279 7  -5543301.22445  23730567.665    23730579.3524
  24201535.434    -5940140.981 8  -4621944.53545  24201536.011    24201547.0404
  21556730.072   -19294476.748 9 -15022902.07447  21556734.852    21556743.4874
  22825955.962   -11306940.508 8  -8791768.68446  22825959.451    22825970.6184
  22099846.061   -15054001.310 8 -11492216.25947  22099848.690    22099858.4024
 00  7 19  2 41 30.0000000  0  6 22 03 06 25 16 01
  19845967.386   -29386217.913 9 -22874084.20448  19845969.773    19845977.7344
  23710989.947    -7241838.274 8  -5623481.28745  23710986.173    23710998.2114
  24210355.235    -5893723.311 8  -4585774.91245  24210368.347    24210379.2134
  21565290.357   -19249477.464 9 -14987837.71747  21565297.800    21565306.4734
  22824248.210   -11315909.323 8  -8798757.35346  22824253.706    22824264.4334
  22084809.346   -15133022.047 8 -11553790.78647  22084810.710    22084820.4244
 00  7 19  2 42  0.0000000  0  6 22 03 06 25 16 01
  19843949.245   -29396819.359 9 -22882345.05148  19843952.176    19843960.1444
  23691409.128    -7344667.187 8  -5703607.51445  23691420.014    23691431.1474
  24219292.798    -5846835.630 8  -4549239.04845  24219291.707    24219301.6044
  21573893.650   -19204288.933 9 -14952625.89847  21573897.274    21573905.4384
  22822655.048   -11324293.467 8  -8805290.43146  22822658.054    22822668.2604
  22069819.450   -15211782.877 8 -11615162.80747  22069823.110    22069833.2464
 00  7 19  2 42 30.0000000  0  6 22 03 06 25 16 01
  19842036.238   -29406873.745 9 -22890179.61548  19842038.986    19842046.7124
  23671865.661    -7447423.876 8  -5783677.49045  23671864.745    23671876.0624
  24228303.342    -5799479.258 8  -4512337.93345  24228303.570    24228313.3944
  21582530.098   -19158911.080 9 -14917266.56047  21582532.795    21582540.9904
  22821170.952   -11332092.654 8  -8811367.70546  22821174.013    22821183.6014
  22054882.573   -15290281.650 8 -11676330.60647  22054885.533    22054895.3214
 00  7 19  2 43  0.0000000  0  6 22 03 06 25 16 01
  19840227.680   -29416381.845 9 -22897588.50148  19840229.678    19840237.1954
  23652316.409    -7550105.685 8  -5863689.12145  23652325.050    23652336.0174
  24237399.601    -5751655.582 7  -4475072.67345  24237403.462    24237414.7444
  21591200.533   -19113343.895 9 -14881759.68647  21591203.759    21591212.3824
  22819798.814   -11339307.632 8  -8816989.73746  22819800.368    22819811.0804
  22039995.666   -15368515.943 8 -11737292.32347  22039997.939    22040007.8014
 00  7 19  2 43 30.0000000  0  6 22 03 06 25 16 01
  19838520.537   -29425344.712 9 -22904572.53448  19838523.807    19838531.9064
  23632794.056    -7652709.642 8  -5943640.10545  23632800.791    23632811.7054
  24246592.754    -5703365.744 7  -4437444.20945  24246592.018    24246602.3424
  21599908.472   -19067587.288 9 -14846105.21147  21599911.127    21599919.5794
  22818537.741   -11345937.752 8  -8822156.04246  22818539.474    22818549.7244
  22025157.662   -15446483.487 8 -11798046.20147  22025161.383    22025170.9764
 00  7 19  2 44  0.0000000  0  6 22 03 06 25 16 01
  19836920.605   -29433762.986 9 -22911132.21348  19836922.450    19836930.0024
  23613284.934    -7755232.611 8  -6023527.95445  23613290.055    23613302.1014
  24255865.832    -5654611.353 8  -4399453.76845  24255871.004    24255880.6904
  21608651.853   -19021640.949 9 -14810302.89047  21608654.502    21608662.7404
  22817387.080   -11351983.550 8  -8826867.01146  22817388.712    22817399.0884
  22010371.556   -15524181.775 8 -11858590.26047  22010375.590    22010385.3364
 00  7 19  2 44 30.0000000  0  6 22 03 06 25 16 01
  19835421.691   -29441636.970 9 -22917267.77348  19835423.719    19835431.5034
  23593795.494    -7857671.799 8  -6103350.50545  23593796.869    23593808.6944
  24265234.618    -5605393.860 8  -4361102.43545  24265235.593    24265246.7574
  21617431.075   -18975505.266 9 -14774353.03047  21617433.818    21617442.1124
  22816346.992   -11357445.389 8  -8831122.96246  22816349.883    22816359.2524
  21995638.025   -15601608.622 8 -11918922.81147  21995641.902    21995651.4444
 00  7 19  2 45  0.0000000  0  6 22 03 06 25 16 01
  19834029.000   -29448967.200 9 -22922979.62448  19834028.818    19834036.7754
  23574312.833    -7960024.304 8  -6183105.51845  23574319.424    23574331.3644
  24274686.288    -5555714.507 8  -4322391.23345  24274689.325    24274700.5924
  21626247.018   -18929180.061 9 -14738255.47947  21626249.311    21626257.0864
  22815420.009   -11362322.852 8  -8834923.55746  22815421.600    22815431.2344
  21980957.540   -15678761.761 8 -11979042.07647  21980960.206    21980969.6134
 00  7 19  2 45 30.0000000  0  6 22 03 06 25 16 01
  19832735.335   -29455754.556 9 -22928268.46448  19832737.242    19832745.3294
  23554852.861    -8062287.134 8  -6262790.64645  23554860.260    23554870.8364
  24284227.356    -5505574.817 8  -4283321.33245  24284230.081    24284242.5304
  21635093.952   -18882665.589 9 -14702010.45747  21635100.286    21635108.5004
  22814600.733   -11366617.227 8  -8838269.78446  22814604.416    22814615.5664
  21966326.199   -15755638.711 8 -12038946.14347  21966330.668    21966339.9494
 00  7 19  2 46  0.0000000  0  6 22 03 06 25 16 01
  19831546.389   -29462000.147 9 -22933135.14648  19831548.789    19831556.6724
  23535419.669    -8164457.443 8  -6342403.72245  23535417.576    23535429.0244
  24293849.641    -5454976.184 7  -4243893.77045  24293860.107    24293869.4414
  21643984.501   -18835961.484 9 -14665617.67347  21643987.687    21643996.1664
  22813896.256   -11370327.948 8  -8841161.23946  22813898.019    22813908.7814
  21951750.023   -15832237.212 8 -12098633.22047  21951754.039    21951763.5424
 00  7 19  2 46 30.0000000  0  6 22 03 06 25 16 01
  19830461.382   -29467704.731 9 -22937580.26748  19830463.088    19830471.0624
  23515979.406    -8266532.452 8  -6421942.53745  23515993.054    23516004.3304
  24303575.046    -5403920.041 8  -4204109.70745  24303575.684    24303586.4204
  21652905.166   -18789067.659 9 -14629077.04847  21652910.765    21652919.7134
  22813300.535   -11373455.528 8  -8843598.30646  22813303.022    22813314.1604
  21937227.240   -15908555.004 8 -12158101.56647  21937231.687    21937240.8084
 00  7 19  2 47  0.0000000  0  6 22 03 06 25 16 01
  19829477.096   -29472868.611 9 -22941604.06048  19829480.529    19829488.4424
  23496581.232    -8368509.206 8  -6501404.77145  23496587.204    23496598.6574
  24313373.739    -5352407.957 8  -4163970.40345  24313378.083    24313388.5874
  21661867.778   -18741984.625 9 -14592388.99347  21661870.831    21661879.4674
  22812815.658   -11376000.563 8  -8845581.42846  22812818.292    22812829.5844
  21922759.761   -15984589.568 8 -12217349.22047  21922762.634    21922772.0704
 00  7 19  2 47 30.0000000  0  6 22 03 06 25 16 01
  19828598.518   -29477492.416 9 -22945207.02148  19828600.484    19828608.6744
  23477192.593    -8470384.696 8  -6580788.12845  23477201.142    23477211.6574
  24323265.485    -5300441.464 8  -4123477.02445  24323267.214    24323278.4674
  21670864.268   -18694711.801 9 -14555553.04547  21670866.902    21670875.1184
  22812443.201   -11377963.077 8  -8847110.64846  22812445.341    22812456.9374
  21908343.364   -16060338.384 8 -12276374.20247  21908347.807    21908356.9314
 00  7 19  2 48  0.0000000  0  7 22 03 19 06 25 16 01
  19827821.679   -29481577.337 9 -22948390.05148  19827823.155    19827831.3444
  23457829.738    -8572155.695 8  -6660090.09145  23457835.057    23457845.5784
  24666396.283     -225385.99217   -158936.82455  24666402.954    24666417.0564
  24333233.650    -5248022.043 8  -4082630.68545  24333241.605    24333252.1894
  21679895.626   -18647249.447 9 -14518569.40747  21679898.589    21679907.1344
  22812180.170   -11379343.425 8  -8848186.24446  22812182.865    22812193.4184
  21893985.999   -16135799.426 8 -12335174.95747  21893987.912    21893996.7174
 00  7 19  2 48 30.0000000  0  7 22 03 19 06 25 16 01
  19827146.906   -29485124.451 9 -22951154.02148  19827148.096    19827156.1164
  23438487.589    -8673819.509 8  -6739308.51045  23438489.042    23438499.5294
  24650723.500     -307757.325 7   -223122.21545  24650727.827    24650740.4224
  24343300.851    -5195151.197 8  -4041432.60345  24343303.458    24343312.6784
  21688965.185   -18599597.827 9 -14481438.29647  21688966.612    21688974.7874
  22812030.688   -11380142.178 8  -8848808.61646  22812030.776    22812040.9344
  21879683.244   -16210970.358 8 -12393749.65247  21879683.475    21879692.7934
 00  7 19  2 49  0.0000000  0  7 22 03 19 06 25 16 01
  19826572.489   -29488134.499 9 -22953499.50148  19826575.264    19826583.2944
  23419161.147    -8775373.089 8  -6818441.04345  23419163.836    23419174.3234
  24635050.338     -390128.553 7   -287307.49245  24635053.305    24635065.6094
  24353443.514    -5141830.452 8  -3999883.96745  24353448.632    24353458.5754
  21698066.104   -18551756.541 9 -14444159.38947  21698070.607    21698078.5294
  22811985.442   -11380359.689 8  -8848978.08646  22811988.643    22811999.6164
  21865431.841   -16285848.691 9 -12452096.33747  21865434.290    21865443.7204
 00  7 19  2 49 30.0000000  0  7 22 03 19 06 25 16 01
  19826104.356   -29490607.970 9 -22955426.86448  19826104.538    19826112.7374
  23399859.934    -8876813.490 8  -6897485.35645  23399860.650    23399871.0034
  24619375.369     -472499.689 7   -351492.69845  24619379.548    24619389.4934
  24363677.419    -5088061.353 8  -3957985.93845  24363681.837    24363691.3834
  21707205.531   -18503725.405 9 -14406732.53947  21707210.131    21707218.3084
  22812056.010   -11379996.170 8  -8848694.82746  22812057.607    22812069.0814
  21851237.228   -16360431.981 9 -12510213.12147  21851241.963    21851251.0554
 00  7 19  2 50  0.0000000  0  7 22 03 19 06 25 16 01
  19825733.225   -29492545.639 9 -22956936.72748  19825735.849    19825743.8904
  23380574.061    -8978137.783 8  -6976439.19345  23380578.800    23380589.6174
  24603697.301     -554870.140 7   -415677.37845  24603702.985    24603717.4654
  24373994.502    -5033845.356 8  -3915739.64945  24373997.971    24374008.3684
  21716383.105   -18455504.872 9 -14369158.11347  21716386.169    21716394.3154
  22812235.261   -11379052.531 8  -8847959.50146  22812237.072    22812248.0294
  21837104.211   -16434717.930 9 -12568098.21647  21837106.166    21837114.8694
 00  7 19  2 50 30.0000000  0  7 22 03 19 06 25 16 01
  19825466.137   -29493948.797 9 -22958030.07448  19825468.699    19825477.1204
  23361314.900    -9079342.985 8  -7055300.22945  23361319.705    23361330.4504
  24588029.876     -637239.869 7   -479861.48645  24588030.608    24588040.7104
  24384393.602    -4979184.082 8  -3873146.41145  24384400.029    24384410.2344
  21725595.377   -18407094.450 9 -14331435.73347  21725598.547    21725606.7384
  22812525.803   -11377528.923 8  -8846772.26046  22812527.416    22812537.8664
  21823025.673   -16508704.292 9 -12625749.87547  21823026.598    21823035.2054
 00  7 19  2 51  0.0000000  0  7 22 03 19 06 25 16 01
  19825300.642   -29494818.607 9 -22958707.83548  19825303.304    19825311.6014
  23342082.934    -9180426.244 8  -7134066.30646  23342084.656    23342094.0814
  24572353.608     -719608.675 7   -544044.87045  24572353.600    24572367.5044
  24394886.517    -4924079.378 7  -3830207.64145  24394885.875    24394896.7764
  21734844.032   -18358494.486 8 -14293565.64647  21734846.384    21734855.1074
  22812927.707   -11375426.053 8  -8845133.64146  22812927.421    22812938.5664
  21809002.523   -16582388.738 9 -12683166.25447  21809005.154    21809014.1434
 00  7 19  2 51 30.0000000  0  7 22 03 19 06 25 16 01
  19825236.825   -29495155.749 9 -22958970.53648  19825239.241    19825247.0034
  23322868.959    -9281384.652 8  -7212735.05646  23322872.785    23322883.0404
  24556671.810     -801976.436 7   -608227.41245  24556679.684    24556693.5814
  24405451.916    -4868532.868 7  -3786924.63945  24405454.683    24405466.7794
  21744127.839   -18309704.903 9 -14255547.81947  21744131.273    21744139.4794
  22813435.100   -11372744.189 8  -8843043.86646  22813437.945    22813448.8134
  21795040.977   -16655768.768 9 -12740345.44747  21795041.507    21795050.2704
 00  7 19  2 52  0.0000000  0  7 22 03 19 06 25 16 01
  19825272.460   -29494960.795 9 -22958818.61148  19825275.911    19825284.0744
  23303682.611    -9382215.207 8  -7291304.18146  23303684.569    23303694.6924
  24541007.676     -884342.749 7   -672408.84045  24541006.101    24541020.2364
  24416102.471    -4812546.078 7  -3743298.53445  24416109.903    24416120.5424
  21753449.614   -18260725.591 9 -14217382.15247  21753451.952    21753459.9204
  22814054.725   -11369484.440 8  -8840503.78646  22814058.356    22814068.8374
  21781131.458   -16728841.965 9 -12797285.54647  21781135.813    21781144.7264
 00  7 19  2 52 30.0000000  0  7 22 03 19 06 25 16 01
  19825410.276   -29494234.860 9 -22958252.93448  19825414.067    19825422.5384
  23284526.372    -9482914.828 8  -7369771.28045  23284522.180    23284532.4544
  24525332.003     -966707.283 7   -736588.89445  24525334.423    24525345.3624
  24426841.216    -4756120.538 8  -3699330.54945  24426846.324    24426858.1834
  21762805.982   -18211556.443 9 -14179068.54547  21762808.579    21762816.5814
  22814787.425   -11365646.966 8  -8837513.53646  22814788.704    22814798.9124
  21767286.151   -16801605.977 9 -12853984.72347  21767289.055    21767298.6694
 00  7 19  2 53  0.0000000  0  7 22 03 19 06 25 16 01
  19825650.820   -29492979.189 9 -22957274.47848  19825653.239    19825661.4244
  23265381.699    -9583480.441 8  -7448133.98145  23265384.616    23265395.5484
  24509648.925    -1049069.817 7   -800767.38645  24509659.985    24509672.3184
  24437664.545    -4699257.901 8  -3655021.99345  24437668.730    24437679.3114
  21772198.167   -18162197.744 9 -14140607.24747  21772200.999    21772209.3814
  22815624.583   -11361232.456 8  -8834073.62346  22815628.488    22815638.7054
  21753500.940   -16874058.460 9 -12910441.15247  21753502.200    21753511.3414
 00  7 19  2 53 30.0000000  0  7 22 03 19 06 25 16 01
  19825991.295   -29491195.038 9 -22955884.21948  19825992.824    19826000.7624
  23246269.172    -9683909.418 8  -7526390.19346  23246273.734    23246284.2634
  24493984.383    -1131429.894 7   -864943.99845  24493988.211    24494000.2604
  24448568.251    -4641959.867 8  -3610374.12345  24448571.048    24448581.5514
  21781627.136   -18112649.341 9 -14101998.12247  21781629.912    21781638.1994
  22816573.893   -11356241.720 8  -8830184.72146  22816578.151    22816588.5604
  21739771.040   -16946197.202 9 -12966653.11547  21739774.132    21739783.8614
 00  7 19  2 54  0.0000000  0  7 22 03 19 06 25 16 01
  19826430.258   -29488883.060 9 -22954082.66348  19826433.076    19826440.7734
  23227183.181    -9784198.610 8  -7604537.52446  23227189.765    23227199.7874
  24478313.652    -1213787.114 7   -929118.33645  24478314.331    24478328.3724
  24459561.334    -4584228.132 8  -3565388.35345  24459557.921    24459567.9264
  21791091.198   -18062910.971 9 -14063240.98047  21791095.171    21791103.1704
  22817633.247   -11350675.271 8  -8825847.21246  22817636.555    22817647.3234
  21726104.178   -17018019.773 9 -13022618.71347  21726106.815    21726116.2954
 00  7 19  2 54 30.0000000  0  7 22 03 19 06 25 16 01
  19826970.777   -29486044.067 9 -22951870.45148  19826973.374    19826981.0754
  23208126.600    -9884345.184 8  -7682573.70846  23208132.049    23208142.5304
  24462638.602    -1296141.056 7   -993290.04845  24462642.398    24462655.2054
  24470620.889    -4526064.383 7  -3520065.92845  24470624.813    24470635.7524
  21800591.061   -18012982.763 9 -14024335.90947  21800595.874    21800604.3394
  22818807.107   -11344534.015 8  -8821061.79846  22818806.908    22818816.9434
  21712497.874   -17089523.702 9 -13078336.02147  21712500.439    21712509.6604
 00  7 19  2 55  0.0000000  0  7 22 03 19 06 25 16 01
  19827611.306   -29482679.022 9 -22949248.32948  19827613.628    19827621.2374
  23189096.945    -9984346.057 8  -7760496.34946  23189101.989    23189112.8274
  24446973.256    -1378491.744 7  -1057459.31045  24446972.867    24446983.3904
  24481780.037    -4467470.514 7  -3474408.35145  24481775.670    24481785.4984
  21810132.905   -17962864.648 9 -13985282.85647  21810133.532    21810141.1944
  22820081.783   -11337818.370 8  -8815828.78846  22820084.799    22820094.5164
  21698952.772   -17160706.684 9 -13133803.24647  21698954.637    21698962.7074
 00  7 19  2 55 30.0000000  0  7 22 03 19 06 25 16 01
  19828350.513   -29478789.593 9 -22946217.59648  19828353.819    19828361.2984
  23170097.778   -10084198.296 8  -7838303.19146  23170100.939    23170111.7364
  24431296.837    -1460839.015 7  -1121625.90245  24431302.252    24431314.3324
  24493007.074    -4408448.151 7  -3428416.89745  24493007.334    24493017.1074
  21819703.724   -17912556.668 9 -13946081.86247  21819706.189    21819715.0274
  22821468.549   -11330529.447 8  -8810149.09146  22821471.413    22821481.1184
  21685466.531   -17231566.541 9 -13189018.67547  21685469.984    21685479.1824
 00  7 19  2 56  0.0000000  0  7 22 03 19 06 25 16 01
  19829190.756   -29474376.975 9 -22942779.18148  19829193.609    19829201.0764
  23151119.782   -10183898.714 8  -7915991.70145  23151127.703    23151139.0644
  24415627.918    -1543182.270 7  -1185789.35045  24415633.133    24415645.3364
  24504316.409    -4348998.814 7  -3382092.69845  24504319.194    24504328.1774
  21829314.057   -17862058.518 9 -13906732.69147  21829316.180    21829324.1334
  22822965.924   -11322667.658 8  -8804022.99546  22822966.991    22822977.8544
  21672044.093   -17302100.821 9 -13243980.40247  21672047.861    21672056.9994
 00  7 19  2 56 30.0000000  0  7 22 03 19 06 25 16 01
  19830130.653   -29469441.747 9 -22938933.53648  19830132.478    19830140.2494
  23132191.035   -10283444.232 8  -7993559.52846  23132184.717    23132196.5024
  24399967.791    -1625521.171 7  -1249949.46545  24399963.848    24399977.0944
  24515710.077    -4289124.401 7  -3335437.27845  24515713.772    24515723.7084
  21838957.128   -17811370.407 9 -13867235.48947  21838961.643    21838969.8174
  22824571.287   -11314234.172 8  -8797451.42146  22824572.218    22824582.5164
  21658684.980   -17372307.238 9 -13298686.65947  21658688.348    21658696.8904
 00  7 19  2 57  0.0000000  0  7 22 03 19 06 25 16 01
  19831168.821   -29463984.938 9 -22934681.46848  19831170.766    19831178.5144
  23113270.470   -10382832.089 8  -8071004.52946  23113272.932    23113283.4594
  24384295.627    -1707855.525 7  -1314105.96245  24384296.491    24384308.7704
  24527184.551    -4228826.633 7  -3288451.97145  24527187.787    24527198.1234
  21848640.594   -17760492.633 8 -13827590.50547  21848643.332    21848651.4074
  22826282.116   -11305229.518 8  -8790434.78946  22826285.167    22826296.0714
  21645387.681   -17442183.467 9 -13353135.62647  21645391.117    21645399.9454
 00  7 19  2 57 30.0000000  0  7 22 03 19 06 25 16 01
  19832306.964   -29458007.772 9 -22930023.93248  19832308.382    19832315.8404
  23094388.866   -10482059.252 8  -8148324.34146  23094390.685    23094400.9014
  24368627.865    -1790185.182 7  -1378258.83145  24368628.672    24368640.9544
  24538735.805    -4168107.492 7  -3241138.38545  24538742.704    24538752.9244
  21858356.240   -17709424.671 8 -13787797.31547  21858360.396    21858368.7634
  22828100.451   -11295654.772 8  -8782973.92246  22828106.871    22828117.3234
  21632156.160   -17511727.010 9 -13407325.36147  21632157.054    21632166.4074
 00  7 19  2 58  0.0000000  0  7 22 03 19 06 25 16 01
  19833541.917   -29451511.814 9 -22924962.13548  19833544.359    19833552.1704
  23075540.644   -10581122.856 8  -8225516.69946  23075539.316    23075550.2954
  24352960.061    -1872509.761 7  -1442407.72045  24352964.483    24352975.3994
  24550375.926    -4106968.673 8  -3193497.68145  24550376.188    24550387.1964
  21868114.661   -17658166.310 8 -13747855.76947  21868115.181    21868123.6014
  22830036.588   -11285510.721 8  -8775069.45546  22830038.471    22830048.6214
  21618984.882   -17580935.528 9 -13461254.02247  21618987.245    21618996.3064
 00  7 19  2 58 30.0000000  0  7 22 03 19 06 25 16 01
  19834875.800   -29444498.260 9 -22919497.02248  19834878.830    19834886.8444
  23056713.931   -10680019.748 8  -8302579.11146  23056719.133    23056730.6894
  24337299.333    -1954828.977 7  -1506552.42545  24337299.429    24337311.2224
  24562091.712    -4045412.096 8  -3145531.45845  24562089.820    24562100.1874
  21877901.770   -17606717.536 9 -13707765.85247  21877905.695    21877913.6654
  22832073.469   -11274798.330 8  -8766722.09546  22832076.625    22832087.5764
  21605878.752   -17649806.762 9 -13514919.87247  21605881.048    21605889.7804
 00  7 19  2 59  0.0000000  0  7 22 03 19 06 25 16 01
  19836310.307   -29436967.898 9 -22913629.20148  19836312.224    19836319.7854
  23037927.945   -10778746.991 8  -8379509.32246  23037932.325    23037942.7364
  24321635.032    -2037142.378 7  -1570692.61945  24321635.253    24321647.4924
  24573881.177    -3983439.407 7  -3097241.03845  24573882.946    24573894.4744
  21887728.991   -17555078.793 8 -13667527.88747  21887732.589    21887740.6334
  22834216.880   -11263518.453 8  -8757932.56646  22834222.874    22834233.7454
  21592838.228   -17718338.280 9 -13568321.00247  21592839.808    21592849.4214
 00  7 19  2 59 30.0000000  0  7 22 03 19 06 25 16 01
  19837841.984   -29428921.738 9 -22907359.45448  19837843.234    19837850.9574
  23019171.061   -10877301.889 8  -8456305.29346  23019177.390    23019188.2844
  24305964.840    -2119449.587 7  -1634827.97245  24305972.371    24305984.6424
  24585751.945    -3921052.618 8  -3048627.93345  24585755.853    24585764.8824
  21897593.605   -17503250.040 9 -13627141.87547  21897595.374    21897603.2624
  22836476.275   -11251672.031 8  -8748701.58746  22836476.694    22836487.6554
  21579861.663   -17786527.786 9 -13621455.62447  21579864.539    21579873.7784
 00  7 19  3  0  0.0000000  0  7 22 03 19 06 25 16 01
  19839470.842   -29420361.242 9 -22900688.92748  19839472.133    19839479.9264
  23000452.629   -10975681.158 8  -8532964.36646  23000457.280    23000466.9704
  24290306.323    -2201750.140 7  -1698958.16345  24290310.995    24290322.6594
  24597702.164    -3858253.442 7  -2999693.50745  24597705.753    24597716.5394
  21907490.195   -17451230.895 8 -13586607.49247  21907494.138    21907501.8664
  22838834.476   -11239259.955 8  -8739029.83146  22838838.603    22838849.2024
  21566947.289   -17854372.942 9 -13674321.93647  21566953.577    21566962.6354
 00  7 19  3  0 30.0000000  0  7 22 03 19 06 25 16 01
  19841196.501   -29411287.992 9 -22893618.85448  19841198.822    19841206.6484
  22981766.466   -11073881.736 8  -8609484.22046  22981769.630    22981780.2994
  24274650.097    -2284043.868 7  -1763083.01645  24274651.222    24274663.6154
  24609734.053    -3795043.786 8  -2950439.22845  24609733.865    24609743.9294
  21917423.936   -17399021.608 8 -13545924.96247  21917429.083    21917437.1684
  22841305.567   -11226283.420 8  -8728918.20746  22841308.743    22841318.6374
  21554106.849   -17921871.322 9 -13726918.02347  21554109.226    21554118.4014
 00  7 19  3  1  0.0000000  0  7 22 03 19 06 25 16 01
  19843019.240   -29401703.148 9 -22886150.13548  19843022.490    19843030.6434
  22963110.951   -11171900.938 8  -8685862.74746  22963117.510    22963128.0084
  24258985.449    -2366330.523 7  -1827202.34945  24258991.585    24259002.6054
  24621844.020    -3731425.439 8  -2900866.47945  24621840.030    24621849.8034
  21927395.099   -17346622.160 8 -13505094.24547  21927400.461    21927408.6184
  22843881.746   -11212743.299 8  -8718367.45446  22843883.527    22843895.4964
  21541329.175   -17989020.545 9 -13779242.03547  21541331.232    21541340.3944
 00  7 19  3  1 30.0000000  0  7 22 03 19 06 25 16 01
  19844940.954   -29391607.626 9 -22878283.48448  19844943.811    19844951.4204
  22944495.723   -11269735.659 8  -8762097.51946  22944499.423    22944510.3734
  24243333.246    -2448609.496 7  -1891315.72845  24243335.535    24243346.3604
  24634023.430    -3667400.550 8  -2850976.89345  24634023.610    24634033.6094
  21937403.272   -17294032.203 8 -13464115.08747  21937407.559    21937416.4404
  22846563.570   -11198640.729 8  -8707378.42746  22846568.932    22846579.5384
  21528620.312   -18055818.480 9 -13831292.31647  21528619.733    21528628.9874
 00  7 19  3  2  0.0000000  0  7 22 03 19 06 25 16 01
  19846959.010   -29381002.526 9 -22870019.76048  19846961.860    19846969.7224
  22925914.391   -11367382.804 8  -8838186.12346  22925917.581    22925928.6004
  24227673.403    -2530880.334 7  -1955422.75145  24227679.073    24227690.7374
  24646282.011    -3602970.854 8  -2800771.89445  24646284.787    24646294.3344
  21947449.073   -17241251.701 8 -13422987.45647  21947451.602    21947460.8244
  22849353.549   -11183976.888 8  -8695952.04946  22849358.469    22849369.3054
  21515973.273   -18122262.770 9 -13883067.02247  21515976.077    21515984.3004
 00  7 19  3  2 30.0000000  0  7 22 03 19 06 25 16 01
  19849074.956   -29369889.430 9 -22861360.19948  19849076.673    19849084.1854
  22907364.595   -11464839.714 8  -8914126.49146  22907372.754    22907383.7614
  24212020.007    -2613142.856 7  -2019523.29145  24212024.282    24212038.8694
  24658620.806    -3538138.160 7  -2750252.88045  24658620.910    24658632.0014
  21957530.081   -17188280.792 8 -13381711.44947  21957531.022    21957540.0524
  22852252.677   -11168752.764 8  -8684089.07146  22852255.973    22852266.4954
  21503397.538   -18188351.104 9 -13934564.37147  21503399.691    21503407.9134
 00  7 19  3  3  0.0000000  0  7 22 03 19 06 25 16 01
  19851285.099   -29358270.062 9 -22852306.13748  19851287.585    19851295.2494
  22888863.662   -11562103.138 8  -8989916.07446  22888863.736    22888874.0794
  24196362.314    -2695396.442 7  -2083616.84645  24196371.815    24196385.5654
  24671038.464    -3472904.440 8  -2699421.31945  24671035.161    24671045.1164
  21967644.947   -17135119.473 8 -13340287.07847  21967647.573    21967656.1574
  22855255.971   -11152969.301 8  -8671790.25446  22855259.659    22855269.4784
  21490889.940   -18254080.922 9 -13985782.35347  21490891.966    21490900.4144
 00  7 19  3  3 30.0000000  0  7 22 03 19 06 25 16 01
  19853592.680   -29346145.442 9 -22842858.36948  19853594.877    19853602.4934
  22870391.091   -11659170.128 8  -9065552.58046  22870392.216    22870403.4794
  24180725.396    -2777640.910 8  -2147703.32245  24180722.025    24180731.5634
  24683512.084    -3407271.571 8  -2648278.78745  24683524.164    24683533.6094
  21977796.638   -17081767.843 8 -13298714.42147  21977800.188    21977809.2014
  22858366.185   -11136627.957 8  -8659056.73446  22858368.776    22858379.7234
  21478449.160   -18319449.946 9 -14036719.20147  21478452.118    21478460.7824
 00  7 19  3  4  0.0000000  0  7 22 03 19 06 25 16 01
  19855996.374   -29333516.563 9 -22833017.67948  19855998.236    19856005.8004
  22851959.108   -11756037.300 8  -9141033.39446  22851959.648    22851969.7144
  24165069.927    -2859875.930 8  -2211782.46545  24165072.568    24165084.1974
  24696087.452    -3341241.623 7  -2596826.82545  24696089.035    24696099.2094
  21987984.836   -17028225.405 8 -13256993.08447  21987989.123    21987998.0304
  22861581.778   -11119729.731 8  -8645889.28846  22861584.245    22861595.1484
  21466078.037   -18384455.977 9 -14087373.19947  21466081.521    21466090.6814
 00  7 19  3  4 30.0000000  0  7 22 03 19 06 25 16 01
  19858495.335   -29320384.835 9 -22822785.15248  19858497.007    19858504.4904
  22833556.843   -11852702.066 8  -9216356.51146  22833564.584    22833574.6774
  24149424.385    -2942100.894 7  -2275853.73245  24149426.223    24149437.1404
  24708725.790    -3274816.652 7  -2545067.05845  24708729.451    24708739.2794
  21998212.198   -16974492.164 8 -13215123.07147  21998214.457    21998223.5914
  22864906.126   -11102275.982 8  -8632288.97646  22864905.920    22864916.7534
  21453778.514   -18449096.626 9 -14137742.47447  21453781.095    21453790.2514
 00  7 19  3  5  0.0000000  0  7 22 03 19 06 25 16 01
  19861089.964   -29306751.892 9 -22812162.07148  19861091.257    19861098.8764
  22815207.129   -11949161.421 8  -9291519.55846  22815209.869    22815219.2244
  24133777.586    -3024315.470 7  -2339916.89945  24133780.977    24133791.4914
  24721444.890    -3207998.362 7  -2493000.87345  24721446.258    24721454.7164
  22008472.705   -16920568.354 8 -13173104.56247  22008475.920    22008484.5164
  22868329.300   -11084267.636 8  -8618256.49946  22868332.840    22868343.7964
  21441545.609   -18513369.460 9 -14187825.15547  21441550.238    21441559.4814
 00  7 19  3  5 30.0000000  0  7 22 03 19 06 25 16 01
  19863777.950   -29292619.374 9 -22801149.70448  19863780.465    19863788.2694
  22796889.450   -12045412.491 8  -9366520.31446  22796893.548    22796902.9884
  24118126.860    -3106519.459 7  -2403971.81745  24118137.634    24118148.4434
  24734233.845    -3140788.727 7  -2440629.72145  24734233.323    24734243.8994
  22018770.803   -16866454.043 8 -13130937.59847  22018773.748    22018781.8784
  22871864.289   -11065706.270 8  -8603793.11446  22871865.942    22871874.8844
  21429386.404   -18577272.203 9 -14237619.44247  21429390.076    21429398.7624
 00  7 19  3  6  0.0000000  0  7 22 03 19 06 25 16 01
  19866561.949   -29277988.412 9 -22789748.94248  19866564.609    19866572.5174
  22778615.854   -12141451.963 8  -9441356.14446  22778616.730    22778627.9474
  24102498.894    -3188712.391 7  -2468018.16645  24102495.813    24102507.8894
  24747090.294    -3073189.793 7  -2387955.19745  24747098.464    24747107.3614
  22029108.873   -16812149.015 8 -13088622.03447  22029107.326    22029115.7134
  22875500.999   -11046592.822 8  -8588899.49346  22875502.839    22875512.5104
  21417297.960   -18640802.869 9 -14287123.81847  21417300.904    21417309.5434
 00  7 19  3  6 30.0000000  0  7 22 03 19 06 25 16 01
  19869439.224   -29262860.126 9 -22777960.65748  19869443.385    19869451.3064
  22760377.183   -12237276.995 8  -9516024.87746  22760381.951    22760392.9464
  24086855.878    -3270893.726 7  -2532055.46945  24086858.298    24086869.8964
  24760033.911    -3005203.710 7  -2334978.98645  24760035.130    24760044.6164
  22039473.484   -16757653.406 8 -13046157.96547  22039477.525    22039486.2714
  22879237.109   -11026929.225 8  -8573577.22046  22879244.104    22879253.7884
  21405278.104   -18703958.843 9 -14336336.21647  21405282.163    21405291.4324
 00  7 19  3  7  0.0000000  0  7 22 03 19 06 25 16 01
  19872415.007   -29247235.843 9 -22765785.88248  19872416.636    19872424.5564
  22742182.920   -12332884.855 8  -9590524.41846  22742188.639    22742198.8624
  24071218.351    -3353063.163 7  -2596083.44545  24071222.304    24071234.6424
  24773049.200    -2936832.235 7  -2281702.51345  24773043.836    24773055.4294
  22049877.677   -16702966.842 8 -13003545.10847  22049884.093    22049892.1714
  22883088.027   -11006716.060 8  -8557826.69246  22883090.475    22883100.5264
  21393333.042   -18766738.005 9 -14385254.99947  21393335.760    21393344.3004
 00  7 19  3  7 30.0000000  0  7 22 03 19 06 25 16 01
  19875480.993   -29231117.469 9 -22753226.10048  19875483.790    19875491.6614
  22724033.540   -12428272.265 8  -9664852.16146  22724036.476    22724046.5394
  24055590.077    -3435220.209 8  -2660101.78645  24055588.732    24055600.6074
  24786125.392    -2868077.624 7  -2228127.48045  24786129.284    24786139.1344
  22060325.465   -16648089.269 8 -12960783.41347  22060327.080    22060335.4664
  22887037.240   -10985954.873 8  -8541649.15246  22887040.934    22887051.1234
  21381459.085   -18829138.023 9 -14433878.33947  21381461.585    21381470.2124
 00  7 19  3  8  0.0000000  0  7 22 03 19 06 25 16 01
  19878642.922   -29214506.628 9 -22740282.56748  19878644.509    19878652.5354
  22705920.875   -12523436.227 8  -9739005.76146  22705927.658    22705937.7964
  24039954.556    -3517364.368 8  -2724110.08145  24039956.848    24039968.3434
  24799280.658    -2798941.815 7  -2174255.40945  24799284.681    24799295.0264
  22070803.731   -16593021.091 8 -12917873.18847  22070805.998    22070814.5884
  22891096.421   -10964647.249 8  -8525045.81046  22891096.524    22891106.2934
  21369658.560   -18891156.489 9 -14482204.37447  21369660.130    21369668.5274
 00  7 19  3  8 30.0000000  0  7 22 03 19 06 25 16 01
  19881897.213   -29197404.442 9 -22726956.17948  19881899.006    19881906.9634
  22687859.235   -12618373.898 8  -9812983.07246  22687862.269    22687871.2424
  24024325.206    -3599495.451 8  -2788108.17845  24024327.916    24024338.8424
  24812514.866    -2729426.800 7  -2120087.81945  24812515.471    24812523.8534
  22081318.039   -16537761.702 8 -12874813.97947  22081321.761    22081330.0304
  22895252.910   -10942794.540 8  -8508017.73046  22895254.649    22895265.3724
  21357927.680   -18952791.159 9 -14530231.35247  21357931.243    21357939.8974
 00  7 19  3  9  0.0000000  0  7 22 03 19 06 25 16 01
  19885244.684   -29179812.069 9 -22713247.82448  19885246.765    19885254.9644
  22669831.931   -12713082.394 8  -9886781.79946  22669838.427    22669848.4324
  24008696.503    -3681612.810 7  -2852095.65845  24008699.907    24008711.4834
  24825806.539    -2659534.774 7  -2065626.41445  24825812.714    24825824.8884
  22091872.112   -16482311.281 8 -12831605.88747  22091873.503    22091882.3804
  22899511.999   -10920397.814 8  -8490565.71746  22899516.361    22899526.5934
  21346273.184   -19014039.744 9 -14577957.48747  21346275.947    21346284.5334
 00  7 19  3  9 30.0000000  0  7 22 03 19 06 25 16 01
  19888686.129   -29161731.047 9 -22699158.71248  19888687.636    19888695.5054
  22651855.614   -12807558.739 8  -9960399.59546  22651860.847    22651870.7964
  23993079.995    -3763716.117 8  -2916072.14445  23993076.939    23993087.5994
  24839181.472    -2589267.757 7  -2010872.85945  24839184.478    24839194.4664
  22102459.704   -16426670.147 8 -12788249.22747  22102462.221    22102470.6034
  22903875.700   -10897458.919 8  -8472691.26246  22903881.237    22903890.4284
  21334692.268   -19074900.073 9 -14625381.08047  21334694.669    21334703.2454
 00  7 19  3 10  0.0000000  0  6 22 03 19 25 16 01
  19892218.510   -29143163.369 9 -22684690.37748  19892220.825    19892228.7584
  22633923.311   -12901799.784 8 -10033834.05046  22633927.528    22633937.1394
  23977449.905    -3845804.845 7  -2980037.23745  23977454.943    23977466.6164
  22113084.328   -16370838.215 8 -12744743.87147  22113086.585    22113094.2014
  22908343.613   -10873978.866 8  -8454395.10246  22908349.233    22908359.0394
  21323183.053   -19135369.793 9 -14672500.30447  21323187.200    21323196.1364
 00  7 19  3 10 30.0000000  0  6 22 03 19 25 16 01
  19895845.290   -29124110.591 9 -22669844.05448  19895846.468    19895854.2864
  22616034.702   -12995802.663 8 -10107082.94646  22616039.193    22616048.6174
  23961832.411    -3927878.700 7  -3043990.79745  23961837.525    23961849.1074
  22123742.811   -16314815.096 8 -12701089.53447  22123747.960    22123754.9914
  22912917.132   -10849959.635 8  -8435678.80346  22912920.602    22912930.4634
  21311751.688   -19195446.754 9 -14719313.47747  21311754.850    21311763.6144
 00  7 19  3 11  0.0000000  0  6 22 03 19 25 16 01
  19899561.297   -29104573.841 9 -22654620.59848  19899564.185    19899572.0134
  22598193.713   -13089564.417 8 -10180143.94246  22598196.314    22598206.3014
  23946214.531    -4009936.998 8  -3107932.16745  23946222.757    23946233.6244
  22134440.989   -16258600.733 8 -12657286.17247  22134444.332    22134453.1684
  22917591.629   -10825402.476 8  -8416543.35446  22917593.207    22917603.4914
  21300395.246   -19255128.694 9 -14765818.85447  21300397.945    21300406.5734
 00  7 19  3 11 30.0000000  0  6 22 03 19 25 16 01
  19903371.600   -29084554.503 9 -22639021.10748  19903373.586    19903381.5884
  22580398.291   -13183082.012 8 -10253014.65446  22580400.506    22580410.9164
  23930608.421    -4091979.211 8  -3171861.02545  23930611.027    23930621.7124
  22145173.101   -16202195.082 8 -12613333.76947  22145178.001    22145186.9624
  22922366.857   -10800308.780 8  -8396989.81346  22922368.067    22922378.8134
  21289113.576   -19314413.185 9 -14812014.52047  21289116.658    21289125.3024
 00  7 19  3 12  0.0000000  0  6 22 03 19 25 16 01
  19907274.256   -29064054.192 9 -22623046.83048  19907274.966    19907282.7824
  22562649.765   -13276352.414 8 -10325692.78546  22562652.063    22562661.6444
  23914999.995    -4174004.752 8  -3235776.91545  23915002.052    23915011.6364
  22155948.162   -16145598.491 8 -12569232.57647  22155947.756    22155956.7644
  22927240.497   -10774680.075 8  -8377019.38846  22927245.736    22927255.8414
  21277908.114   -19373297.955 9 -14857898.71247  21277910.944    21277919.8754
 00  7 19  3 12 30.0000000  0  6 22 03 19 25 16 01
  19911266.461   -29043074.957 9 -22606699.36348  19911267.097    19911275.1104
  22544951.632   -13369372.852 8 -10398176.14746  22544950.807    22544960.7534
  23899391.150    -4256013.363 8  -3299679.57545  23899394.499    23899407.0204
  22166750.144   -16088810.758 8 -12524982.44247  22166754.176    22166763.2324
  22932220.557   -10748518.180 8  -8356633.47046  22932224.937    22932233.6614
  21266778.825   -19431780.841 9 -14903469.74847  21266781.932    21266790.5674
 00  7 19  3 13  0.0000000  0  6 22 03 19 25 16 01
  19915348.978   -29021618.268 9 -22589979.84848  19915350.046    19915358.1554
  22527292.111   -13462140.481 8 -10470462.48546  22527297.711    22527306.9854
  23883787.491    -4338004.637 8  -3363568.76045  23883792.429    23883803.2674
  22177594.855   -16031831.867 8 -12480583.35847  22177597.344    22177605.7634
  22937295.826   -10721824.713 8  -8335833.34446  22937303.985    22937313.9574
  21255726.684   -19489859.620 9 -14948725.89047  21255729.882    21255738.2764
 00  7 19  3 13 30.0000000  0  6 22 03 19 25 16 01
  19919522.026   -28999685.286 9 -22572889.19848  19919523.844    19919531.9124
  22509691.871   -13554652.180 8 -10542549.41346  22509693.078    22509702.5744
  23868195.846    -4419977.998 8  -3427443.98145  23868194.449    23868205.5574
  22188472.211   -15974661.844 8 -12436035.32046  22188476.328    22188485.4274
  22942480.699   -10694601.009 8  -8314620.03646  22942484.043    22942494.4814
  21244750.909   -19547532.134 9 -14993665.46847  21244755.255    21244763.6634
 00  7 19  3 14  0.0000000  0  6 22 03 19 25 16 01
  19923785.418   -28977277.495 9 -22555428.57448  19923787.963    19923795.6694
  22492138.825   -13646904.849 8 -10614434.49846  22492137.924    22492147.5594
  23852594.545    -4501932.972 8  -3491304.87645  23852597.475    23852608.7974
  22199386.337   -15917300.479 8 -12391338.19446  22199391.884    22199400.4624
  22947760.380   -10666848.796 8  -8292994.90846  22947764.304    22947776.5064
  21233856.698   -19604796.111 9 -15038286.70047  21233858.346    21233866.6764
 00  7 19  3 14 30.0000000  0  6 22 03 19 25 16 01
  19928139.035   -28954396.806 9 -22537599.46148  19928141.900    19928149.8374
  22474631.551   -13738895.638 8 -10686115.54746  22474632.652    22474642.0634
  23837007.497    -4583869.171 8  -3555151.12545  23837005.320    23837017.3294
  22210339.656   -15859747.671 8 -12346491.88546  22210343.879    22210351.8984
  22953143.824   -10638569.690 8  -8270959.24546  22953146.148    22953156.6544
  21223038.108   -19661649.029 9 -15082587.62647  21223039.644    21223047.5954
 00  7 19  3 15  0.0000000  0  6 22 03 19 25 16 01
  19932583.346   -28931045.076 9 -22519403.29248  19932585.474    19932593.3204
  22457167.562   -13830621.875 8 -10757590.43646  22457177.279    22457187.1994
  23821411.177    -4665785.714 8  -3618982.06945  23821417.672    23821428.3514
  22221328.561   -15802003.332 8 -12301496.33046  22221332.557    22221340.7504
  22958623.386   -10609765.604 8  -8248514.49446  22958627.390    22958638.0354
  21212297.919   -19718089.030 9 -15126566.79847  21212299.556    21212307.5604
 00  7 19  3 15 30.0000000  0  6 22 03 19 25 16 01
  19937115.975   -28907223.981 9 -22500841.39748  19937118.457    19937126.4174
  22439771.846   -13922080.402 8 -10828856.71246  22439773.605    22439783.6704
  23805833.596    -4747682.333 8  -3682797.49345  23805834.154    23805843.4434
  22232354.061   -15744067.713 8 -12256351.72247  22232357.226    22232366.3604
  22964206.568   -10580438.056 8  -8225661.85946  22964208.267    22964218.8694
  21201636.918   -19774113.740 9 -15170222.35347  21201637.976    21201646.4954
 00  7 19  3 16  0.0000000  0  6 22 03 19 25 16 01
  19941738.975   -28882934.577 9 -22481914.57848  19941740.827    19941748.3644
  22422416.384   -14013268.068 8 -10899911.93446  22422421.586    22422430.8444
  23790246.491    -4829558.407 8  -3746596.88245  23790252.412    23790263.2304
  22243414.554   -15685940.782 8 -12211058.04146  22243418.703    22243427.4264
  22969883.025   -10550588.837 8  -8202402.70946  22969888.163    22969898.6644
  21191052.773   -19829720.912 9 -15213552.56847  21191056.349    21191064.6434
 00  7 19  3 16 30.0000000  0  6 22 03 19 25 16 01
  19946448.197   -28858178.492 9 -22462624.11948  19946451.674    19946459.2524
  22405116.939   -14104182.109 8 -10970753.93546  22405120.617    22405130.2084
  23774667.482    -4911413.453 8  -3810379.91945  23774675.712    23774686.5494
  22254511.597   -15627622.241 8 -12165615.04246  22254516.183    22254524.4494
  22975666.308   -10520219.489 8  -8178738.30046  22975667.934    22975678.3194
  21180551.219   -19884908.497 9 -15256555.82947  21180554.631    21180563.1594
 00  7 19  3 17  0.0000000  0  6 22 03 19 25 16 01
  19951247.950   -28832957.705 9 -22442971.55448  19951250.831    19951258.7794
  22387871.000   -14194819.395 8 -11041380.30546  22387872.671    22387881.7004
  23759094.436    -4993247.080 7  -3874146.26045  23759103.528    23759114.8904
  22265648.616   -15569112.333 8 -12120022.92946  22265650.467    22265658.1154
  22981542.950   -10489332.087 8  -8154670.19146  22981545.174    22981556.1434
  21170131.026   -19939674.297 9 -15299230.43547  21170132.724    21170141.3984
 00  7 19  3 17 30.0000000  0  6 22 03 19 25 16 01
  19956136.193   -28807274.304 9 -22422958.50748  19956138.467    19956146.1894
  22370668.726   -14285177.280 8 -11111788.92846  22370677.691    22370687.4544
  23743529.144    -5075058.724 8  -3937895.44145  23743536.777    23743547.3024
  22276818.284   -15510411.115 8 -12074281.73846  22276820.767    22276828.3104
  22987517.805   -10457928.317 8  -8130199.73646  22987521.663    22987531.2334
  21159788.954   -19994016.109 9 -15341574.65547  21159791.529    21159800.5604
 00  7 19  3 18  0.0000000  0  6 22 03 19 25 16 01
  19961111.247   -28781129.510 9 -22402585.93448  19961113.429    19961121.3814
  22353536.424   -14375252.774 8 -11181977.51846  22353537.492    22353546.4964
  23727968.418    -5156847.680 8  -4001626.97845  23727972.272    23727982.8234
  22288027.314   -15451518.132 8 -12028391.11546  22288027.891    22288035.6124
  22993594.212   -10426009.803 8  -8105328.16446  22993595.398    22993604.8174
  21149528.437   -20047931.942 9 -15383586.94547  21149531.975    21149540.1394
 00  7 19  3 18 30.0000000  0  6 22 03 19 25 16 01
  19966172.734   -28754524.874 9 -22381855.04548  19966176.065    19966184.1044
  22336450.219   -14465042.798 8 -11251943.70646  22336450.884    22336459.5894
  23712410.916    -5238613.213 8  -4065340.27145  23712411.724    23712422.1214
  22299266.543   -15392433.682 8 -11982351.29246  22299270.735    22299279.6954
  22999764.967   -10393578.534 8  -8080057.05146  22999766.801    22999776.5944
  21139350.573   -20101419.451 9 -15425265.48147  21139353.316    21139361.8274
 00  7 19  3 19  0.0000000  0  6 22 03 19 25 16 01
  19971323.966   -28727461.988 9 -22360767.08148  19971326.041    19971334.0164
  22319412.496   -14554544.692 8 -11321685.34046  22319418.736    22319428.3164
  23696859.246    -5320354.955 8  -4129035.03145  23696856.022    23696868.2004
  22310546.115   -15333157.711 8 -11936162.24046  22310550.514    22310559.3414
  23006036.283   -10360636.489 8  -8054387.95846  23006035.132    23006045.6404
  21129255.977   -20154476.536 9 -15466608.61747  21129257.166    21129265.4854
 00  7 19  3 19 30.0000000  0  6 22 03 19 25 16 01
  19976561.506   -28699942.856 9 -22339323.60648  19976562.835    19976570.6164
  22302437.437   -14643755.568 8 -11391200.20646  22302442.698    22302452.9374
  23681302.980    -5402072.620 8  -4192710.99945  23681306.520    23681318.1354
  22321866.194   -15273690.253 8 -11889823.98646  22321867.072    22321875.7834
  23012396.276   -10327185.270 8  -8028322.07846  23012401.096    23012410.5734
  21119238.415   -20207101.163 9 -15507614.77147  21119243.068    21119251.2204
 00  7 19  3 20  0.0000000  0  6 22 03 19 25 16 01
  19981883.757   -28671969.426 9 -22317526.12448  19981886.088    19981893.8484
  22285520.783   -14732672.413 8 -11460485.94646  22285521.927    22285532.4874
  23665755.656    -5483765.281 8  -4256367.51845  23665760.542    23665771.6454
  22333213.437   -15214031.226 8 -11843336.45146  22333219.902    22333227.8924
  23018859.422   -10293226.784 8  -8001860.93346  23018862.137    23018873.9204
  21109309.494   -20259291.002 9 -15548282.14347  21109312.040    21109320.0674
 00  7 19  3 20 30.0000000  0  6 22 03 19 25 16 01
  19987292.580   -28643543.216 9 -22295375.83248  19987295.285    19987303.3024
  22268650.057   -14821292.273 8 -11529540.26846  22268657.617    22268667.8884
  23650210.005    -5565432.740 8  -4320004.36645  23650219.238    23650229.9024
  22344604.607   -15154180.855 8 -11796699.82346  22344608.584    22344618.2314
  23025418.998   -10258763.069 8  -7975006.12046  23025421.394    23025432.2234
  21099461.702   -20311044.091 9 -15588609.18547  21099463.747    21099471.6124
 00  7 19  3 21  0.0000000  0  6 22 03 19 25 16 01
  19992788.833   -28614665.613 9 -22272873.80148  19992790.571    19992798.1964
  22251847.328   -14909612.284 8 -11598360.95146  22251851.598    22251860.7124
  23634680.638    -5647074.138 8  -4383620.94845  23634683.852    23634694.1624
  22356030.320   -15094138.904 8 -11749913.90246  22356035.014    22356043.3174
  23032071.895   -10223795.943 8  -7947759.02946  23032075.400    23032086.6264
  21089695.358   -20362358.091 9 -15628594.07747  21089698.871    21089706.8314
 00  7 19  3 21 30.0000000  0  6 22 03 19 25 16 01
  19998368.947   -28585338.369 9 -22250021.40348  19998371.128    19998379.1704
  22235100.343   -14997629.557 8 -11666945.76646  22235103.161    22235111.0894
  23619153.024    -5728688.811 8  -4447216.64845  23619154.030    23619163.1674
  22367493.880   -15033905.334 8 -11702978.67146  22367496.652    22367505.4754
  23038826.040   -10188327.321 8  -7920121.14646  23038824.284    23038835.1114
  21080015.032   -20413230.954 9 -15668235.21847  21080017.670    21080025.7234
 00  7 19  3 22  0.0000000  0  6 22 03 19 25 16 01
  20004035.191   -28555563.680 9 -22226820.35248  20004037.115    20004045.2134
  22218406.498   -15085341.233 8 -11735292.43446  22218411.461    22218419.7934
  23603625.231    -5810276.406 8  -4510791.31545  23603626.791    23603637.9344
  22378990.859   -14973480.177 8 -11655894.14746  22378995.437    22379004.3884
  23045668.895   -10152359.578 8  -7892094.34546  23045668.917    23045678.3644
  21070416.727   -20463660.666 9 -15707531.05747  21070421.127    21070429.5924
 00  7 19  3 22 30.0000000  0  6 22 03 19 25 16 01
  20009784.218   -28525343.444 9 -22203272.11948  20009787.846    20009795.7374
  22201776.060   -15172744.591 8 -11803398.86246  22201778.484    22201788.1534
  23588106.970    -5891836.177 8  -4574344.25545  23588107.155    23588116.5474
  22390530.135   -14912863.361 8 -11608660.27746  22390529.786    22390538.9414
  23052609.047   -10115894.039 8  -7863679.64046  23052608.198    23052619.1154
  21060905.740   -20513645.045 9 -15746479.87947  21060909.488    21060918.0174
 00  7 19  3 23  0.0000000  0  6 22 03 19 25 16 01
  20015621.612   -28494679.069 9 -22179377.80648  20015623.437    20015631.0914
  22185199.447   -15259836.521 8 -11871262.59946  22185205.230    22185215.3474
  23572590.903    -5973367.487 8  -4637875.06345  23572591.824    23572601.6604
  22402095.303   -14852055.076 8 -11561277.22346  22402101.257    22402110.6334
  23059642.500   -10078932.896 8  -7834878.76446  23059641.714    23059651.8194
  21051481.414   -20563182.312 9 -15785080.30147  21051482.765    21051491.4464
 00  7 19  3 23 30.0000000  0  6 22 03 19 25 16 01
  20021541.123   -28463572.100 9 -22155138.61148  20021542.898    20021550.6784
  22168688.566   -15346614.349 8 -11938881.59046  22168692.064    22168701.7124
  23557081.470    -6054869.796 8  -4701383.26045  23557082.847    23557092.7024
  22413705.868   -14791055.118 8 -11513744.81146  22413709.594    22413718.4234
  23066765.718   -10041478.477 8  -7805693.49546  23066769.047    23066779.5914
  21042139.161   -20612270.350 9 -15823330.68347  21042141.596    21042150.0824
 00  7 19  3 24  0.0000000  0  7 22 03 31 19 25 16 01
  20027544.137   -28432024.423 9 -22130556.01048  20027546.087    20027553.8714
  22152236.236   -15433075.173 8 -12006253.57346  22152239.999    22152248.8114
  24648992.091    -4255697.82217  -3290860.61855  24648995.942    24649006.8694
  23541573.699    -6136342.657 8  -4764868.47345  23541579.470    23541589.3114
  22425347.282   -14729863.474 8 -11466063.05246  22425353.855    22425363.0164
  23073989.305   -10003532.500 8  -7776125.21546  23073991.089    23074000.3524
  21032883.951   -20660906.865 9 -15861229.22647  21032886.661    21032894.5444
 00  7 19  3 24 30.0000000  0  7 22 03 31 19 25 16 01
  20033631.508   -28400038.196 9 -22105631.67948  20033632.968    20033640.6044
  22135843.589   -15519216.174 8 -12073376.34546  22135848.048    22135856.5644
  24626732.456    -4372752.946 7  -3382072.29145  24626721.288    24626733.2674
  23526079.374    -6217785.068 8  -4828329.98145  23526080.689    23526090.4054
  22437033.826   -14668479.945 8 -11418231.75146  22437035.210    22437043.8694
  23081300.641    -9965097.175 8  -7746175.62146  23081303.244    23081314.3614
  21023716.441   -20709089.881 9 -15898774.39147  21023717.703    21023725.5294
 00  7 19  3 25  0.0000000  0  7 22 03 31 19 25 16 01
  20039799.850   -28367615.322 9 -22080367.10548  20039802.774    20039810.2864
  22119515.048   -15605034.236 8 -12140247.47646  22119516.258    22119526.0574
  24604436.250    -4489842.427 7  -3473310.68145  24604439.439    24604449.9144
  23510585.159    -6299196.306 8  -4891767.21445  23510588.561    23510598.4584
  22448748.564   -14606904.808 8 -11370251.16746  22448752.204    22448761.1534
  23088707.377    -9926174.609 8  -7715846.33846  23088710.932    23088720.9464
  21014629.689   -20756817.449 9 -15935964.65747  21014634.702    21014643.1644
 00  7 19  3 25 30.0000000  0  7 22 03 31 19 25 16 01
  20046052.567   -28334757.244 9 -22054763.40548  20046055.279    20046063.0464
  22103245.184   -15690526.636 8 -12206864.84046  22103247.672    22103256.6334
  24582141.705    -4606963.482 7  -3564573.76545  24582150.821    24582163.6554
  23495094.643    -6380575.777 8  -4955179.65946  23495101.811    23495112.9564
  22460501.998   -14545138.237 8 -11322121.38946  22460505.969    22460515.2794
  23096209.726    -9886767.008 8  -7685139.12446  23096209.870    23096219.7194
  21005638.190   -20804087.389 9 -15972798.33047  21005639.917    21005648.2254
 00  7 19  3 26  0.0000000  0  7 22 03 31 19 25 16 01
  20052388.013   -28301465.484 9 -22028821.78448  20052390.546    20052398.3264
  22087037.145   -15775690.536 8 -12273226.24046  22087041.459    22087050.6614
  24559860.526    -4724113.680 8  -3655859.48145  24559858.878    24559870.6924
  23479618.826    -6461923.012 8  -5018567.00345  23479622.806    23479632.6334
  22472291.434   -14483179.750 8 -11273842.08946  22472296.630    22472305.2424
  23103800.856    -9846876.139 8  -7654055.33746  23103800.823    23103811.7344
  20996731.102   -20850897.701 9 -16009273.85247  20996732.373    20996740.4224
 00  7 19  3 26 30.0000000  0  7 22 03 31 19 25 16 01
  20058807.896   -28267742.032 9 -22002543.77248  20058807.996    20058815.6104
  22070894.557   -15860522.976 8 -12339329.35446  22070898.451    22070907.5924
  24537559.053    -4841290.376 7  -3747165.89945  24537561.355    24537572.4774
  23464138.638    -6543237.624 8  -5081928.91845  23464148.400    23464158.5054
  22484120.600   -14421029.566 8 -11225413.40046  22484123.910    22484131.9184
  23111477.432    -9806504.448 8  -7622596.87346  23111483.072    23111493.3134
  20987907.740   -20897246.482 9 -16045389.74047  20987912.385    20987920.7374
 00  7 19  3 27  0.0000000  0  7 22 03 31 19 25 16 01
  20065304.337   -28233589.179 9 -21975931.15948  20065307.147    20065314.7564
  22054813.446   -15945021.425 8 -12405172.21146  22054818.832    22054827.7114
  24515250.802    -4958490.881 7  -3838490.83945  24515257.696    24515270.0574
  23448675.321    -6624518.692 8  -5145264.74645  23448680.465    23448691.6514
  22495983.814   -14358688.013 8 -11176835.58346  22495986.883    22495994.7894
  23119252.902    -9765654.189 8  -7590765.49646  23119256.495    23119267.4074
  20979178.675   -20943131.659 9 -16081144.38247  20979180.700    20979189.1394
 00  7 19  3 27 30.0000000  0  7 22 03 31 19 25 16 01
  20071886.597   -28199008.749 9 -21948985.36248  20071887.602    20071895.3154
  22038804.150   -16029182.965 8 -12470752.55446  22038803.278    22038812.0294
  24492956.562    -5075712.514 7  -3929832.19245  24492951.989    24492965.3014
  23433211.629    -6705765.372 8  -5208573.72845  23433220.062    23433231.5594
  22507884.410   -14296154.979 8 -11128108.56946  22507886.697    22507894.3534
  23127119.742    -9724327.209 8  -7558562.65246  23127120.895    23127131.9094
  20970533.900   -20988551.172 9 -16116536.17448  20970537.511    20970546.1164
 00  7 19  3 28  0.0000000  0  7 22 03 31 19 25 16 01
  20078547.767   -28164002.139 9 -21921707.47948  20078549.357    20078556.8044
  22022847.075   -16113004.860 8 -12536068.23746  22022852.580    22022861.4644
  24470643.665    -5192952.555 8  -4021187.95445  24470642.439    24470652.3054
  23417763.980    -6786977.299 8  -5271855.64146  23417766.498    23417777.9194
  22519817.623   -14233430.137 8 -11079232.09746  22519821.957    22519831.1764
  23135075.226    -9682525.843 8  -7525990.16846  23135075.559    23135085.7574
  20961979.603   -21033503.126 9 -16151563.63047  20961983.397    20961991.8074
 00  7 19  3 28 30.0000000  0  7 22 03 31 19 25 16 01
  20085289.136   -28128571.137 9 -21894098.90748  20085291.160    20085299.1324
  22006963.938   -16196484.406 8 -12601117.15946  22006966.929    22006975.5764
  24448316.673    -5310207.822 7  -4112555.58345  24448328.728    24448340.2034
  23402315.001    -6868153.558 8  -5335109.69946  23402318.509    23402329.6454
  22531789.073   -14170514.121 8 -11030206.67146  22531794.835    22531803.2894
  23143115.385    -9640252.272 8  -7493049.72746  23143118.622    23143130.3224
  20953514.812   -21077985.670 9 -16186225.31847  20953518.403    20953527.0524
 00  7 19  3 29  0.0000000  0  7 22 03 31 19 25 16 01
  20092111.704   -28092717.714 9 -21866161.17548  20092113.699    20092121.6004
  21991139.255   -16279618.485 8 -12665896.87546  21991146.752    21991155.4284
  24426014.798    -5427476.139 8  -4203933.36345  24426012.760    24426024.9054
  23386877.463    -6949293.410 8  -5398335.44846  23386878.261    23386888.6144
  22543799.652   -14107406.482 8 -10981031.91346  22543803.431    22543812.2264
  23151250.453    -9597508.619 8  -7459743.00646  23151254.178    23151263.9594
  20945139.238   -21121996.810 9 -16220519.66847  20945143.062    20945151.7594
 00  7 19  3 29 30.0000000  0  7 22 03 31 19 25 16 01
  20099013.605   -28056444.227 9 -21837896.11848  20099016.317    20099024.2854
  21975389.785   -16362404.487 8 -12730405.36446  21975393.016    21975401.9884
  24403686.865    -5544754.586 7  -4295318.99645  24403695.414    24403707.9344
  23371443.623    -7030396.226 8  -5461532.33846  23371445.092    23371454.5074
  22555848.842   -14044107.504 8 -10931708.07746  22555849.280    22555857.7884
  23159475.594    -9554297.372 8  -7426071.89146  23159477.843    23159486.4784
  20936853.798   -21165534.635 9 -16254445.20747  20936858.249    20936866.9694
 00  7 19  3 30  0.0000000  0  7 22 03 31 19 25 16 01
  20105994.138   -28019752.328 9 -21809305.02648  20105998.774    20106006.6874
  21959705.839   -16444839.550 8 -12794640.39847  21959706.409    21959715.6064
  24381367.227    -5662040.663 7  -4386710.57745  24381376.172    24381387.6734
  23356017.689    -7111461.034 8  -5524699.61346  23356019.140    23356029.7494
  22567928.356   -13980616.847 8 -10882234.86346  22567930.695    22567939.8214
  23167787.949    -9510620.613 8  -7392038.08146  23167788.842    23167799.1134
  20928659.394   -21208597.087 9 -16288000.32447  20928663.493    20928671.9904
 00  7 19  3 30 30.0000000  0  7 22 03 31 19 25 16 01
  20113059.347   -27982643.510 9 -21780389.06948  20113060.475    20113068.0744
  21944079.993   -16526921.026 8 -12858599.89747  21944086.732    21944096.2074
  24359052.377    -5779331.624 7  -4478105.97445  24359055.570    24359068.4434
  23340594.819    -7192487.610 8  -5587837.03945  23340598.211    23340610.7914
  22580044.227   -13916934.373 8 -10832612.18946  22580049.255    22580058.3204
  23176183.797    -9466480.705 8  -7357643.35346  23176187.322    23176199.0214
  20920557.382   -21251182.211 9 -16321183.51047  20920560.220    20920568.5804
 00  7 19  3 31  0.0000000  0  7 22 03 31 19 25 16 01
  20120198.931   -27945119.691 9 -21751149.72348  20120200.922    20120208.6444
  21928532.982   -16608646.090 8 -12922281.68047  21928535.281    21928543.8994
  24336722.272    -5896624.360 7  -4569502.67345  24336736.191    24336747.7464
  23325183.041    -7273475.009 8  -5650943.98445  23325188.461    23325198.5794
  22592200.021   -13853060.677 8 -10782840.51446  22592204.621    22592212.9644
  23184672.738    -9421880.128 8  -7322889.67146  23184674.629    23184685.3354
  20912545.455   -21293288.261 9 -16353993.38648  20912547.938    20912555.6614
 00  7 19  3 31 30.0000000  0  7 22 03 31 19 25 16 01
  20127419.659   -27907182.864 9 -21721588.55148  20127420.316    20127427.8984
  21913049.244   -16690011.754 8 -12985683.41747  21913051.961    21913060.6644
  24314412.501    -6013916.445 7  -4660898.93045  24314416.573    24314426.8594
  23309784.836    -7354422.577 8  -5714019.93745  23309785.045    23309793.1844
  22604388.063   -13788995.774 8 -10732919.83246  22604395.063    22604403.2964
  23193244.208    -9376820.678 8  -7287778.44146  23193248.375    23193259.5204
  20904623.375   -21334913.148 9 -16386428.33748  20904626.663    20904635.1084
 00  7 19  3 32  0.0000000  0  7 22 03 31 19 25 16 01
  20134716.123   -27868835.332 9 -21691707.35648  20134717.257    20134725.2124
  21897634.585   -16771015.513 8 -13048803.15647  21897636.957    21897645.4514
  24292099.752    -6131205.126 7  -4752292.56745  24292097.230    24292107.9854
  23294388.138    -7435329.755 8  -5777064.36646  23294387.405    23294397.6564
  22616620.764   -13724739.331 8 -10682849.91046  22616623.098    22616631.5204
  23201904.990    -9331305.005 8  -7252311.69646  23201911.150    23201920.8584
  20896794.003   -21376055.089 9 -16418486.96147  20896797.284    20896805.7384
 00  7 19  3 32 30.0000000  0  7 22 03 31 19 25 16 01
  20142090.300   -27830078.721 9 -21661507.39248  20142092.210    20142100.4494
  21882289.865   -16851654.675 8 -13111638.77547  21882291.721    21882300.7054
  24269772.487    -6248487.361 8  -4843681.13345  24269779.679    24269789.4974
  23278996.588    -7516195.660 8  -5840076.64646  23278999.387    23279010.2604
  22628885.054   -13660291.401 8 -10632630.78046  22628887.544    22628895.8664
  23210657.600    -9285335.425 8  -7216491.24346  23210658.741    23210668.3044
  20889058.836   -21416712.382 9 -16450167.93847  20889060.326    20889069.1684
 00  7 19  3 33  0.0000000  0  7 22 03 31 19 25 16 01
  20149540.477   -27790914.630 9 -21630989.92348  20149544.762    20149553.1424
  21867009.826   -16931926.585 8 -13174188.22647  21867016.274    21867025.0474
  24247454.515    -6365760.504 7  -4935062.63645  24247460.570    24247471.9984
  23263615.191    -7597019.259 8  -5903055.97446  23263620.741    23263629.7264
  22641181.900   -13595652.285 8 -10582262.68646  22641187.719    22641196.4634
  23219489.052    -9238914.143 8  -7180318.80646  23219492.738    23219503.4264
  20881413.824   -21456883.205 9 -16481469.84548  20881416.407    20881424.7504
 00  7 19  3 33 30.0000000  0  7 22 03 31 19 25 16 01
  20157072.656   -27751344.948 9 -21600156.40148  20157074.743    20157082.9034
  21851808.304   -17011828.484 8 -13236449.36647  21851811.304    21851819.9494
  24225151.048    -6483022.316 7  -5026435.20545  24225148.073    24225159.2364
  23248243.909    -7677799.877 8  -5966001.83446  23248247.243    23248255.5364
  22653521.441   -13530822.083 8 -10531745.70446  22653524.334    22653533.4264
  23228412.912    -9192043.889 8  -7143796.53746  23228411.931    23228421.5584
  20873862.465   -21496565.552 9 -16512391.12348  20873865.200    20873873.6144
 00  7 19  3 34  0.0000000  0  7 22 03 31 19 25 16 01
  20164679.547   -27711371.999 9 -21569008.65748  20164681.689    20164689.5564
  21836675.179   -17091357.512 8 -13298419.97847  21836677.870    21836686.1044
  24202822.941    -6600269.628 7  -5117796.48045  24202835.335    24202845.7704
  23232878.403    -7758537.127 8  -6028913.86846  23232883.196    23232892.7184
  22665891.676   -13465800.757 8 -10481079.79246  22665897.554    22665906.5154
  23237412.756    -9144726.548 8  -7106925.89546  23237414.773    23237425.7134
  20866405.113   -21535757.555 9 -16542930.32048  20866407.046    20866415.3064
 00  7 19  3 34 30.0000000  0  7 22 03 31 19 25 16 01
  20172363.169   -27670997.873 9 -21537548.29548  20172364.583    20172372.5874
  21821611.696   -17170511.192 9 -13360098.08347  21821615.651    21821624.0674
  24180534.072    -6717499.329 7  -5209144.11145  24180528.447    24180539.5844
  23217526.000    -7839230.185 8  -6091791.46946  23217529.430    23217539.1284
  22678302.960   -13400587.997 8 -10430264.69746  22678306.992    22678317.0034
  23246497.681    -9096965.101 8  -7069709.17446  23246503.102    23246514.1804
  20859038.851   -21574457.305 9 -16573085.93248  20859042.961    20859050.8524
 00  7 19  3 35  0.0000000  0  7 22 03 31 19 25 16 01
  20180121.054   -27630224.155 9 -21505776.56848  20180123.504    20180131.4554
  21806621.234   -17249286.604 8 -13421481.46547  21806624.607    21806633.0354
  24158224.423    -6834708.673 7  -5300475.83845  24158223.155    24158233.8704
  23202180.815    -7919878.288 8  -6154634.03846  23202181.733    23202190.6244
  22690750.124   -13335184.020 8 -10379300.60846  22690752.974    22690762.4324
  23255674.276    -9048761.548 8  -7032147.96346  23255676.022    23255686.9144
  20851770.142   -21612663.190 9 -16602856.71748  20851772.646    20851780.5724
 00  7 19  3 35 30.0000000  0  7 22 03 31 19 25 16 01
  20187955.758   -27589052.541 9 -21473694.79148  20187958.284    20187965.9694
  21791702.897   -17327681.070 8 -13482567.97447  21791706.027    21791715.6374
  24135921.011    -6951895.272 7  -5391789.90445  24135923.320    24135934.0114
  23186837.011    -8000480.292 8  -6217440.71246  23186842.075    23186851.2634
  22703228.845   -13269589.067 8 -10328187.71146  22703235.443    22703244.6764
  23264931.892    -9000118.409 8  -6994244.22846  23264933.899    23264944.5884
  20844594.274   -21650373.453 9 -16632241.30048  20844596.194    20844604.1584
 00  7 19  3 36  0.0000000  0  7 22 03 31 19 25 16 01
  20195866.793   -27547484.959 9 -21441304.47648  20195868.351    20195875.9084
  21776859.801   -17405692.139 9 -13543355.73947  21776862.011    21776869.8544
  24113623.501    -7069056.342 7  -5483084.01745  24113628.599    24113639.9884
  23171509.820    -8081035.508 8  -6280210.94646  23171513.251    23171523.1454
  22715752.716   -13203802.952 8 -10276925.86446  22715754.398    22715763.3684
  23274270.138    -8951038.240 8  -6955999.93346  23274273.814    23274284.1294
  20837512.878   -21687586.270 9 -16661238.26448  20837514.950    20837523.0114
 00  7 19  3 36 30.0000000  0  7 22 03 31 19 25 16 01
  20203850.835   -27505523.745 9 -21408607.42548  20203853.021    20203860.9224
  21762087.145   -17483317.044 9 -13603842.60747  21762089.729    21762098.5024
  24091333.973    -7186189.125 7  -5574356.08145  24091338.595    24091348.8004
  23156191.537    -8161543.057 8  -6342944.00546  23156194.282    23156204.3624
  22728308.739   -13137825.839 8 -10225515.17546  22728310.329    22728317.8264
  23283692.987    -8901523.386 8  -6917416.92446  23283695.613    23283706.6424
  20830524.743   -21724299.815 9 -16689846.18048  20830528.733    20830536.5454
 00  7 19  3 37  0.0000000  0  7 22 03 31 19 25 16 01
  20211910.791   -27463171.016 9 -21375605.30248  20211912.484    20211920.5104
  21747390.510   -17560553.008 9 -13664026.41747  21747392.714    21747400.5414
  24069060.284    -7303290.430 8  -5665603.66045  24069054.191    24069066.7334
  23140884.008    -8242002.260 8  -6405639.38746  23140881.425    23140893.4544
  22740898.114   -13071657.792 8 -10173955.71446  22740901.466    22740908.8104
  23293197.858    -8851576.282 8  -6878497.10546  23293200.428    23293210.5824
  20823635.312   -21760512.531 9 -16718063.84448  20823637.555    20823645.6624
 00  7 19  3 37 30.0000000  0  7 22 03 31 19 25 16 01
  20220043.332   -27420428.237 9 -21342299.24948  20220046.276    20220054.1114
  21732764.638   -17637397.328 9 -13723905.05247  21732769.586    21732777.6954
  24046777.550    -7420357.492 8  -5756824.53145  24046778.935    24046788.8904
  23125578.931    -8322412.495 8  -6468296.61046  23125581.163    23125590.9734
  22753525.497   -13005298.979 8 -10122247.59146  22753529.185    22753537.1814
  23302785.892    -8801199.691 8  -6839242.62246  23302786.660    23302797.0444
  20816839.957   -21796222.675 9 -16745889.89548  20816842.351    20816850.2304
 00  7 19  3 38  0.0000000  0  7 22 03 31 19 25 16 01
  20228250.549   -27377297.282 9 -21308690.72948  20228253.756    20228261.6054
  21718219.260   -17713847.552 9 -13783476.58947  21718221.541    21718229.7444
  24024505.977    -7537387.700 8  -5848016.70645  24024507.733    24024517.7974
  23110286.217    -8402773.011 8  -6530915.13846  23110289.570    23110299.5564
  22766189.029   -12938749.396 8 -10070390.83646  22766193.035    22766200.9524
  23312453.184    -8750396.126 8  -6799655.42946  23312454.466    23312464.0784
  20810140.206   -21831428.655 9 -16773323.08948  20810142.514    20810150.5904
 00  7 19  3 38 30.0000000  0  7 22 03 31 19 25 16 01
  20236531.363   -27333780.093 9 -21274781.22948  20236534.944    20236542.9664
  21703743.266   -17789901.161 9 -13842739.07847  21703748.823    21703757.3064
  24002240.804    -7654378.471 7  -5939178.21345  24002244.404    24002254.7934
  23095002.592    -8483082.717 8  -6593494.04346  23095006.031    23095017.0914
  22778890.310   -12872008.981 8 -10018385.37346  22778893.407    22778901.2834
  23322202.872    -8699167.902 8  -6759737.34046  23322202.203    23322212.7534
  20803536.234   -21866128.562 9 -16800361.94248  20803539.257    20803547.4204
 00  7 19  3 39  0.0000000  0  7 22 03 31 19 25 16 01
  20244887.331   -27289879.087 9 -21240572.65948  20244888.908    20244896.7084
  21689351.190   -17865555.326 9 -13901690.31047  21689352.323    21689360.8474
  23979990.207    -7771326.758 7  -6030306.54945  23979989.089    23980000.3654
  23079731.931    -8563340.753 8  -6656032.64346  23079733.165    23079744.6984
  22791625.346   -12805077.967 8  -9966231.39046  22791628.862    22791638.4134
  23332026.791    -8647517.445 8  -6719490.24846  23332031.005    23332041.4964
  20797031.904   -21900320.698 9 -16827005.12848  20797033.021    20797040.9654
 00  7 19  3 39 30.0000000  0  7 22 03 31 19 25 16 01
  20253312.393   -27245596.159 9 -21206066.48848  20253316.037    20253323.6144
  21675030.460   -17940807.566 9 -13960328.35247  21675032.112    21675041.2574
  23957737.745    -7888229.459 7  -6121399.37645  23957743.697    23957754.9704
  23064469.281    -8643546.362 8  -6718530.41846  23064471.975    23064480.5384
  22804397.030   -12737956.310 8  -9913928.87346  22804401.929    22804411.7074
  23341935.911    -8595447.623 8  -6678916.38046  23341939.496    23341950.2124
  20790621.256   -21934003.571 9 -16853251.48348  20790623.438    20790631.1614
 00  7 19  3 40  0.0000000  0  7 22 03 31 19 25 16 01
  20261812.379   -27200932.933 9 -21171263.96848  20261814.938    20261822.8364
  21660785.998   -18015655.299 9 -14018651.18047  21660789.041    21660797.9054
  23935502.063    -8005083.751 8  -6212454.51845  23935506.699    23935517.1704
  23049215.399    -8723698.603 8  -6780986.66546  23049219.008    23049227.3864
  22817213.390   -12670644.393 8  -9861478.09346  22817212.068    22817220.8164
  23351927.458    -8542960.898 8  -6638017.65146  23351928.396    23351939.2074
  20784307.036   -21967175.488 9 -16879099.70148  20784310.679    20784318.8174
 00  7 19  3 40 30.0000000  0  7 22 03 31 19 25 16 01
  20270384.367   -27155891.291 9 -21136166.59348  20270386.308    20270393.8564
  21646622.211   -18090095.944 9 -14076656.81847  21646623.570    21646631.7004
  23913283.664    -8121887.037 8  -6303469.93945  23913280.822    23913291.0704
  23033973.798    -8803796.523 8  -6843400.52746  23033976.091    23033986.7994
  22830052.982   -12603142.101 8  -9808878.97446  22830057.141    22830065.9144
  23361990.957    -8490059.602 8  -6596795.91846  23361994.765    23362005.9434
  20778093.302   -21999834.793 9 -16904548.48248  20778095.782    20778103.6824
 00  7 19  3 41  0.0000000  0  7 22 03 31 19 25 16 01
  20279028.300   -27110473.278 9 -21100775.93148  20279029.021    20279036.7544
  21632529.781   -18164126.788 9 -14134343.12047  21632535.500    21632543.7984
  23891054.721    -8238636.503 7  -6394443.38445  23891063.305    23891073.4644
  23018745.143    -8883839.451 8  -6905771.54246  23018745.756    23018755.1304
  22842936.201   -12535449.578 8  -9756131.62346  22842938.283    22842947.4014
  23372134.894    -8436746.649 8  -6555253.37046  23372139.005    23372150.2584
  20771976.363   -22031979.855 9 -16929596.54748  20771979.086    20771986.9114
 00  7 19  3 41 30.0000000  0  7 22 03 31 19 25 16 01
  20287740.933   -27064681.269 9 -21065093.84448  20287742.715    20287750.5614
  21618522.102   -18237745.541 9 -14191708.32947  21618525.992    21618534.3434
  23868853.474    -8355329.196 7  -6485372.63945  23868856.199    23868867.2614
  23003520.719    -8963826.748 8  -6968099.22046  23003523.904    23003532.9064
  22855856.627   -12467566.766 8  -9703235.97946  22855856.567    22855864.7154
  23382362.613    -8383024.704 8  -6513392.11846  23382362.710    23382373.5284
  20765955.757   -22063609.080 9 -16954242.67048  20765959.708    20765968.0464
 00  7 19  3 42  0.0000000  0  7 22 03 31 19 25 16 01
  20296526.056   -27018517.281 9 -21029121.91448  20296527.269    20296535.3794
  21604592.941   -18310949.465 9 -14248750.27247  21604596.421    21604604.5044
  23846659.882    -8471962.415 7  -6576255.48345  23846662.511    23846672.9074
  22988312.116    -9043757.421 8  -7030382.77046  22988312.385    22988321.7484
  22868807.952   -12399493.824 8  -9650192.18846  22868809.934    22868818.7694
  23392663.233    -8328895.808 8  -6471213.78546  23392663.600    23392673.4264
  20760036.054   -22094720.834 9 -16978485.56948  20760039.416    20760047.6074
 00  7 19  3 42 30.0000000  0  7 22 03 31 19 25 16 01
  20305380.046   -26971982.556 9 -20992861.10048  20305382.679    20305390.4384
  21590739.438   -18383736.081 9 -14305467.05347  21590745.412    21590753.4324
  23824466.049    -8588533.291 7  -6667089.79945  23824480.720    23824490.4674
  22973109.031    -9123630.262 8  -7092621.24146  22973113.030    22973122.7374
  22881796.290   -12331230.647 8  -9597000.17046  22881800.235    22881809.0574
  23403039.091    -8274363.384 8  -6428720.98746  23403039.916    23403051.4744
  20754216.351   -22125313.666 9 -17002324.11148  20754218.242    20754225.5564
 00  7 19  3 43  0.0000000  0  7 22 03 31 19 25 16 01
  20314305.834   -26925079.333 9 -20956313.13748  20314308.124    20314315.7814
  21576972.005   -18456102.758 9 -14361856.60247  21576974.488    21576982.6764
  23802314.211    -8705038.698 7  -6757873.12845  23802309.054    23802320.8724
  22957922.784    -9203444.468 8  -7154814.05846  22957925.468    22957935.8134
  22894824.032   -12262777.462 8  -9543660.07746  22894826.961    22894835.0504
  23413490.670    -8219429.459 8  -6385915.33946  23413493.977    23413503.3974
  20748491.029   -22155385.837 9 -17025756.94448  20748495.458    20748503.1784
 00  7 19  3 43 30.0000000  0  7 22 03 31 19 25 16 01
  20323302.998   -26877809.680 9 -20919479.64248  20323303.317    20323311.2564
  21563283.087   -18528047.288 9 -14417917.20147  21563283.198    21563292.1574
  23780145.286    -8821476.056 7  -6848603.37945  23780152.178    23780162.7234
  22942743.837    -9283199.456 8  -7216960.69046  22942747.218    22942758.6094
  22907888.513   -12194134.531 8  -9490172.16446  22907888.361    22907898.1034
  23424020.638    -8164096.872 8  -6342799.04346  23424023.049    23424034.2094
  20742870.271   -22184935.834 9 -17048782.89148  20742872.458    20742880.0744
 00  7 19  3 44  0.0000000  0  7 22 03 31 19 25 16 01
  20332364.891   -26830175.955 9 -20882362.46348  20332367.960    20332375.7834
  21549671.693   -18599567.109 8 -14473646.85347  21549673.429    21549682.3704
  23758012.561    -8937842.228 8  -6939278.19045  23758009.479    23758019.2364
  22927580.105    -9362894.152 8  -7279060.35446  22927582.733    22927591.2114
  22920978.181   -12125302.102 8  -9436536.57746  22920986.594    22920995.6974
  23434625.214    -8108368.354 8  -6299374.24946  23434628.653    23434639.3774
  20737346.347   -22213962.183 9 -17071400.79748  20737348.810    20737356.6764
 00  7 19  3 44 30.0000000  0  7 22 03 31 19 25 16 01
  20341498.567   -26782179.955 9 -20844962.98848  20341501.540    20341508.9804
  21536143.555   -18670659.464 9 -14529043.40247  21536145.209    21536153.4164
  23735878.440    -9054134.464 8  -7029895.40445  23735878.502    23735889.0684
  22912426.754    -9442527.433 8  -7341112.18846  22912429.673    22912438.4164
  22934118.519   -12056280.045 8  -9382753.21746  22934122.136    22934130.7834
  23445304.929    -8052246.697 8  -6255643.10346  23445307.039    23445316.9764
  20731922.407   -22242463.440 9 -17093609.54248  20731924.873    20731932.9454
 00  7 19  3 45  0.0000000  0  7 22 03 31 19 25 16 01
  20350702.604   -26733823.247 9 -20807282.44348  20350703.437    20350710.8274
  21522694.456   -18741322.222 9 -14584105.23947  21522698.497    21522706.5934
  23713763.349    -9170349.793 8  -7120452.73245  23713763.696    23713774.3544
  22897281.942    -9522098.829 8  -7403115.77946  22897288.238    22897297.9704
  22947289.417   -11987068.455 8  -9328822.18446  22947292.227    22947301.5744
  23456057.710    -7995734.199 8  -6211607.39646  23456062.347    23456071.4224
  20726599.358   -22270438.168 9 -17115408.00848  20726601.818    20726609.4354
 00  7 19  3 45 30.0000000  0  7 22 03 31 19 25 16 01
  20359970.799   -26685107.815 9 -20769322.38348  20359973.054    20359981.1854
  21509333.011   -18811552.891 9 -14638830.36847  21509334.547    21509342.2634
  23691662.412    -9286485.573 8  -7210948.01545  23691663.515    23691673.6824
  22882153.489    -9601607.311 8  -7465070.33246  22882157.869    22882167.7714
  22960492.739   -11917667.736 8  -9274743.77146  22960498.778    22960508.2884
  23466886.763    -7938834.112 8  -6167269.66846  23466889.720    23466900.3304
  20721375.624   -22297884.753 9 -17136794.93148  20721378.855    20721386.6504
 00  7 19  3 46  0.0000000  0  7 22 03 31 19 25 16 01
  20369309.058   -26636035.865 9 -20731084.50348  20369311.178    20369319.2724
  21496049.049   -18881349.053 9 -14693216.92047  21496052.636    21496060.2844
  23669583.407    -9402538.807 8  -7301378.97845  23669579.138    23669590.2504
  22867035.348    -9681051.886 8  -7526975.09446  22867038.734    22867049.0234
  22973737.921   -11848077.661 8  -9220517.81346  22973741.834    22973750.6614
  23477786.723    -7881548.896 8  -6122631.83946  23477790.530    23477801.2194
  20716253.815   -22324801.830 9 -17157769.25648  20716256.405    20716264.3684
 00  7 19  3 46 30.0000000  0  7 22 03 31 19 25 16 01
  20378715.177   -26586609.854 9 -20692570.74048  20378716.762    20378724.6204
  21482850.233   -18950708.240 9 -14747262.97247  21482853.646    21482862.3894
  23647515.503    -9518506.717 8  -7391743.47045  23647511.740    23647520.9404
  22851929.036    -9760431.333 8  -7588829.12546  22851933.905    22851942.8194
  22987016.795   -11778298.431 8  -9166144.46746  22987020.141    22987029.5414
  23488761.853    -7823881.252 8  -6077696.02546  23488764.691    23488774.5494
  20711234.704   -22351187.935 9 -17178329.83548  20711235.451    20711243.5454
 00  7 19  3 47  0.0000000  0  7 22 03 31 19 25 16 01
  20388186.283   -26536831.421 9 -20653782.35448  20388189.575    20388196.8814
  21469734.172   -19019627.918 9 -14800966.54647  21469738.573    21469747.1064
  23625454.840    -9634386.284 8  -7482039.15145  23625459.797    23625470.1564
  22836836.451    -9839745.008 8  -7650631.89346  22836840.513    22836850.4044
  23000331.747   -11708330.080 8  -9111623.74346  23000334.827    23000344.8554
  23499807.303    -7765833.819 8  -6032464.26545  23499809.806    23499820.1914
  20706313.255   -22377041.791 9 -17198475.67048  20706315.606    20706323.3474
 00  7 19  3 47 30.0000000  0  7 22 03 31 19 25 16 01
  20397727.518   -26486702.327 9 -20614720.72048  20397729.000    20397736.0084
  21456703.956   -19088105.683 9 -14854325.77347  21456707.616    21456715.7194
  23603426.746    -9750174.409 8  -7572263.56945  23603425.845    23603436.4754
  22821760.198    -9918991.857 8  -7712382.57946  22821760.973    22821770.6394
  23013679.253   -11638172.628 8  -9056955.66046  23013685.312    23013695.2594
  23510927.926    -7707409.404 8  -5986938.77345  23510927.640    23510937.8794
  20701493.778   -22402361.992 9 -17218205.67748  20701497.411    20701505.3954
 00  7 19  3 48  0.0000000  0  7 22 03 31 19 25 16 01
  20407331.314   -26436224.301 9 -20575387.19448  20407335.071    20407342.1264
  21443757.067   -19156139.033 9 -14907338.71047  21443761.660    21443768.7284
  23581409.227    -9865868.478 8  -7662414.67845  23581409.712    23581421.0094
  22806689.029    -9998170.941 8  -7774080.47846  22806693.061    22806703.0094
  23027063.854   -11567826.385 8  -9002140.49846  23027070.669    23027081.4754
  23522113.192    -7648610.900 8  -5941121.75945  23522117.114    23522127.5414
  20696779.137   -22427147.210 9 -17237518.81048  20696780.933    20696788.7004
 00  7 19  3 48 30.0000000  0  7 22 03 31 19 25 16 01
  20417003.535   -26385399.831 9 -20535783.71148  20417006.247    20417013.3834
  21430900.529   -19223725.885 9 -14960003.74047  21430900.115    21430907.7494
  23559411.116    -9981465.360 8  -7752490.07345  23559412.625    23559422.7544
  22791635.333   -10077281.178 8  -7835724.75646  22791639.393    22791648.2994
  23040490.338   -11497291.660 8  -8947178.46846  23040493.635    23040503.3934
  23533373.980    -7589441.090 8  -5895015.41245  23533376.774    23533387.2784
  20692161.813   -22451396.021 9 -17256413.96348  20692166.369    20692174.4524
 00  7 19  3 49  0.0000000  0  7 22 03 31 19 25 16 01
  20426742.372   -26334231.136 9 -20495912.00548  20426743.202    20426750.6694
  21418121.851   -19290863.702 9 -15012318.86447  21418124.240    21418132.3584
  23537427.036   -10096962.311 8  -7842487.57545  23537434.897    23537444.2304
  22776594.613   -10156321.568 8  -7897314.58546  22776598.409    22776607.4014
  23053947.790   -11426568.489 8  -8892069.57846  23053952.587    23053961.1174
  23544706.484    -7529902.406 8  -5848621.64945  23544705.604    23544716.3834
  20687650.827   -22475106.956 9 -17274889.99048  20687654.239    20687662.2354
 00  7 19  3 49 30.0000000  0  7 22 03 31 19 25 16 01
  20436541.787   -26282719.924 9 -20455773.40548  20436544.949    20436553.1084
  21405431.783   -19357550.236 9 -15064282.32747  21405433.887    21405442.1414
  23515469.893   -10212356.485 8  -7932405.03645  23515474.970    23515485.3754
  22761564.691   -10235291.087 8  -7958849.17546  22761570.607    22761580.6514
  23067441.816   -11355657.033 8  -8836813.97646  23067446.374    23067455.8714
  23556099.930    -7469998.239 8  -5801943.07645  23556105.745    23556117.1214
  20683240.976   -22498278.760 9 -17292945.91948  20683244.851    20683252.9174
 00  7 19  3 50  0.0000000  0  7 22 03 31 19 25 16 01
  20446409.719   -26230867.897 9 -20415369.23548  20446412.183    20446420.3654
  21392826.227   -19423783.303 9 -15115892.45747  21392830.039    21392838.4424
  23493535.664   -10327645.209 8  -8022240.29545  23493536.581    23493546.7534
  22746556.037   -10314188.798 8  -8020327.83346  22746557.324    22746566.8094
  23080979.493   -11284557.468 8  -8781411.81946  23080976.183    23080986.0804
  23567571.455    -7409730.792 8  -5754981.42345  23567574.972    23567585.3134
  20678935.355   -22520910.087 9 -17310580.69748  20678938.405    20678946.0524
 00  7 19  3 50 30.0000000  0  7 22 03 31 19 25 16 01
  20456339.552   -26178676.988 9 -20374700.99448  20456343.853    20456352.0334
  21380310.273   -19489560.135 9 -15167147.06547  21380313.190    21380321.5004
  23471615.144   -10442825.197 8  -8111990.81945  23471618.948    23471628.7774
  22731552.376   -10393013.796 8  -8081749.81446  22731557.113    22731566.7634
  23094537.623   -11213269.628 8  -8725862.94846  23094541.931    23094550.9494
  23579110.198    -7349103.162 8  -5707739.12845  23579111.021    23579121.6784
  20674732.397   -22542999.821 9 -17327793.44648  20674734.813    20674742.5484
 00  7 19  3 51  0.0000000  0  7 22 03 31 19 25 16 01
  20466336.689   -26126149.615 9 -20333770.56948  20466339.791    20466347.3894
  21367880.489   -19554878.764 9 -15218044.64347  21367883.231    21367891.8054
  23449712.988   -10557893.504 8  -8201654.32545  23449722.047    23449731.1224
  22716566.119   -10471765.140 8  -8143114.39646  22716570.864    22716581.5294
  23108140.329   -11141793.748 8  -8670167.53946  23108144.313    23108152.0444
  23590712.611    -7288118.226 8  -5660218.42145  23590716.683    23590726.6974
  20670631.813   -22564546.694 9 -17344583.19648  20670634.767    20670642.0564
 00  7 19  3 51 30.0000000  0  7 22 03 31 19 25 16 01
  20476396.812   -26073287.959 9 -20292579.66848  20476399.131    20476406.4984
  21355535.397   -19619736.906 9 -15268583.39447  21355541.469    21355549.4184
  23427848.696   -10672847.236 8  -8291228.54845  23427847.031    23427857.1794
  22701595.109   -10550441.741 8  -8204420.71746  22701599.287    22701608.1364
  23121777.519   -11070130.378 8  -8614326.01246  23121780.664    23121789.5024
  23602384.588    -7226778.740 8  -5612421.43945  23602388.321    23602399.3434
  20666635.694   -22585549.384 9 -17360948.90248  20666637.751    20666645.5364
 00  7 19  3 52  0.0000000  0  7 22 03 31 19 25 16 01
  20486518.466   -26020093.665 9 -20251129.57348  20486520.982    20486528.8514
  21343284.524   -19684132.480 9 -15318761.70947  21343287.437    21343295.5484
  23406000.337   -10787683.511 8  -8380711.25445  23405994.569    23406003.7934
  22686640.011   -10629042.559 8  -8265668.03846  22686642.573    22686650.3624
  23135449.315   -10998279.780 8  -8558338.61746  23135452.864    23135462.9504
  23614127.585    -7165087.464 8  -5564350.33445  23614129.320    23614139.1044
  20662741.793   -22606006.635 9 -17376889.58948  20662744.637    20662752.5164
 00  7 19  3 52 30.0000000  0  7 22 03 31 19 25 16 01
  20496706.368   -25966568.459 9 -20209421.61748  20496706.695    20496714.3894
  21331119.747   -19748063.072 9 -15368577.70047  21331121.582    21331129.5024
  23384164.530   -10902399.326 8  -8470100.06945  23384164.289    23384174.7264
  22671698.599   -10707566.602 8  -8326855.52246  22671699.361    22671709.1094
  23149156.212   -10926241.430 8  -8502204.93946  23149162.176    23149171.9184
  23625934.357    -7103047.399 8  -5516007.42945  23625933.517    23625945.8794
  20658953.862   -22625917.212 9 -17392404.29748  20658955.806    20658963.4724
 00  7 19  3 53  0.0000000  0  7 22 03 31 19 25 16 01
  20506951.486   -25912714.398 9 -20167457.42448  20506954.776    20506962.6894
  21319042.343   -19811526.184 9 -15418029.42347  21319045.057    21319053.0404
  23362356.470   -11016991.708 8  -8559392.69645  23362357.973    23362368.3334
  22656767.863   -10786012.580 8  -8387982.16346  22656771.032    22656780.7274
  23162904.576   -10854015.793 8  -8445925.28946  23162905.805    23162915.1044
  23637802.430    -7040661.471 8  -5467395.03245  23637806.879    23637815.8234
  20655267.494   -22645280.047 9 -17407492.20148  20655271.056    20655278.9294
 00  7 19  3 53 30.0000000  0  7 22 03 31 19 25 16 01
  20517264.544   -25858533.810 9 -20125238.79248  20517264.961    20517272.7804
  21307053.308   -19874519.858 9 -15467115.34947  21307057.588    21307065.5214
  23340563.045   -11131457.889 8  -8648586.98745  23340575.452    23340586.2614
  22641856.784   -10864379.726 8  -8449047.35646  22641858.803    22641867.0544
  23176684.938   -10781602.933 8  -8389499.78146  23176685.912    23176696.2284
  23649740.260    -6977932.266 8  -5418515.14545  23649742.427    23649752.0454
  20651688.488   -22664093.907 9 -17422152.33448  20651691.035    20651698.8834
 00  7 19  3 54  0.0000000  0  7 22 03 31 19 25 16 01
  20527634.105   -25804028.946 9 -20082767.47248  20527637.129    20527644.8984
  21295157.161   -19937041.782 9 -15515833.67447  21295159.671    21295167.8894
  23318818.029   -11245795.249 8  -8737680.89845  23318817.876    23318828.2134
  22626954.795   -10942667.014 8  -8510050.37246  22626960.026    22626969.2404
  23190494.052   -10709003.338 8  -8332928.77046  23190500.914    23190511.2524
  23661741.255    -6914862.857 8  -5369370.14545  23661743.337    23661755.2014
  20648213.102   -22682357.718 9 -17436383.85248  20648215.838    20648223.7434
 00  7 19  3 54 30.0000000  0  7 22 03 31 19 25 16 01
  20538067.839   -25749201.227 9 -20040044.56348  20538070.487    20538078.1474
  21283351.517   -19999089.894 9 -15564182.79747  21283352.586    21283360.3524
  23297077.688   -11360000.432 8  -8826671.79345  23297085.098    23297095.3394
  22612075.788   -11020873.270 8  -8570990.20246  22612078.199    22612088.2234
  23204349.317   -10636217.138 8  -8276212.34246  23204351.755    23204362.0134
  23673808.306    -6851456.263 8  -5319962.41845  23673810.264    23673820.9554
  20644842.688   -22700070.372 9 -17450185.90448  20644845.336    20644853.0834
 00  7 19  3 55  0.0000000  0  7 22 03 31 19 25 16 01
  20548564.273   -25694052.563 9 -19997071.58048  20548565.353    20548572.7914
  21271632.146   -20060661.722 9 -15612160.79147  21271635.774    21271643.6084
  23275379.536   -11474070.466 8  -8915557.41945  23275378.631    23275387.8554
  22597207.203   -11098997.691 8  -8631866.24746  22597210.980    22597221.6874
  23218233.464   -10563244.636 8  -8219350.75546  23218237.622    23218247.5724
  23685937.471    -6787715.097 8  -5270294.01545  23685941.019    23685950.6834
  20641575.816   -22717230.649 9 -17463557.53048  20641579.607    20641587.1384
 00  7 19  3 55 30.0000000  0  7 22 03 31 19 25 16 01
  20559118.379   -25638584.995 9 -19953850.09548  20559119.889    20559127.6664
  21260005.423   -20121755.249 9 -15659766.08447  21260010.012    21260017.8594
  23253693.609   -11588002.560 8  -9004335.54345  23253697.650    23253706.6354
  22582357.684   -11177038.771 8  -8692677.39446  22582361.495    22582369.6774
  23232159.732   -10490085.661 8  -8162343.85546  23232160.800    23232169.5674
  23698130.390    -6723642.278 8  -5220367.16645  23698132.724    23698144.0974
  20638415.380   -22733837.387 9 -17476497.82948  20638419.198    20638426.6594
 00  7 19  3 56  0.0000000  0  7 22 03 31 19 25 16 01
  20569732.908   -25582800.987 9 -19910382.03448  20569734.976    20569742.9594
  21248472.571   -20182368.518 9 -15706997.14347  21248475.554    21248483.6794
  23232045.383   -11701793.594 8  -9093003.73845  23232043.652    23232054.0964
  22567524.757   -11254995.568 8  -8753422.86946  22567526.332    22567534.9394
  23246114.003   -10416740.867 8  -8105192.15146  23246117.640    23246126.5224
  23710384.218    -6659241.129 8  -5170184.49145  23710388.373    23710398.2924
  20635361.820   -22749889.525 9 -17489005.97348  20635364.816    20635372.2674
 00  7 19  3 56 30.0000000  0  7 22 03 31 19 25 16 01
  20580407.978   -25526702.569 9 -19866668.99048  20580409.983    20580418.1464
  21237029.968   -20242499.406 9 -15753852.33347  21237032.980    21237041.1944
  23210419.681   -11815441.071 8  -9181560.06045  23210417.072    23210426.6134
  22552703.870   -11332867.144 8  -8814101.90346  22552707.561    22552717.0404
  23260105.083   -10343210.132 8  -8047895.55346  23260109.700    23260119.7494
  23722706.826    -6594513.925 8  -5119747.73145  23722704.701    23722716.7474
  20632413.498   -22765386.034 9 -17501081.15948  20632416.300    20632423.5354
 00  7 19  3 57  0.0000000  0  7 22 03 31 19 25 16 01
  20591142.101   -25470291.139 9 -19822712.03548  20591145.101    20591152.9504
  21225679.890   -20302145.493 9 -15800329.74647  21225682.813    21225691.1014
  23188813.153   -11928941.695 8  -9270002.00045  23188818.466    23188828.1654
  22537902.722   -11410652.174 8  -8874713.53246  22537905.739    22537914.6284
  23274137.492   -10269493.742 8  -7990454.31346  23274137.846    23274146.4444
  23735083.417    -6529464.306 8  -5069059.72345  23735084.259    23735094.1904
  20629569.432   -22780326.001 9 -17512722.67448  20629572.778    20629580.9224
 00  7 19  3 57 30.0000000  0  7 22 03 31 19 25 16 01
  20601938.074   -25413568.622 9 -19778512.66548  20601939.219    20601946.7744
  21214422.663   -20361304.817 9 -15846427.86447  21214424.885    21214433.0594
  23167236.947   -12042292.217 8  -9358326.95046  23167248.447    23167258.5364
  22523118.291   -11488349.366 8  -8935256.72046  22523120.522    22523128.7344
  23288195.125   -10195592.214 8  -7932868.76746  23288200.680    23288209.3054
  23747520.506    -6464094.651 8  -5018122.34145  23747522.883    23747532.7294
  20626832.693   -22794708.462 9 -17523929.77148  20626835.599    20626844.0074
 00  7 19  3 58  0.0000000  0  7 22 03 31 19 25 16 01
  20612791.408   -25356537.214 9 -19734072.60448  20612792.503    20612799.3994
  21203255.174   -20419975.394 9 -15892145.14147  21203260.309    21203267.9734
  23145702.475   -12155489.985 8  -9446532.86146  23145707.984    23145717.5624
  22508347.809   -11565957.791 8  -8995730.70546  22508350.676    22508361.1134
  23302295.597   -10121505.303 8  -7875138.79046  23302298.736    23302307.9974
  23760020.155    -6398408.106 8  -4966938.02745  23760022.790    23760034.7174
  20624202.503   -22808532.495 9 -17534701.73648  20624205.427    20624213.3564
 00  7 19  3 58 30.0000000  0  7 22 03 31 19 25 16 01
  20623701.469   -25299199.220 9 -19689393.64248  20623703.337    20623710.4694
  21192186.098   -20478155.078 9 -15937479.90947  21192189.202    21192196.7394
  23124198.675   -12268532.196 8  -9534617.57246  23124196.031    23124206.2724
  22493598.347   -11643476.565 8  -9056134.84846  22493601.263    22493610.2134
  23316427.487   -10047233.451 8  -7817264.70346  23316431.295    23316442.6784
  23772575.591    -6332407.453 7  -4915508.99945  23772582.115    23772593.0034
  20621678.320   -22821797.088 9 -17545037.77348  20621681.240    20621688.6464
 00  7 19  3 59  0.0000000  0  7 22 03 31 19 25 16 01
  20634668.887   -25241556.588 9 -19644477.30048  20634672.348    20634679.4944
  21181208.065   -20535841.933 9 -15982430.65847  21181211.517    21181219.5114
  23102714.593   -12381415.750 8  -9622578.64346  23102715.804    23102724.7704
  22478864.460   -11720904.247 8  -9116468.02946  22478867.003    22478875.0024
  23330593.144    -9972776.756 8  -7759246.61746  23330599.941    23330611.0374
  23785199.605    -6266096.154 7  -4863837.87245  23785200.577    23785211.6904
  20619260.617   -22834501.215 9 -17554937.07848  20619263.606    20619271.1874
 00  7 19  3 59 30.0000000  0  7 22 03 31 19 25 16 01
  20645695.386   -25183610.779 9 -19599324.72448  20645698.252    20645706.5694
  21170323.355   -20593033.968 9 -16026995.83647  21170327.987    21170336.2884
  23081260.285   -12494137.682 8  -9710413.79646  23081265.264    23081274.4404
  22464146.530   -11798239.721 8  -9176729.35046  22464149.712    22464158.4584
  23344798.418    -9898135.554 8  -7701084.73046  23344805.160    23344814.6934
  23797879.044    -6199476.291 8  -4811926.34945  23797877.384    23797889.3874
  20616949.154   -22846644.007 9 -17564398.97748  20616952.794    20616960.7544
 00  7 19  4  0  0.0000000  0  7 22 03 31 19 25 16 01
  20656782.469   -25125363.830 9 -19553937.49447  20656782.167    20656790.2444
  21159534.888   -20649729.231 9 -16071173.90947  21159539.143    21159547.4814
  23059845.789   -12606695.125 8  -9798120.76046  23059846.427    23059855.3924
  22449444.330   -11875481.939 8  -9236918.00946  22449451.156    22449459.3374
  23359044.687    -9823309.918 8  -7642779.12646  23359043.634    23359053.9104
  23810605.042    -6132551.721 8  -4759777.35645  23810613.973    23810625.1104
  20614746.465   -22858224.536 9 -17573422.75848  20614749.022    20614757.2534
 00  7 19  4  0 30.0000000  0  7 22 03 31 19 25 16 01
  20667921.711   -25066817.865 9 -19508317.27347  20667923.504    20667931.0414
  21148843.413   -20705925.727 9 -16114963.32847  21148845.363    21148853.7014
  23038455.620   -12719085.008 8  -9885697.19046  23038459.155    23038468.1304
  22434770.865   -11952629.559 8  -9297032.97646  22434771.706    22434779.0814
  23373307.268    -9748300.261 8  -7584330.11446  23373317.861    23373327.9114
  23823403.276    -6065325.100 8  -4707393.01045  23823407.430    23823418.0824
  20612649.485   -22869241.927 9 -17582007.72948  20612652.608    20612660.5184
 00  7 19  4  1  0.0000000  0  7 22 03 31 19 25 16 01
  20679117.430   -25007975.263 9 -19462465.89647  20679121.100    20679128.4144
  21138244.091   -20761621.446 9 -16158362.54347  21138247.078    21138254.5644
  23017107.512   -12831304.441 8  -9973140.78146  23017104.322    23017113.9344
  22420105.745   -12029681.898 8  -9357073.67346  22420107.845    22420116.6644
  23387627.048    -9673106.885 8  -7525738.00146  23387627.729    23387637.1774
  23836255.644    -5997799.425 8  -4654775.64045  23836256.118    23836267.8234
  20610660.286   -22879695.255 9 -17590153.16748  20610663.395    20610671.0014
 00  7 19  4  1 30.0000000  0  7 22 03 31 19 25 16 01
  20690372.002   -24948837.735 9 -19416384.69848  20690375.143    20690382.3084
  21127739.831   -20816814.124 9 -16201369.78547  21127744.338    21127751.8004
  22995781.662   -12943350.750 8 -10060449.44946  22995782.294    22995791.6174
  22405463.658   -12106637.721 8  -9417039.16046  22405464.098    22405472.0184
  23401964.588    -9597730.060 8  -7467002.90146  23401970.499    23401980.0254
  23849162.922    -5929977.493 8  -4601927.41245  23849162.529    23849172.9764
  20608779.447   -22889583.740 9 -17597858.46548  20608781.569    20608789.4404
 00  7 19  4  2  0.0000000  0  7 22 03 31 19 25 16 01
  20701683.915   -24889406.863 9 -19370074.91448  20701684.372    20701691.4524
  21117332.765   -20871502.201 9 -16243983.82847  21117337.283    21117345.4394
  22974484.727   -13055220.701 8 -10147620.71546  22974493.876    22974502.6814
  22390838.709   -12183495.848 8  -9476928.54446  22390838.998    22390846.2204
  23416349.143    -9522169.790 8  -7408124.87546  23416348.834    23416358.4354
  23862119.083    -5861862.588 8  -4548850.89645  23862124.363    23862135.2974
  20607004.721   -22898906.563 9 -17605122.98248  20607007.517    20607015.5354
 00  7 19  4  2 30.0000000  0  7 22 03 31 19 25 16 01
  20713048.105   -24829684.487 9 -19323537.98647  20713048.448    20713056.6004
  21107024.508   -20925683.585 9 -16286203.04547  21107026.992    21107035.0604
  22953234.184   -13166911.262 8 -10234652.21046  22953240.185    22953249.0984
  22376225.164   -12260254.702 8  -9536740.57046  22376230.536    22376239.4174
  23430754.404    -9446426.380 8  -7349104.13246  23430762.796    23430772.2544
  23875137.149    -5793457.384 8  -4495548.16345  23875140.621    23875152.0474
  20605339.131   -22907662.874 9 -17611946.07348  20605341.367    20605349.3224
 00  7 19  4  3  0.0000000  0  7 22 03 31 19 25 16 01
  20724464.177   -24769673.104 9 -19276775.87647  20724468.032    20724476.4124
  21096810.492   -20979356.375 9 -16328025.96247  21096813.567    21096821.4074
  22932021.560   -13278419.511 8 -10321541.64746  22932020.492    22932030.1444
  22361636.720   -12336913.293 8  -9596474.47046  22361643.440    22361652.7504
  23445207.666    -9370500.282 8  -7289941.02746  23445210.779    23445221.3864
  23888206.094    -5724765.294 8  -4442021.88045  23888212.696    23888224.6804
  20603780.316   -22915851.994 9 -17618327.19448  20603782.989    20603790.8774
 00  7 19  4  3 30.0000000  0  7 22 03 31 19 25 16 01
  20735939.893   -24709374.800 9 -19229790.18847  20735942.623    20735950.3434
  21086692.092   -21032518.810 9 -16369451.19447  21086697.170    21086704.9564
  22910833.532   -13389742.380 8 -10408286.58446  22910835.546    22910845.4884
  22347070.768   -12413470.414 8  -9656129.27146  22347075.289    22347083.6374
  23459690.710    -9294391.739 8  -7230635.77745  23459693.767    23459703.9614
  23901342.645    -5655789.037 8  -4388274.16345  23901339.633    23901350.0534
  20602330.303   -22923473.238 9 -17624265.81048  20602332.821    20602340.4904
 00  7 19  4  4  0.0000000  0  7 22 03 31 19 25 16 01
  20747469.983   -24648791.407 9 -19182582.35747  20747471.958    20747479.1504
  21076677.712   -21085168.975 9 -16410477.25147  21076677.837    21076685.8404
  22889684.862   -13500877.031 8 -10494884.88646  22889688.309    22889697.0984
  22332522.380   -12489924.736 8  -9715704.00046  22332525.923    22332534.1434
  23474208.942    -9218100.865 8  -7171188.46545  23474212.180    23474220.9564
  23914517.300    -5586531.894 8  -4334307.56745  23914518.642    23914529.4634
  20600987.340   -22930525.858 9 -17629761.34348  20600990.588    20600998.5754
 00  7 19  4  4 30.0000000  0  7 22 03 31 19 25 16 01
  20759051.887   -24587924.365 9 -19135153.49547  20759054.322    20759061.9534
  21066753.121   -21137305.027 9 -16451102.70447  21066756.487    21066764.7544
  22868570.819   -13611820.541 8 -10581334.26546  22868576.302    22868585.3144
  22317995.574   -12566275.321 8  -9775197.88346  22317997.053    22318005.1364
  23488764.677    -9141628.018 8  -7111599.30945  23488764.548    23488773.6074
  23927744.504    -5516996.543 8  -4280124.19545  23927750.123    23927760.5514
  20599754.918   -22937009.005 9 -17634813.14248  20599756.888    20599764.6884
 00  7 19  4  5  0.0000000  0  7 22 03 31 19 25 16 01
  20770689.950   -24526775.670 9 -19087505.16847  20770690.801    20770697.7844
  21056930.609   -21188925.095 9 -16491326.09247  21056933.542    21056941.7574
  22847495.776   -13722569.965 8 -10667632.39046  22847500.342    22847510.2634
  22303486.415   -12642520.806 8  -9834609.86746  22303487.679    22303496.6944
  23503346.429    -9064973.490 8  -7051868.61846  23503351.293    23503361.4164
  23941032.567    -5447186.310 8  -4225726.64045  23941034.868    23941045.6624
  20598627.498   -22942922.187 9 -17639420.80248  20598631.494    20598639.3114
 00  7 19  4  5 30.0000000  0  7 22 03 31 19 25 16 01
  20782375.504   -24465347.644 9 -19039639.17247  20782379.309    20782387.3954
  21047205.696   -21240027.399 9 -16531146.02047  21047209.000    21047216.8764
  22826461.459   -13833122.370 8 -10753777.00246  22826463.090    22826473.0114
  22288994.286   -12718659.990 8  -9893939.02346  22288998.681    22289008.4354
  23517972.665    -8988137.793 8  -6991996.77646  23517972.274    23517984.3524
  23954368.234    -5377104.050 8  -4171117.12745  23954371.255    23954382.4524
  20597611.620   -22948264.748 9 -17643583.82448  20597614.903    20597622.8884
 00  7 19  4  6  0.0000000  0  7 22 03 31 19 25 16 01
  20794120.597   -24403642.405 9 -18991557.18347  20794121.170    20794129.5694
  21037579.463   -21290610.283 9 -16570561.21847  21037583.817    21037591.3804
  22805460.326   -13943474.631 8 -10839765.61546  22805463.283    22805473.5774
  22274530.297   -12794691.598 8  -9953184.34946  22274531.199    22274539.2454
  23532621.622    -8911121.061 8  -6931983.86546  23532628.658    23532639.6544
  23967760.804    -5306753.002 8  -4116298.12745  23967759.273    23967769.1964
  20596704.351   -22953035.972 9 -17647301.64648  20596707.131    20596715.1964
 00  7 19  4  6 30.0000000  0  7 22 03 31 19 25 16 01
  20805913.748   -24341661.499 9 -18943260.38147  20805915.949    20805924.4254
  21028056.914   -21340671.732 9 -16609570.10247  21028057.483    21028064.9024
  22784496.476   -14053623.831 8 -10925596.04246  22784502.995    22784512.4734
  22260080.571   -12870614.252 8 -10012344.80446  22260083.027    22260090.7894
  23547318.650    -8833923.501 8  -6871830.04545  23547318.576    23547329.4834
  23981192.595    -5236135.815 8  -4061271.77645  23981196.642    23981207.0274
  20595904.621   -22957235.315 9 -17650573.84948  20595907.914    20595915.8544
 00  7 19  4  7  0.0000000  0  7 22 03 31 19 25 16 01
  20817761.132   -24279406.736 9 -18894750.18647  20817763.825    20817770.8974
  21018626.000   -21390210.328 9 -16648171.57247  21018630.222    21018637.5094
  22763575.262   -14163567.609 8 -11011266.40846  22763581.829    22763590.5574
  22245654.174   -12946426.907 8 -10071419.53046  22245655.944    22245665.4244
  23562038.671    -8756545.289 8  -6811535.42245  23562043.651    23562053.8014
  23994679.076    -5165255.776 8  -4006040.57045  23994684.599    23994695.2424
  20595214.187   -22960862.169 9 -17653399.95748  20595217.664    20595225.5114
 00  7 19  4  7 30.0000000  0  7 22 03 31 19 25 16 01
  20829661.130   -24216879.970 9 -18846028.02547  20829662.183    20829669.4544
  21009299.170   -21439224.378 9 -16686364.30947  21009303.348    21009310.4114
  22742700.604   -14273302.114 8 -11096773.69546  22742699.954    22742709.1674
  22231248.076   -13022128.249 8 -10130407.50046  22231250.768    22231259.5114
  23576805.556    -8678986.647 8  -6751100.26045  23576802.765    23576813.1264
  24008219.795    -5094115.908 7  -3950606.91345  24008220.191    24008232.8454
  20594632.794   -22963915.813 9 -17655779.40948  20594636.695    20594644.2844
 00  7 19  4  8  0.0000000  0  7 22 03 31 19 25 16 01
  20841611.350   -24154083.582 9 -18797095.78047  20841611.597    20841619.2184
  21000073.180   -21487711.988 9 -16724146.82847  21000076.117    21000083.4344
  22721854.166   -14382824.443 8 -11182115.63946  22721857.889    22721867.0344
  22216862.421   -13097716.822 8 -10189307.63646  22216867.409    22216875.0674
  23591587.132    -8601248.138 8  -6690524.92546  23591595.866    23591606.6824
  24021802.492    -5022719.590 8  -3894973.44545  24021807.455    24021817.7694
  20594162.320   -22966395.661 9 -17657711.74648  20594164.807    20594172.7354
 00  7 19  4  8 30.0000000  0  7 22 03 31 19 25 16 01
  20853610.583   -24091019.591 9 -18747955.01047  20853611.682    20853619.4224
  20990947.181   -21535671.473 9 -16761517.82147  20990949.745    20990957.4654
  22701058.813   -14492131.966 8 -11267290.21746  22701056.683    22701066.3784
  22202502.676   -13173191.439 8 -10248118.96946  22202504.524    22202512.5764
  23606416.868    -8523330.335 8  -6629809.84045  23606422.602    23606432.8094
  24035441.717    -4951069.350 8  -3839142.10445  24035443.468    24035453.6834
  20593799.651   -22968301.508 9 -17659196.80948  20593802.010    20593809.9684
 00  7 19  4  9  0.0000000  0  7 22 03 31 19 25 16 01
  20865662.510   -24027689.505 9 -18698606.90247  20865663.085    20865670.6954
  20981920.925   -21583101.328 9 -16798476.11447  20981923.928    20981931.6124
  22680296.668   -14601221.572 8 -11352295.00046  22680298.867    22680307.1004
  22188163.777   -13248550.952 8 -10306840.59646  22188164.537    22188172.0644
  23621280.975    -8445233.264 8  -6568955.08945  23621285.545    23621294.3654
  24049122.568    -4879168.584 7  -3783115.55045  24049124.396    24049135.6514
  20593545.980   -22969632.661 9 -17660234.05848  20593548.802    20593556.5274
 00  7 19  4  9 30.0000000  0  7 22 03 31 19 25 16 01
  20877762.126   -23964094.992 9 -18649052.74547  20877764.898    20877772.7044
  20972993.048   -21629999.843 9 -16835020.38047  20972999.228    20973007.3964
  22659582.872   -14710090.239 8 -11437127.60946  22659581.403    22659590.3934
  22173843.706   -13323794.034 8 -10365471.50446  22173845.979    22173854.2984
  23636177.817    -8366957.457 8  -6507961.08145  23636181.141    23636191.0964
  24062852.101    -4807020.189 7  -3726896.04245  24062854.497    24062865.9754
  20593402.876   -22970388.621 9 -17660823.10948  20593405.116    20593412.6604
 00  7 19  4 10  0.0000000  0  7 22 03 31 19 25 16 01
  20889914.040   -23900238.242 9 -18599294.24347  20889916.913    20889924.2294
  20964171.373   -21676365.262 9 -16871149.24047  20964176.166    20964184.3364
  22638906.012   -14818735.106 8 -11521785.82446  22638907.144    22638915.8834
  22159546.985   -13398919.279 8 -10424010.58946  22159549.153    22159558.1384
  23651108.082    -8288503.190 8  -6446828.01545  23651108.754    23651120.7864
  24076636.947    -4734627.346 8  -3670486.08245  24076630.389    24076641.2654
  20593367.256   -22970569.220 9 -17660963.82348  20593370.737    20593378.3084
 00  7 19  4 10 30.0000000  0  7 22 03 31 19 25 16 01
  20902117.348   -23836121.403 9 -18549333.06847  20902118.017    20902125.4624
  20955453.580   -21722196.135 9 -16906861.56347  20955455.246    20955463.4404
  22618274.776   -14927153.323 8 -11606267.44446  22618276.080    22618284.8254
  22145269.665   -13473925.282 8 -10482456.75546  22145275.917    22145285.0004
  23666073.293    -8209870.621 8  -6385556.00545  23666072.321    23666082.1874
  24090445.136    -4661993.398 7  -3613888.19645  24090451.878    24090462.6974
  20593440.922   -22970174.019 9 -17660655.85248  20593445.314    20593453.3554
 00  7 19  4 11  0.0000000  0  7 22 03 31 19 25 16 01
  20914366.758   -23771746.469 9 -18499170.78947  20914368.155    20914375.5024
  20946833.291   -21767490.751 9 -16942156.04747  20946836.294    20946843.9704
  22597689.310   -15035341.968 8 -11690570.16046  22597687.201    22597696.6764
  22131024.591   -13548810.902 8 -10540809.13346  22131026.230    22131034.2644
  23681069.715    -8131060.234 8  -6324145.41445  23681069.872    23681079.4054
  24104319.241    -4589121.190 7  -3557104.66845  24104319.479    24104330.7534
  20593626.039   -22969202.231 9 -17659898.60648  20593630.281    20593638.2494
 00  7 19  4 11 30.0000000  0  7 22 03 31 19 25 16 01
  20926663.873   -23707114.872 9 -18448808.52247  20926666.216    20926673.9704
  20938314.022   -21812247.692 9 -16977031.54547  20938319.087    20938326.9634
  22577140.407   -15143298.109 8 -11774691.71846  22577144.428    22577152.5294
  22116798.990   -13623574.986 8 -10599066.82046  22116799.049    22116807.3884
  23696098.968    -8052072.228 8  -6262596.41245  23696100.287    23696110.7754
  24118228.976    -4516013.649 8  -3500137.84145  24118231.348    24118241.0824
  20593922.553   -22967653.549 9 -17658691.83048  20593925.391    20593932.7294
 00  7 19  4 12  0.0000000  0  7 22 03 31 19 25 16 01
  20939011.451   -23642228.264 9 -18398247.54547  20939013.599    20939021.6204
  20929901.846   -21856465.340 9 -17011486.82447  20929904.408    20929912.6434
  22556640.379   -15251018.658 8 -11858629.73046  22556645.704    22556654.5164
  22102591.965   -13698216.100 8 -10657228.65146  22102594.678    22102603.9884
  23711166.916    -7972906.862 8  -6200909.27045  23711166.327    23711175.2064
  24132185.448    -4442674.065 8  -3442990.13045  24132188.503    24132198.3704
  20594326.520   -22965527.809 9 -17657035.39148  20594329.772    20594337.1504
 00  7 19  4 12 30.0000000  0  7 22 03 31 19 25 16 01
  20951407.379   -23577088.942 9 -18347489.63547  20951409.528    20951417.0584
  20921590.103   -21900142.298 9 -17045520.78447  20921592.736    20921601.2074
  22536187.628   -15358500.816 8 -11942381.95046  22536192.510    22536201.2574
  22088411.813   -13772732.753 8 -10715293.51946  22088415.405    22088424.1714
  23726255.855    -7893564.768 8  -6139084.37245  23726264.369    23726273.6204
  24146184.724    -4369105.449 7  -3385663.94845  24146187.034    24146197.9214
  20594841.970   -22962824.731 9 -17654929.08448  20594844.318    20594851.6744
 00  7 19  4 13  0.0000000  0  7 22 03 31 19 25 16 01
  20963849.767   -23511699.075 9 -18296536.50847  20963852.960    20963860.4044
  20913380.358   -21943277.005 9 -17079132.21347  20913384.732    20913392.7304
  22515786.536   -15465741.374 8 -12025945.91746  22515785.800    22515794.3364
  22074255.542   -13847123.485 8 -10773260.27946  22074258.557    22074267.2414
  23741393.547    -7814046.234 8  -6077121.96945  23741394.837    23741406.4064
  24160226.139    -4295310.873 7  -3328161.70445  24160227.736    24160240.4194
  20595466.153   -22959544.012 9 -17652372.66948  20595468.696    20595476.2994
 00  7 19  4 13 30.0000000  0  7 22 03 31 19 25 16 01
  20976343.091   -23446060.492 9 -18245389.57347  20976344.098    20976351.2004
  20905276.013   -21985867.798 9 -17112319.82447  20905280.196    20905287.5984
  22495417.238   -15572737.495 8 -12109319.42246  22495424.460    22495433.3814
  22060119.279   -13921387.048 8 -10831127.94146  22060125.851    22060135.6234
  23756554.963    -7734351.759 8  -6015022.52045  23756560.833    23756572.5054
  24174313.200    -4221293.591 7  -3270485.97045  24174314.676    24174325.6824
  20596199.563   -22955685.278 9 -17649365.85448  20596202.788    20596210.4574
 00  7 19  4 14  0.0000000  0  7 22 03 31 19 25 16 01
  20988881.081   -23380174.479 9 -18194049.83147  20988881.520    20988889.4084
  20897273.826   -22027913.495 9 -17145082.67047  20897278.889    20897286.8304
  22475110.260   -15679486.218 8 -12192500.14246  22475110.663    22475119.4164
  22046018.201   -13995522.357 8 -10888895.65446  22046018.887    22046028.4654
  23771760.583    -7654481.694 8  -5952786.23945  23771762.172    23771771.7654
  24188441.620    -4147056.547 7  -3212638.97145  24188442.084    24188452.6854
  20597042.987   -22951248.137 9 -17645908.33248  20597047.114    20597054.8064
 00  7 19  4 14 30.0000000  0  7 22 03 31 19 25 16 01
  21001463.184   -23314042.874 9 -18142518.72747  21001465.488    21001473.7514
  20889377.872   -22069412.645 9 -17177419.64147  20889381.606    20889389.8724
  22454844.235   -15785984.620 8 -12275485.80546  22454844.477    22454853.6154
  22031933.771   -14069527.923 8 -10946562.26246  22031936.493    22031945.3934
  23786989.606    -7574436.231 8  -5890413.24345  23786993.187    23787003.3544
  24202610.465    -4072602.532 8  -3154622.86245  24202611.044    24202620.0604
  20597999.828   -22946232.545 9 -17642000.06348  20598001.530    20598009.1394
 00  7 19  4 15  0.0000000  0  7 22 03 31 19 25 16 01
  21014095.146   -23247667.959 9 -18090798.02247  21014096.533    21014104.3114
  20881585.506   -22110363.790 9 -17209329.60047  20881589.287    20881596.9904
  22434626.561   -15892229.977 8 -12358274.31346  22434627.207    22434635.3384
  22017874.220   -14143402.252 8 -11004126.63446  22017878.042    22017886.9984
  23802256.492    -7494215.543 7  -5827903.73845  23802257.786    23802269.6914
  24216814.391    -3997935.300 8  -3096440.63045  24216818.593    24216828.8984
  20599062.807   -22940638.165 9 -17637640.79148  20599066.231    20599073.9064
 00  7 19  4 15 30.0000000  0  7 22 03 31 19 25 16 01
  21026772.118   -23181051.749 9 -18038889.29047  21026773.080    21026780.9394
  20873899.552   -22150765.359 9 -17240811.32047  20873901.251    20873908.5554
  22414456.239   -15998219.025 8 -12440863.09946  22414457.910    22414466.2444
  22003841.457   -14217144.025 8 -11061587.68446  22003845.834    22003854.1624
  23817549.952    -7413820.457 8  -5765258.38445  23817555.872    23817567.2544
  24231053.320    -3923057.536 7  -3038094.33245  24231066.946    24231078.3644
  20600238.400   -22934464.751 9 -17632830.33248  20600240.937    20600248.7214
 00  7 19  4 16  0.0000000  0  7 22 03 31 19 25 16 01
  21039493.111   -23114195.990 9 -17986793.90947  21039495.488    21039502.7544
  20866313.698   -22190616.024 9 -17271863.75947  20866317.762    20866325.4574
  22394335.707   -16103948.945 8 -12523249.96846  22394337.502    22394346.0704
  21989836.893   -14290751.674 8 -11118944.25647  21989839.595    21989847.7994
  23832893.051    -7333251.215 8  -5702477.28245  23832889.217    23832900.5844
  24245358.338    -3847972.402 8  -2979586.46145  24245355.606    24245365.9234
  20601522.134   -22927712.280 9 -17627568.65548  20601525.971    20601533.6594
 00  7 19  4 16 30.0000000  0  7 22 03 31 19 25 16 01
  21052259.172   -23047102.056 9 -17934512.92947  21052263.246    21052270.3524
  20858836.013   -22229914.549 9 -17302485.96047  20858839.415    20858847.3304
  22374264.801   -16209416.610 8 -12605432.47946  22374268.240    22374276.6544
  21975854.726   -14364223.871 8 -11176195.26347  21975857.297    21975865.9004
  23848243.617    -7252508.166 8  -5639560.78145  23848253.875    23848262.6734
  24259682.282    -3772683.117 7  -2920919.53245  24259681.868    24259693.2034
  20602917.522   -22920380.528 9 -17621855.59348  20602921.098    20602928.8494
 00  7 19  4 17  0.0000000  0  7 22 03 31 19 25 16 01
  21065071.734   -22979771.852 9 -17882047.84647  21065075.709    21065083.2324
  20851462.159   -22268659.451 9 -17332676.76947  20851466.509    20851474.0904
  22354246.327   -16314619.505 8 -12687408.67246  22354248.557    22354257.3094
  21961896.262   -14437559.429 8 -11233339.79847  21961901.920    21961910.5764
  23863647.720    -7171591.785 8  -5576509.17745  23863653.370    23863662.3414
  24274039.873    -3697192.786 7  -2862095.90445  24274047.523    24274058.5144
  20604423.286   -22912469.433 9 -17615691.09848  20604426.676    20604434.3744
 00  7 19  4 17 30.0000000  0  7 22 03 31 19 25 16 01
  21077932.469   -22912207.587 9 -17829400.38747  21077932.678    21077940.3474
  20844196.073   -22306849.805 9 -17362435.46547  20844199.094    20844206.7324
  22334279.495   -16419554.543 8 -12769176.13646  22334279.734    22334288.8134
  21947970.898   -14510756.961 8 -11290376.78147  21947973.297    21947981.5944
  23879081.827    -7090502.398 8  -5513322.79645  23879083.573    23879094.4064
  24288453.563    -3621504.174 7  -2803117.79345  24288451.426    24288461.3554
  20606039.772   -22903978.830 9 -17609075.03448  20606042.402    20606049.8464
 00  7 19  4 18  0.0000000  0  7 22 03 31 19 25 16 01
  21090830.940   -22844411.281 9 -17776572.11347  21090834.042    21090841.3334
  20837035.278   -22344484.121 9 -17391760.88347  20837037.810    20837044.9694
  22314360.199   -16524218.651 8 -12850732.49646  22314362.868    22314371.1174
  21934067.244   -14583814.916 8 -11347305.00947  21934070.557    21934079.0164
  23894550.270    -7009240.854 8  -5450002.28845  23894547.726    23894558.3534
  24302890.775    -3545620.879 7  -2743987.98245  24302891.740    24302901.5754
  20607764.984   -22894908.573 9 -17602007.28948  20607768.180    20607775.7234
 00  7 19  4 18 30.0000000  0  7 22 03 31 19 25 16 01
  21103776.084   -22776384.484 9 -17723564.22847  21103778.817    21103786.4394
  20829978.322   -22381561.190 9 -17420652.08247  20829982.111    20829989.4784
  22294490.958   -16628609.151 8 -12932075.65446  22294497.434    22294506.4594
  21920191.568   -14656731.784 8 -11404123.30347  21920195.535    21920203.0204
  23910042.171    -6927807.337 8  -5386547.72545  23910044.191    23910052.7694
  24317361.421    -3469545.742 7  -2684708.65745  24317367.323    24317379.5804
  20609601.506   -22885258.773 9 -17594487.95748  20609604.327    20609612.2964
 00  7 19  4 19  0.0000000  0  7 22 03 31 19 25 16 01
  21116766.081   -22708128.667 9 -17670377.89647  21116767.599    21116775.1884
  20823030.580   -22418079.863 9 -17449108.17047  20823032.457    20823039.9024
  22274680.298   -16732722.928 8 -13013203.18246  22274685.936    22274694.2864
  21906344.871   -14729506.114 8 -11460830.52947  21906347.261    21906354.9444
  23925567.001    -6846201.918 8  -5322959.20745  23925571.229    23925581.8714
  24331880.865    -3393281.984 7  -2625282.37145  24331879.277    24331891.2284
  20611550.026   -22875029.535 9 -17586517.11948  20611550.850    20611558.9034
 00  7 19  4 19 30.0000000  0  8 22 03 31 19 27 25 16 01
  21129797.201   -22639645.565 9 -17617014.45247  21129799.618    21129807.1644
  20816189.482   -22454038.891 9 -17477128.17047  20816189.865    20816197.3244
  22254923.175   -16836557.135 8 -13094112.88946  22254926.680    22254935.2554
  21892522.995   -14802136.548 8 -11517425.62847  21892526.094    21892533.6224
  25043866.095    -1338351.77917  -1021056.40755  25043870.084    25043881.2254
  23941131.796    -6764425.285 8  -5259237.31145  23941134.371    23941145.1884
  24346427.880    -3316832.715 7  -2565711.51845  24346428.341    24346438.7554
  20613606.968   -22864220.701 9 -17578094.64948  20613607.925    20613615.6524
 00  7 19  4 20  0.0000000  0  8 22 03 31 19 27 25 16 01
  21142869.393   -22570937.600 9 -17563475.78247  21142874.122    21142882.1434
  20809448.926   -22489437.223 9 -17504711.25947  20809453.914    20809461.5674
  22235218.694   -16940108.536 8 -13174802.19546  22235220.863    22235229.9954
  21878729.110   -14874621.663 8 -11573907.47747  21878731.963    21878740.4404
  25026549.332    -1429373.597 7  -1091982.37345  25026549.841    25026559.2094
  23956722.221    -6682477.809 8  -5195382.29245  23956728.181    23956739.3724
  24361008.877    -3240200.916 7  -2505998.41845  24361010.215    24361020.9724
  20615773.271   -22852832.383 9 -17569220.63148  20615775.215    20615782.7664
 00  7 19  4 20 30.0000000  0  8 22 03 31 19 27 25 16 01
  21155988.987   -22502006.636 9 -17509763.36347  21155991.242    21155999.1114
  20802821.773   -22524273.412 9 -17531856.31047  20802824.776    20802832.5344
  22215564.743   -17043374.528 8 -13255269.12646  22215569.853    22215579.3734
  21864961.919   -14946960.045 8 -11630274.99947  21864966.911    21864974.7324
  25009216.035    -1520456.624 7  -1162956.04245  25009217.757    25009226.8934
  23972351.602    -6600360.171 8  -5131394.68445  23972354.481    23972364.9544
  24375622.922    -3163389.820 7  -2446145.63845  24375627.471    24375637.8994
  20618049.671   -22840864.365 9 -17559894.89748  20618052.242    20618060.4264
 00  7 19  4 21  0.0000000  0  8 22 03 31 19 27 25 16 01
  21169148.202   -22432854.073 9 -17455878.26647  21169150.244    21169158.2394
  20796301.761   -22558546.479 9 -17558562.57347  20796302.727    20796310.7184
  22195975.446   -17146352.328 8 -13335511.49046  22195974.495    22195982.7344
  21851228.257   -15019150.211 8 -11686527.03647  21851229.612    21851237.7214
  24991869.151    -1611600.252 7  -1233976.92045  24991873.245    24991883.7714
  23988006.391    -6518072.708 8  -5067274.69645  23988013.191    23988023.3804
  24390277.695    -3086402.547 7  -2386155.54245  24390276.986    24390288.6964
  20620437.901   -22828316.880 9 -17550117.63948  20620439.958    20620447.8884
 00  7 19  4 21 30.0000000  0  8 22 03 31 19 27 25 16 01
  21182347.758   -22363481.481 9 -17401821.72647  21182350.821    21182359.9054
  20789885.302   -22592255.143 9 -17584829.03847  20789888.218    20789895.8454
  22176428.171   -17249038.933 8 -13415526.93946  22176433.762    22176442.4884
  21837516.535   -15091190.778 8 -11742662.49147  21837520.414    21837528.8174
  24974515.140    -1702803.697 7  -1305044.41845  24974517.508    24974527.5394
  24003698.661    -6435615.889 7  -5003022.76245  24003705.000    24003716.1384
  24404955.909    -3009242.000 7  -2326030.45645  24404960.958    24404971.4294
  20622936.089   -22815190.049 9 -17539888.94548  20622938.077    20622945.6834
 00  7 19  4 22  0.0000000  0  8 22 03 31 19 27 25 16 01
  21195591.740   -22293890.751 9 -17347595.20947  21195593.848    21195602.3014
  20783575.584   -22625398.219 9 -17610654.79047  20783581.316    20783588.6794
  22156946.788   -17351431.405 8 -13495313.20546  22156948.924    22156957.9144
  21823838.694   -15163080.137 9 -11798680.14647  21823840.906    21823848.6634
  24957148.554    -1794066.202 7  -1376157.89645  24957151.938    24957162.0734
  24019419.572    -6352990.381 7  -4938639.43545  24019427.706    24019439.5134
  24419668.213    -2931911.723 7  -2265773.15245  24419676.331    24419687.7274
  20625542.852   -22801484.161 9 -17529209.02848  20625546.247    20625553.8274
 00  7 19  4 22 30.0000000  0  8 22 03 31 19 27 25 16 01
  21208873.394   -22224084.009 9 -17293200.36347  21208877.715    21208885.7484
  20777378.345   -22657974.915 9 -17636039.20647  20777381.968    20777389.4994
  22137520.577   -17453526.891 8 -13574868.03346  22137520.816    22137529.3454
  21810186.547   -15234816.993 8 -11854578.96347  21810189.001    21810197.4294
  24939777.057    -1885387.042 7  -1447316.85445  24939773.951    24939781.3224
  24035180.908    -6270196.154 8  -4874124.60745  24035181.668    24035195.2364
  24434424.483    -2854414.375 7  -2205385.61845  24434423.265    24434434.0804
  20628261.385   -22787199.062 9 -17518077.77448  20628264.468    20628272.4274
 00  7 19  4 23  0.0000000  0  8 22 03 31 19 27 25 16 01
  21222199.668   -22154063.149 9 -17238638.66847  21222202.981    21222210.8664
  20771287.874   -22689984.157 9 -17660981.45347  20771290.603    20771298.3854
  22118146.145   -17555322.499 8 -13654189.21146  22118149.446    22118157.5264
  21796565.988   -15306399.870 8 -11910357.78547  21796567.200    21796575.9954
  24922381.797    -1976765.496 7  -1518520.70145  24922385.587    24922394.1794
  24050967.294    -6187233.698 7  -4809478.69745  24050969.889    24050981.4304
  24449202.865    -2776753.564 7  -2144870.72645  24449200.911    24449213.2534
  20631090.305   -22772334.929 9 -17506495.33048  20631093.087    20631100.9054
 00  7 19  4 23 30.0000000  0  8 22 03 31 19 27 25 16 01
  21235565.221   -22083829.435 9 -17183911.10847  21235568.425    21235575.4614
  20765302.956   -22721424.865 9 -17685480.68547  20765307.583    20765315.3454
  22098832.496   -17656815.350 8 -13733274.47746  22098836.046    22098843.8054
  21782970.819   -15377826.957 8 -11966015.21447  21782975.122    21782983.6474
  24904972.417    -2068200.925 7  -1589768.92745  24904983.673    24904995.6494
  24066783.596    -6104103.740 7  -4744702.21545  24066790.004    24066800.4994
  24463999.132    -2698932.167 7  -2084230.71245  24464009.701    24464021.3394
  20634028.605   -22756892.099 9 -17494461.96548  20634031.578    20634039.2644
